[[{"header":{"parameterUnit":"m.s-1","parameterCategory":1,"la1":30.6,"la2":28.766,"lo1":-90.7593,"lo2":-88.6598,"dy":0.0162,"dx":0.0183,"nx":116,"ny":114,"refTime":"2024-03-30T12:00:00:Z","depth":0,"parameterNumber":2,"parameterNumberName":"U-component_of_WINDS"},"data":[0.0,0.0,0.0,0.0,0.0,0.0,0.0,0.0,0.0,0.0,0.0,0.0,0.0,0.0,0.0,0.0,0.0,0.0,0.0,0.0,0.0,0.0,0.0,0.0,0.0,0.0,0.0,0.0,0.0,0.0,0.0,0.0,0.0,0.0,0.0,0.0,0.0,0.0,0.0,0.0,0.0,0.0,0.0,0.0,0.0,0.0,0.0,0.0,0.0,0.0,0.0,0.0,0.0,0.0,0.0,0.0,0.0,0.0,0.0,0.0,0.0,0.0,0.0,0.0,0.0,0.0,0.0,0.0,0.0,0.0,0.0,0.0,0.0,0.0,0.0,0.0,0.0,0.0,0.0,0.0,0.0,0.0,0.0,0.0,0.0,0.0,0.0,0.0,0.0,0.0,0.0,0.0,0.0,0.0,0.0,0.0,0.0,0.0,0.0,0.0,0.0,0.0,0.0,0.0,0.0,0.0,0.0,0.0,0.0,0.0,0.0,0.0,0.0,0.0,0.0,0.0,0.0,0.0,0.0,0.0,0.0,0.0,0.0,0.0,0.0,0.0,0.0,0.0,0.0,0.0,0.0,0.0,0.0,0.0,0.0,0.0,0.0,0.0,0.0,0.0,0.0,0.0,0.0,0.0,0.0,0.0,0.0,0.0,0.0,0.0,0.0,0.0,0.0,0.0,0.0,0.0,0.0,0.0,0.0,0.0,0.0,0.0,0.0,0.0,0.0,0.0,0.0,0.0,0.0,0.0,0.0,0.0,0.0,0.0,0.0,0.0,0.0,0.0,0.0,0.0,0.0,0.0,0.0,0.0,0.0,0.0,0.0,0.0,0.0,0.0,0.0,0.0,0.0,0.0,0.0,0.0,0.0,0.0,0.0,0.0,0.0,0.0,0.0,0.0,0.0,0.0,0.0,0.0,0.0,0.0,0.0,0.0,0.0,0.0,0.0,0.0,0.0,0.0,0.0,0.0,0.0,0.0,0.0,0.0,0.0,0.0,0.0,0.0,0.0,0.0,0.0,0.0,0.0,0.0,0.0,0.0,0.0,0.0,0.0,0.0,0.0,0.0,0.0,0.0,0.0,0.0,0.0,0.0,0.0,0.0,0.0,0.0,0.0,0.0,0.0,0.0,0.0,0.0,0.0,0.0,0.0,0.0,0.0,0.0,0.0,0.0,0.0,0.0,0.0,0.0,0.0,0.0,0.0,0.0,0.0,0.0,0.0,0.0,0.0,0.0,0.0,0.0,0.0,0.0,0.0,0.0,0.0,0.0,0.0,0.0,0.0,0.0,0.0,0.0,0.0,0.0,0.0,0.0,0.0,0.0,0.0,0.0,0.0,0.0,0.0,0.0,0.0,0.0,0.0,0.0,0.0,0.0,0.0,0.0,0.0,0.0,0.0,0.0,0.0,0.0,0.0,0.0,0.0,0.0,0.0,0.0,0.0,0.0,0.0,0.0,0.0,0.0,0.0,0.0,0.0,0.0,0.0,0.0,0.0,0.0,0.0,0.0,0.0,0.0,0.0,0.0,0.0,0.0,0.0,0.0,0.0,0.0,0.0,0.0,0.0,0.0,0.0,0.0,0.0,0.0,0.0,0.0,0.0,0.0,0.0,0.0,0.0,0.0,0.0,0.0,0.0,0.0,0.0,0.0,0.0,0.0,0.0,0.0,0.0,0.0,0.0,0.0,0.0,0.0,0.0,0.0,0.0,0.0,0.0,0.0,0.0,0.0,0.0,0.0,0.0,0.0,0.0,0.0,0.0,0.0,0.0,0.0,0.0,0.0,0.0,0.0,0.0,0.0,0.0,0.0,0.0,0.0,0.0,0.0,0.0,0.0,0.0,0.0,0.0,0.0,0.0,0.0,0.0,0.0,0.0,0.0,0.0,0.0,0.0,0.0,0.0,0.0,0.0,0.0,0.0,0.0,0.0,0.0,0.0,0.0,0.0,0.0,0.0,0.0,0.0,0.0,0.0,0.0,0.0,0.0,0.0,0.0,0.0,0.0,0.0,0.0,0.0,0.0,0.0,0.0,0.0,0.0,0.0,0.0,0.0,0.0,0.0,0.0,0.0,0.0,0.0,0.0,0.0,0.0,0.0,0.0,0.0,0.0,0.0,0.0,0.0,0.0,0.0,0.0,0.0,0.0,0.0,0.0,0.0,0.0,0.0,0.0,0.0,0.0,0.0,0.0,0.0,0.0,0.0,0.0,0.0,0.0,0.0,0.0,0.0,0.0,0.0,0.0,0.0,0.0,0.0,0.0,0.0,0.0,0.0,0.0,0.0,0.0,0.0,0.0,0.0,0.0,0.0,0.0,0.0,0.0,0.0,0.0,0.0,0.0,0.0,0.0,0.0,0.0,0.0,0.0,0.0,0.0,0.0,0.0,0.0,0.0,0.0,0.0,0.0,0.0,0.0,0.0,0.0,0.0,0.0,0.0,0.0,0.0,0.0,0.0,0.0,0.0,0.0,0.0,0.0,0.0,0.0,0.0,0.0,0.0,0.0,0.0,0.0,0.0,0.0,0.0,0.0,0.0,0.0,0.0,0.0,0.0,0.0,0.0,0.0,0.0,0.0,0.0,0.0,0.0,0.0,0.0,0.0,0.0,0.0,0.0,0.0,0.0,0.0,0.0,0.0,0.0,0.0,0.0,0.0,0.0,0.0,0.0,0.0,0.0,0.0,0.0,0.0,0.0,0.0,0.0,0.0,0.0,0.0,0.0,0.0,0.0,0.0,0.0,0.0,0.0,0.0,0.0,0.0,0.0,0.0,0.0,0.0,0.0,0.0,0.0,0.0,0.0,0.0,0.0,0.0,0.0,0.0,0.0,0.0,0.0,0.0,0.0,0.0,0.0,0.0,0.0,0.0,0.0,0.0,0.0,0.0,0.0,0.0,0.0,0.0,0.0,0.0,0.0,0.0,0.0,0.0,0.0,0.0,0.0,0.0,0.0,0.0,0.0,0.0,0.0,0.0,0.0,0.0,0.0,0.0,0.0,0.0,0.0,0.0,0.0,0.0,0.0,0.0,0.0,0.0,0.0,0.0,0.0,0.0,0.0,0.0,0.0,0.0,0.0,0.0,0.0,0.0,0.0,0.0,0.0,0.0,0.0,0.0,0.0,0.0,0.0,0.0,0.0,0.0,0.0,0.0,0.0,0.0,0.0,0.0,0.0,0.0,0.0,0.0,0.0,0.0,0.0,0.0,0.0,0.0,0.0,0.0,0.0,0.0,0.0,0.0,0.0,0.0,0.0,0.0,0.0,0.0,0.0,0.0,0.0,0.0,0.0,0.0,0.0,0.0,0.0,0.0,0.0,0.0,0.0,0.0,0.0,0.0,0.0,0.0,0.0,0.0,0.0,0.0,0.0,0.0,0.0,0.0,0.0,0.0,0.0,0.0,0.0,0.0,0.0,0.0,0.0,0.0,0.0,0.0,0.0,0.0,0.0,0.0,0.0,0.0,0.0,0.0,0.0,0.0,0.0,0.0,0.0,0.0,0.0,0.0,0.0,0.0,0.0,0.0,0.0,0.0,0.0,0.0,0.0,0.0,0.0,0.0,0.0,0.0,0.0,0.0,0.0,0.0,0.0,0.0,0.0,0.0,0.0,0.0,0.0,0.0,0.0,0.0,0.0,0.0,0.0,0.0,0.0,0.0,0.0,0.0,0.0,0.0,0.0,0.0,0.0,0.0,0.0,0.0,0.0,0.0,0.0,0.0,0.0,0.0,0.0,0.0,0.0,0.0,0.0,0.0,0.0,0.0,0.0,0.0,0.0,0.0,0.0,0.0,0.0,0.0,0.0,0.0,0.0,0.0,0.0,0.0,0.0,0.0,0.0,0.0,0.0,0.0,0.0,0.0,0.0,0.0,0.0,0.0,0.0,0.0,0.0,0.0,0.0,0.0,0.0,0.0,0.0,0.0,0.0,0.0,0.0,0.0,0.0,0.0,0.0,0.0,0.0,0.0,0.0,0.0,0.0,0.0,0.0,0.0,0.0,0.0,0.0,0.0,0.0,0.0,0.0,0.0,0.0,0.0,0.0,0.0,0.0,0.0,0.0,0.0,0.0,0.0,0.0,0.0,0.0,0.0,0.0,0.0,0.0,0.0,0.0,0.0,0.0,0.0,0.0,0.0,0.0,0.0,0.0,0.0,0.0,0.0,0.0,0.0,0.0,0.0,0.0,0.0,0.0,0.0,0.0,0.0,0.0,0.0,0.0,0.0,0.0,0.0,0.0,0.0,0.0,0.0,0.0,0.0,0.0,0.0,0.0,0.0,0.0,0.0,0.0,0.0,0.0,0.0,0.0,0.0,0.0,0.0,0.0,0.0,0.0,0.0,0.0,0.0,0.0,0.0,0.0,0.0,0.0,0.0,0.0,0.0,0.0,0.0,0.0,0.0,0.0,0.0,0.0,0.0,0.0,0.0,0.0,0.0,0.0,0.0,0.0,0.0,0.0,0.0,0.0,0.0,0.0,0.0,0.0,0.0,0.0,0.0,0.0,0.0,0.0,0.0,0.0,0.0,0.0,0.0,0.0,0.0,0.0,0.0,0.0,0.0,0.0,0.0,0.0,0.0,0.0,0.0,0.0,0.0,0.0,0.0,0.0,0.0,0.0,0.0,0.0,0.0,0.0,0.0,0.0,0.0,0.0,0.0,0.0,0.0,0.0,0.0,0.0,0.0,0.0,0.0,0.0,0.0,0.0,0.0,0.0,0.0,0.0,0.0,0.0,0.0,0.0,0.0,0.0,0.0,0.0,0.0,0.0,0.0,0.0,0.0,0.0,0.0,0.0,0.0,0.0,0.0,0.0,0.0,0.0,0.0,0.0,0.0,0.0,0.0,0.0,0.0,0.0,0.0,0.0,0.0,0.0,0.0,0.0,0.0,0.0,0.0,0.0,0.0,0.0,0.0,0.0,0.0,0.0,0.0,0.0,0.0,0.0,0.0,0.0,0.0,0.0,0.0,0.0,0.0,0.0,0.0,0.0,0.0,0.0,0.0,0.0,0.0,0.0,0.0,0.0,0.0,0.0,0.0,0.0,0.0,0.0,0.0,0.0,0.0,0.0,0.0,0.0,0.0,0.0,0.0,0.0,0.0,0.0,0.0,0.0,0.0,0.0,0.0,0.0,0.0,0.0,0.0,0.0,0.0,0.0,0.0,0.0,0.0,0.0,0.0,0.0,0.0,0.0,0.0,0.0,0.0,0.0,0.0,0.0,0.0,0.0,0.0,0.0,0.0,0.0,0.0,0.0,0.0,0.0,0.0,0.0,0.0,0.0,0.0,0.0,0.0,0.0,0.0,0.0,0.0,0.0,0.0,0.0,0.0,0.0,0.0,0.0,0.0,0.0,0.0,0.0,0.0,0.0,0.0,0.0,0.0,0.0,0.0,0.0,0.0,0.0,0.0,0.0,0.0,0.0,0.0,0.0,0.0,0.0,0.0,0.0,0.0,0.0,0.0,0.0,0.0,0.0,0.0,0.0,0.0,0.0,0.0,0.0,0.0,0.0,0.0,0.0,0.0,0.0,0.0,0.0,0.0,0.0,0.0,0.0,0.0,0.0,0.0,0.0,0.0,0.0,0.0,0.0,0.0,0.0,0.0,0.0,0.0,0.0,0.0,0.0,0.0,0.0,0.0,0.0,0.0,0.0,0.0,0.0,0.0,0.0,0.0,0.0,0.0,0.0,0.0,0.0,0.0,0.0,0.0,0.0,0.0,0.0,0.0,0.0,0.0,0.0,0.0,0.0,0.0,0.0,0.0,0.0,0.0,0.0,0.0,0.0,0.0,0.0,0.0,0.0,0.0,0.0,0.0,0.0,0.0,0.0,0.0,0.0,0.0,0.0,0.0,0.0,0.0,0.0,0.0,0.0,0.0,0.0,0.0,0.0,0.0,0.0,0.0,0.0,0.0,0.0,0.0,0.0,0.0,0.0,0.0,0.0,0.0,0.0,0.0,0.0,0.0,0.0,0.0,0.0,0.0,0.0,0.0,0.0,0.0,0.0,0.0,0.0,0.0,0.0,0.0,0.0,0.0,0.0,0.0,0.0,0.0,0.0,0.0,0.0,0.0,0.0,0.0,0.0,0.0,0.0,0.0,0.0,4.1888,0.0,0.0,0.0,0.0,0.0,0.0,0.0,0.0,0.0,0.0,0.0,0.0,0.0,0.0,0.0,0.0,0.0,0.0,0.0,0.0,0.0,0.0,0.0,0.0,3.3116,3.3719,3.4647,3.4737,3.5056,3.5814,0.0,0.0,0.0,0.0,0.0,3.5709,3.5709,3.5484,3.5016,3.5016,3.5153,3.5476,3.5476,3.5306,3.5016,0.0,0.0,0.0,0.0,0.0,0.0,0.0,0.0,0.0,0.0,0.0,0.0,0.0,0.0,0.0,0.0,0.0,0.0,0.0,0.0,0.0,0.0,0.0,0.0,0.0,0.0,0.0,0.0,0.0,0.0,0.0,0.0,0.0,0.0,0.0,0.0,0.0,0.0,0.0,0.0,0.0,0.0,0.0,0.0,0.0,0.0,0.0,0.0,0.0,0.0,0.0,0.0,0.0,0.0,0.0,0.0,0.0,0.0,0.0,0.0,0.0,0.0,0.0,0.0,0.0,0.0,0.0,0.0,0.0,0.0,0.0,4.3021,0.0,0.0,0.0,0.0,0.0,0.0,0.0,0.0,0.0,0.0,0.0,0.0,0.0,0.0,0.0,0.0,0.0,0.0,0.0,0.0,0.0,3.2378,3.3829,3.4075,3.4496,3.546,3.5407,3.567,3.6549,3.659,0.0,0.0,0.0,3.6938,3.6118,3.6232,3.5931,3.5077,3.5191,3.5564,3.6122,3.6122,3.5819,3.5266,3.512,0.0,0.0,0.0,0.0,0.0,0.0,0.0,0.0,0.0,0.0,0.0,0.0,0.0,0.0,0.0,0.0,0.0,0.0,0.0,0.0,0.0,0.0,0.0,0.0,0.0,0.0,0.0,0.0,0.0,0.0,0.0,0.0,0.0,0.0,0.0,0.0,0.0,0.0,0.0,0.0,0.0,0.0,0.0,0.0,0.0,0.0,0.0,0.0,0.0,0.0,0.0,0.0,0.0,0.0,0.0,0.0,0.0,0.0,0.0,0.0,0.0,0.0,0.0,0.0,4.5536,4.5538,4.5561,4.5561,4.5497,4.4842,4.4318,4.3954,0.0,0.0,0.0,0.0,0.0,0.0,0.0,0.0,0.0,0.0,0.0,0.0,0.0,0.0,0.0,0.0,0.0,0.0,0.0,0.0,3.3532,3.3505,3.4355,3.5238,3.597,3.6136,3.6587,3.741,3.73,3.6937,3.633,3.6205,3.5722,3.4856,3.5571,3.5888,3.5754,3.6468,3.6881,3.6948,3.6948,3.6896,3.6806,3.6784,3.6784,3.6806,0.0,0.0,0.0,0.0,0.0,0.0,0.0,0.0,0.0,0.0,0.0,0.0,0.0,0.0,0.0,0.0,0.0,0.0,0.0,0.0,0.0,0.0,0.0,0.0,0.0,0.0,0.0,0.0,0.0,0.0,0.0,0.0,0.0,0.0,0.0,0.0,0.0,0.0,0.0,0.0,0.0,3.9934,4.144,0.0,0.0,0.0,0.0,0.0,0.0,0.0,0.0,0.0,0.0,0.0,0.0,0.0,0.0,4.5687,4.6441,4.6863,4.698,4.7768,4.8098,4.8098,4.8092,4.8119,4.8107,4.7982,0.0,4.4894,4.5636,0.0,0.0,0.0,0.0,0.0,0.0,0.0,0.0,0.0,0.0,0.0,0.0,0.0,0.0,0.0,0.0,0.0,0.0,0.0,0.0,0.0,3.5078,3.5836,3.6234,3.6672,3.7072,3.7433,3.7289,3.703,3.6691,3.6603,3.6385,3.601,3.6385,3.6573,3.6573,3.7361,3.8037,3.8488,3.8976,3.9427,3.984,3.984,3.8826,3.7099,3.7099,0.0,0.0,0.0,0.0,0.0,0.0,0.0,0.0,0.0,0.0,0.0,0.0,0.0,0.0,0.0,0.0,0.0,0.0,0.0,0.0,0.0,0.0,0.0,0.0,0.0,0.0,0.0,0.0,0.0,0.0,0.0,0.0,0.0,0.0,0.0,0.0,0.0,0.0,0.0,4.0432,4.123,4.1993,4.221,4.2571,0.0,0.0,0.0,0.0,0.0,0.0,0.0,0.0,0.0,4.6084,4.6577,4.7015,4.7416,4.7761,4.7978,4.7978,4.836,4.8536,4.8536,4.8536,4.8555,4.8582,4.8612,4.8015,4.7042,4.7447,4.7383,4.7048,0.0,0.0,0.0,0.0,0.0,4.7773,0.0,0.0,0.0,0.0,0.0,0.0,0.0,0.0,0.0,0.0,0.0,0.0,3.5057,3.574,3.6292,3.6844,3.7106,3.7343,3.7608,3.7303,3.7174,3.7399,3.7399,3.7512,3.7737,3.7925,3.815,3.8338,3.8939,3.969,4.0553,4.1154,4.1867,4.2629,4.2431,4.0741,3.8037,3.8037,3.7925,3.7737,0.0,0.0,0.0,0.0,0.0,0.0,0.0,0.0,0.0,0.0,0.0,0.0,0.0,0.0,0.0,0.0,0.0,0.0,0.0,0.0,0.0,0.0,0.0,0.0,0.0,0.0,0.0,0.0,0.0,0.0,0.0,0.0,0.0,0.0,0.0,0.0,0.0,4.2008,4.2497,4.2705,4.3105,4.3543,0.0,0.0,0.0,0.0,0.0,0.0,4.5658,4.681,4.7494,4.7534,4.8128,4.8554,4.8839,4.9032,4.9251,4.9459,4.9678,4.9794,4.9794,4.9794,4.9808,4.9843,4.9846,4.9873,4.9787,4.8963,4.8599,4.8629,4.8668,4.8709,4.8711,4.8867,4.8906,4.8906,0.0,0.0,0.0,0.0,0.0,0.0,0.0,0.0,0.0,0.0,0.0,3.5209,3.5813,3.5979,3.6663,3.8085,3.7535,3.7422,3.8211,3.7512,3.7437,3.8225,3.8225,3.8638,3.9451,4.0215,4.1004,4.1755,4.1766,4.228,4.3106,4.3144,4.3595,4.4346,4.3595,4.2243,4.0591,4.0591,4.0178,3.9489,3.9489,0.0,0.0,0.0,0.0,0.0,0.0,0.0,0.0,0.0,0.0,0.0,0.0,0.0,0.0,0.0,0.0,0.0,0.0,0.0,0.0,0.0,0.0,0.0,0.0,0.0,0.0,0.0,0.0,0.0,0.0,0.0,0.0,0.0,0.0,0.0,0.0,0.0,0.0,4.4369,4.3788,0.0,0.0,0.0,0.0,4.6861,4.7055,4.7403,4.8178,4.8294,4.8385,4.8425,4.8451,4.8877,4.973,5.0477,5.1276,5.2128,5.2872,5.3227,5.3227,5.3227,5.3243,5.3243,5.3243,5.3243,5.3027,4.99,4.8609,4.86,4.8677,4.8708,4.8711,4.8867,4.8906,4.8906,0.0,0.0,0.0,0.0,0.0,3.1091,3.1579,3.2691,3.3614,3.4116,3.5011,3.5694,3.5882,3.6866,3.7529,3.7512,3.7737,3.7549,3.6798,3.7474,3.7774,3.7549,3.8563,3.9502,4.0328,4.1154,4.198,4.2844,4.3369,4.4045,4.4871,4.5435,4.5848,4.611,4.581,4.5059,4.3857,4.2243,4.1417,4.1154,4.1154,4.1154,0.0,0.0,0.0,0.0,0.0,0.0,0.0,0.0,0.0,0.0,0.0,0.0,0.0,0.0,0.0,0.0,0.0,0.0,0.0,0.0,0.0,0.0,0.0,0.0,0.0,0.0,0.0,0.0,0.0,0.0,0.0,0.0,0.0,0.0,0.0,0.0,0.0,4.4562,4.5297,0.0,0.0,4.6886,4.7287,4.7946,4.7998,4.8166,4.8438,4.9495,5.0076,5.0129,5.1145,5.1881,5.2191,5.2485,5.305,5.3901,5.4194,5.4619,5.5122,5.5122,5.5122,5.5084,5.4542,5.4349,5.4194,5.2476,5.1741,5.178,5.1818,5.1525,5.105,5.1208,5.0937,5.0469,0.0,0.0,0.0,0.0,3.081,3.1657,3.2405,3.3353,3.4222,3.4943,3.5587,3.6174,3.6648,3.7662,3.8188,3.7962,3.815,3.7962,3.7211,3.7887,3.845,3.8751,4.0365,4.1642,4.2431,4.2994,4.367,4.4533,4.5097,4.5772,4.6561,4.7124,4.7575,4.7838,4.7537,4.7087,4.6411,4.4496,4.3219,4.2431,4.2104,4.1991,4.1916,0.0,0.0,0.0,0.0,0.0,0.0,0.0,0.0,0.0,0.0,0.0,0.0,0.0,0.0,0.0,0.0,0.0,0.0,0.0,0.0,0.0,0.0,0.0,0.0,0.0,0.0,0.0,0.0,0.0,0.0,0.0,0.0,0.0,0.0,0.0,4.544,4.5452,4.6689,4.754,4.754,4.8072,4.8629,4.9195,4.9315,4.96,5.0167,5.1223,5.1982,5.2253,5.3359,5.4194,5.4774,5.4774,5.5238,5.6089,5.6089,5.636,5.6863,5.6863,5.6863,5.6863,5.6321,5.6089,5.6051,5.5449,5.5216,5.51,5.4,5.3247,5.2757,5.2922,5.262,5.213,0.0,0.0,0.0,3.0772,3.1713,3.2618,3.3289,3.4376,3.5303,3.5851,3.6071,3.6717,3.8136,3.8338,3.8676,3.9489,3.8826,3.8676,3.9526,3.8826,3.9502,4.1954,4.367,4.4909,4.5697,4.5735,4.6186,4.7049,4.7049,4.7462,4.8251,4.8251,4.8701,4.9452,4.8626,4.8251,4.8176,4.7387,4.566,4.3369,4.2506,4.2104,4.2104,0.0,0.0,0.0,0.0,0.0,0.0,0.0,0.0,0.0,0.0,0.0,0.0,0.0,0.0,0.0,0.0,0.0,0.0,0.0,0.0,0.0,0.0,0.0,0.0,0.0,0.0,0.0,0.0,0.0,0.0,0.0,0.0,0.0,4.5993,4.6612,4.7154,4.7154,4.7927,4.8469,4.8469,4.8537,4.9234,5.0867,5.1091,5.1827,5.3459,5.3575,5.4,5.4851,5.489,5.5702,5.7327,5.7327,5.7791,5.8642,5.8642,5.8642,5.8681,5.8681,5.8681,5.8681,5.866,5.8621,5.8621,5.86,5.8618,5.8291,5.5023,5.373,5.373,5.3801,5.378,5.3758,0.0,0.0,2.9982,3.0753,3.1713,3.2618,3.3289,3.4773,3.5836,3.5904,3.6957,3.7845,3.8263,3.8863,3.9089,3.8676,3.9014,3.9089,3.8676,4.014,4.183,4.3745,4.4834,4.5472,4.5697,4.6336,4.7049,4.7875,4.7875,4.8326,4.9152,4.9152,4.9265,4.949,4.9265,4.9152,4.9077,4.8213,4.7462,4.6711,4.5284,4.4684,4.4571,0.0,0.0,0.0,0.0,0.0,0.0,0.0,0.0,0.0,0.0,0.0,0.0,0.0,0.0,0.0,0.0,0.0,0.0,0.0,0.0,0.0,0.0,0.0,0.0,0.0,0.0,0.0,0.0,0.0,0.0,0.0,0.0,4.7966,4.7734,4.7889,4.8043,4.8043,4.932,5.021,5.021,5.1386,5.2276,5.2763,5.3398,5.3978,5.4426,5.5586,5.636,5.6631,5.7211,5.7791,5.8255,5.8255,5.8681,5.9532,5.9532,5.9841,6.0422,6.0422,6.0422,6.0383,5.9803,5.9532,5.9493,5.8854,5.8583,5.8505,5.7594,5.6842,5.63,5.6338,5.5652,5.4536,0.0,3.0154,3.0471,3.1356,3.2386,3.3235,3.3921,3.5268,3.6272,3.6393,3.7512,3.845,3.8788,3.9276,3.9539,3.9352,3.9802,4.0178,4.0365,4.2055,4.3632,4.4946,4.5435,4.6035,4.6711,4.7237,4.8063,4.9227,4.9227,4.9678,5.0504,5.0504,5.0504,5.0504,5.0504,5.0504,5.0466,4.9978,4.9565,4.9114,4.78,4.6861,4.611,4.4796,4.4308,4.4195,4.3369,4.3069,4.3069,4.3069,0.0,0.0,0.0,0.0,0.0,0.0,0.0,0.0,0.0,0.0,0.0,0.0,0.0,0.0,0.0,0.0,0.0,0.0,0.0,0.0,0.0,0.0,0.0,0.0,4.8933,4.9204,4.99,4.9668,4.9436,4.9436,5.0945,5.2144,5.2492,5.3459,5.4349,5.5045,5.5548,5.6012,5.636,5.7327,5.8023,5.8372,5.8874,5.93,5.9648,5.9648,6.0074,6.0963,6.0963,6.1389,6.2201,6.2201,6.2201,0.0,6.1678,6.1291,6.0904,6.0401,5.9976,0.0,0.0,0.0,0.0,0.0,5.7306,5.6437,3.0095,3.0516,3.1224,3.2237,3.3239,3.4143,3.4794,3.5834,3.6691,3.7055,3.7887,3.8751,3.9526,3.9526,3.9802,4.0703,4.0816,4.1567,4.3332,4.4195,4.4946,4.566,4.5885,4.6674,4.8176,4.8401,4.9189,5.0691,5.0767,5.118,5.1893,5.1893,5.1893,5.1893,5.1893,5.1893,5.1893,5.1893,5.148,5.0767,5.0053,4.8701,4.7049,4.6186,4.5848,4.5735,4.4946,4.4646,4.4646,4.4533,0.0,0.0,0.0,0.0,0.0,0.0,0.0,0.0,0.0,0.0,0.0,0.0,0.0,0.0,0.0,0.0,0.0,0.0,0.0,0.0,0.0,0.0,0.0,0.0,4.9977,5.0558,5.2105,5.1834,5.1447,5.137,5.2801,5.4155,5.5122,5.5238,5.5896,5.7482,5.7598,5.7946,5.872,0.0,0.0,0.0,0.0,6.0576,6.1389,6.1389,6.1776,6.2549,6.2549,6.2936,6.369,6.369,6.369,6.369,6.3709,6.3245,6.253,6.253,6.2104,6.1234,5.9529,5.8854,5.8874,5.8758,5.8738,0.0,2.9962,3.0587,3.1404,3.2272,3.3387,3.4304,3.4812,3.631,3.7319,3.713,3.8413,3.9389,3.9602,3.8976,3.9164,4.0666,4.0816,4.1792,4.412,4.5021,4.5547,4.5697,4.7012,4.7875,4.8176,4.9527,5.0353,5.0691,5.1367,5.1743,5.1893,5.1893,5.1893,5.1893,5.1893,5.1893,5.1893,5.1893,5.1818,5.1668,5.1518,5.0053,4.7875,4.7049,4.6749,4.6636,4.5772,4.5472,4.5359,4.4721,4.4411,4.4353,4.4353,4.4461,0.0,0.0,0.0,0.0,0.0,0.0,0.0,0.0,0.0,0.0,0.0,0.0,0.0,0.0,0.0,0.0,0.0,0.0,0.0,5.1486,5.1718,5.2066,5.3111,5.4271,5.4774,5.4116,5.4929,5.6128,5.7714,5.7869,5.8294,5.93,5.9416,5.9455,5.9648,6.0267,0.0,6.1892,6.193,6.2317,6.3168,6.3207,6.3284,6.3458,0.0,0.0,6.369,6.369,6.369,6.369,6.369,6.3574,6.3438,6.3438,6.3361,6.3013,6.1291,6.0615,6.0538,5.99,5.963,5.9552,3.0468,3.1193,3.1948,3.2466,3.3693,3.4887,3.5529,3.6746,3.7604,3.7694,3.8788,3.9602,3.9602,3.9201,3.9614,4.1267,4.2168,4.3182,4.4421,4.5247,4.5885,4.6336,4.7537,4.8589,4.9415,5.0278,5.1104,5.1931,5.2344,5.2757,5.317,5.317,5.317,5.317,5.317,5.317,5.317,5.317,5.2907,5.2531,5.2531,5.1292,4.934,4.8551,4.7988,4.75,4.6636,4.6336,4.6223,4.5397,4.5097,4.5021,4.4646,4.4842,4.5304,0.0,0.0,0.0,0.0,0.0,0.0,0.0,0.0,0.0,0.0,0.0,0.0,0.0,0.0,4.9784,5.021,0.0,5.1215,5.2066,5.2569,5.3304,5.4581,5.547,5.5857,5.547,5.6515,5.7791,5.9106,5.9261,5.9609,6.0422,6.0886,6.1157,6.1157,6.193,6.2588,6.3052,6.3052,6.3245,6.371,6.371,6.3903,6.4348,6.4348,6.4561,6.4948,6.4948,6.4948,6.4948,6.4948,6.4715,6.4309,6.3864,6.371,6.3594,6.2723,6.2105,6.1717,6.1311,6.0886,6.0442,3.1016,3.1906,3.2564,3.286,3.4182,3.55,3.6348,3.7101,3.7776,3.8267,3.91,3.9602,3.9602,3.9427,3.999,4.1642,4.3444,4.4496,4.4496,4.5397,4.6261,4.6974,4.7913,4.9152,5.0654,5.0842,5.1668,5.317,5.3357,5.377,5.4409,5.4409,5.4409,5.4409,5.4409,5.4409,5.4409,5.4409,5.3999,5.3328,5.3433,5.2386,5.0778,5.0172,4.934,4.8363,4.7537,4.7237,4.7087,4.6223,4.596,4.5848,4.5209,4.5435,4.6017,4.6199,4.6705,0.0,0.0,0.0,0.0,0.0,0.0,0.0,0.0,0.0,4.9604,4.9869,5.0442,5.0945,5.1138,5.1718,5.2298,5.2647,5.342,5.4503,5.6051,5.6553,5.6747,5.6747,5.7985,5.9261,6.0306,6.0228,6.0538,6.1543,6.2085,6.2472,6.2627,6.3323,6.3787,6.3942,6.3942,6.4097,6.4445,6.4445,6.487,6.5741,6.5741,6.6089,6.6709,6.6709,6.6709,6.6709,6.6709,6.634,6.5682,6.4966,6.4598,6.4443,6.4443,6.3806,6.2878,6.2723,6.222,6.1582,0.0,3.2168,3.3029,3.367,3.4789,3.5854,3.6546,3.7185,3.7833,3.8471,3.9157,3.9602,3.9602,3.8901,3.9126,4.0778,4.3144,4.4496,4.4496,4.5998,4.6899,4.7012,4.8514,4.979,5.0654,5.1405,5.2231,5.317,5.3921,5.4296,5.4409,5.4409,5.4409,5.4409,5.4409,5.4409,5.4409,5.4409,5.4196,5.3869,5.4156,5.311,5.1335,5.1532,5.0691,4.9227,4.8363,4.8063,4.795,4.7124,4.6861,4.6861,4.6749,4.6786,4.6861,4.6891,4.6928,4.7032,4.7061,4.7588,4.8202,4.8412,4.906,4.9683,0.0,0.0,5.049,5.0703,5.0828,5.1138,5.1912,5.2144,5.2724,5.4271,5.52,5.6051,5.7018,5.8488,5.9455,5.9455,5.9648,6.0383,6.1969,6.1427,6.166,6.3284,6.2781,6.2743,6.3516,6.3632,6.4058,6.4831,6.4831,6.5566,6.7075,6.7075,6.7521,6.8354,6.8354,6.8432,6.8509,6.8509,6.8509,6.8509,6.8509,6.847,6.8354,6.8277,6.7753,6.7057,6.7057,6.6108,6.4618,6.3864,6.3497,6.3284,0.0,3.2555,3.3207,3.4539,3.5174,3.5958,3.7199,3.7491,3.8023,3.9195,3.9482,3.9602,3.9602,4.0103,4.0741,4.1454,4.3332,4.4496,4.4496,4.5585,4.6486,4.6974,4.8138,4.934,5.0654,5.1968,5.2832,5.317,5.4484,5.4859,5.4409,5.4409,5.4409,5.4409,5.4409,5.4409,5.4409,5.4409,5.4303,5.4161,5.3849,5.2878,5.1653,5.1335,5.0504,4.9452,4.9077,4.8964,0.0,4.7988,4.7687,4.7612,4.7162,4.7312,4.7687,4.7687,4.8063,4.8438,4.8438,4.8701,4.8995,0.0,4.9399,4.9769,5.0252,5.0363,5.0622,5.1476,5.1641,5.1912,5.2801,5.3382,5.4116,0.0,5.6205,5.725,5.8604,5.9455,6.0074,6.0538,6.0615,6.0886,6.1582,6.1776,6.2162,6.2897,6.3555,6.4058,6.4445,6.4909,6.5566,6.6417,6.6456,6.7036,6.8236,6.8274,6.8429,6.8798,6.8798,6.8777,6.8816,6.8816,6.8816,6.8816,6.8816,6.8816,6.8816,6.8816,6.8584,6.8253,6.8256,6.7851,6.6979,6.5161,6.4135,6.3651,0.0,3.3044,3.3646,3.5161,3.5432,3.6074,3.7742,3.7753,3.8156,3.9772,3.9754,3.9602,3.9602,4.1041,4.1991,4.1991,4.3557,4.4496,4.4496,4.5247,4.5998,4.6599,4.765,4.8889,5.0316,5.178,5.2719,5.317,5.4371,5.4747,5.4409,5.4409,5.4409,5.4409,5.4409,5.4409,5.4409,5.4409,5.4225,5.3893,5.3399,5.2498,5.1382,5.0885,5.0203,4.949,4.949,4.949,4.9415,4.8776,4.8551,4.8438,4.7875,4.8101,4.8551,4.8551,4.9002,4.949,4.949,4.949,0.0,4.949,4.949,4.9679,5.0291,5.043,5.0826,5.2183,5.2464,5.2752,5.3691,5.4542,5.5393,5.6205,5.7288,5.8449,5.9725,6.0074,6.046,6.1041,6.1311,6.1466,6.1466,6.2046,6.2588,6.3091,6.429,6.518,6.5644,6.6224,6.6959,6.7849,6.7849,6.8274,6.9125,6.9125,6.9241,6.9473,6.9473,6.9491,6.9469,6.9469,6.9469,6.9469,6.9469,6.9469,6.9469,6.9469,6.9353,6.9121,6.9146,6.8991,6.8566,6.6706,6.5507,6.4695,0.0,0.0,3.4577,3.5264,3.5546,3.6245,3.7936,3.7832,3.8211,3.9966,3.9867,3.9602,3.9602,4.1041,4.1991,4.1991,4.3557,4.4496,4.4496,4.5247,4.5697,4.5735,4.7312,4.8626,4.9527,5.0353,5.1555,5.317,5.3245,5.3658,5.4409,5.4409,5.4409,5.4409,5.4409,5.4409,5.4409,5.4409,5.3784,5.2789,5.3069,5.2023,5.0291,5.0595,5.0203,4.949,4.949,4.949,4.949,4.949,4.9452,4.9452,4.9415,4.9452,0.0,4.9452,4.949,4.949,4.949,0.0,4.949,4.949,4.949,4.977,5.0847,5.1054,5.1444,5.2811,5.3049,5.3417,5.4547,5.5432,5.6244,5.7134,5.872,5.9841,5.988,6.0576,6.1079,6.1118,6.1853,6.2356,0.0,6.2394,6.3091,6.4793,6.4948,6.5721,6.7346,6.7462,6.7849,6.8738,6.8759,6.9146,6.9938,6.9959,7.0384,7.1214,7.1214,7.1214,7.1214,7.1214,7.1214,7.1214,7.1214,7.1214,7.1214,7.1214,7.075,6.9955,6.9955,6.9491,6.8773,6.8696,6.8137,6.7134,0.0,0.0,0.0,0.0,0.0,3.6284,3.7947,3.7973,3.8367,3.9985,3.9958,0.0,0.0,0.0,0.0,0.0,4.3557,4.4496,4.4496,4.4759,4.5134,4.566,4.6223,4.7199,4.8626,4.9978,5.0954,5.1518,5.2644,5.3019,5.2757,5.2757,5.2757,5.2757,5.2757,5.2757,5.2757,5.2757,5.2503,5.2136,5.171,5.1147,5.0488,5.0059,4.9753,4.949,0.0,4.949,4.949,4.949,4.949,4.949,4.949,4.949,4.9602,5.0128,4.9903,4.9715,5.0804,0.0,5.0429,5.0954,5.1104,5.1237,5.1764,5.1926,5.2227,5.3388,5.3628,5.4096,5.5623,5.628,5.704,5.8466,5.936,6.0074,6.0615,6.0925,6.1311,6.1892,6.224,0.0,0.0,0.0,0.0,6.4948,6.6031,6.6882,6.7462,6.8042,6.8738,6.9551,6.9589,6.9976,7.0827,7.0866,7.1021,7.1291,7.1291,7.1291,7.1291,7.1291,7.1291,7.1291,7.1291,7.1291,7.1291,7.1291,7.1137,7.0866,7.0866,7.0711,7.038,6.98,6.9413,6.9009,0.0,0.0,0.0,0.0,0.0,0.0,0.0,0.0,0.0,0.0,0.0,0.0,0.0,0.0,0.0,0.0,0.0,4.4496,4.4496,4.4496,4.4721,4.5247,4.5547,4.6186,4.7274,4.8664,4.9527,4.979,5.0879,5.1405,5.148,5.148,5.163,5.1893,5.1893,5.1893,5.1893,5.1893,5.1743,5.1442,5.0917,5.0504,5.0203,4.9715,4.949,0.0,4.949,4.9678,4.9865,4.9602,4.9678,4.994,4.994,5.0128,5.0466,5.0992,5.0767,5.0579,5.163,5.1518,5.1255,5.178,5.1893,5.2033,5.2484,5.2621,5.2937,5.3982,5.4455,5.5042,5.6294,5.7234,5.8104,5.9125,5.9771,6.0383,6.0884,6.1232,6.1659,6.2298,6.2936,6.3787,0.0,0.0,0.0,6.5876,6.6882,6.7771,6.8352,6.8932,6.9628,7.044,7.044,7.0711,7.1291,7.1291,7.1291,7.1291,7.1291,7.1291,7.1291,7.1291,7.1291,7.1291,7.1291,7.1291,7.1291,7.1291,7.1291,7.1291,7.1291,7.1291,7.1214,7.0672,7.0457,7.0303,0.0,0.0,0.0,0.0,0.0,0.0,0.0,0.0,0.0,0.0,0.0,0.0,0.0,0.0,0.0,0.0,0.0,0.0,4.4496,4.4496,4.4496,4.4496,4.5247,4.566,4.5697,4.6523,4.735,4.8138,4.8176,4.9002,5.0541,5.0616,5.1029,5.178,5.178,5.178,5.178,5.178,5.133,5.0616,5.0616,5.0166,4.949,4.949,4.9527,4.9565,4.9565,5.0091,5.0616,4.9828,5.0091,5.0729,5.0691,5.1255,5.1931,5.1968,5.1931,5.1931,5.2006,5.2006,5.1968,5.2006,5.2043,5.2231,5.3057,5.3282,5.3607,5.464,5.5496,5.6156,0.0,0.0,5.9302,5.9098,5.9996,6.0727,6.0766,6.1497,6.2166,0.0,0.0,0.0,0.0,0.0,0.0,6.7617,0.0,6.8313,6.9899,7.0054,7.044,7.1253,7.1291,7.1291,7.1291,7.1291,7.1291,7.1291,7.1291,7.1291,7.1291,7.1291,7.1291,7.1291,7.1291,7.1291,7.1291,7.1291,7.1291,7.1291,7.1291,7.1291,7.1291,7.1291,7.1291,7.1059,0.0,0.0,0.0,0.0,0.0,0.0,0.0,0.0,0.0,0.0,0.0,0.0,0.0,0.0,0.0,0.0,0.0,0.0,4.4496,4.4496,4.4496,4.4496,4.4721,4.5097,4.5697,4.5923,4.6448,4.7312,4.7913,4.8401,4.8852,4.949,4.9903,5.0128,5.0128,5.0128,5.0128,5.0128,4.9978,4.9828,4.9828,4.9678,4.949,4.949,4.9865,5.0391,5.0391,5.0917,5.148,0.0,0.0,0.0,0.0,5.1255,5.2043,5.2682,5.2419,5.2193,5.3433,5.332,5.3019,5.362,5.377,5.3808,5.4033,5.4559,5.5081,5.5337,5.6086,5.6873,0.0,0.0,0.0,5.9797,6.0512,0.0,6.1891,6.2161,0.0,6.4174,0.0,6.5489,6.6727,6.7268,0.0,0.0,6.9357,6.9551,6.9976,7.0634,7.1059,7.1291,7.1291,7.1291,7.1291,7.1291,7.1291,7.1291,7.1291,7.1291,7.1291,7.1291,7.1291,7.1291,7.1291,7.1291,7.1291,7.1291,7.1291,7.1291,7.1291,7.1291,7.1291,7.1291,7.1291,7.1253,0.0,0.0,0.0,0.0,0.0,0.0,0.0,0.0,0.0,0.0,0.0,0.0,0.0,0.0,0.0,0.0,0.0,0.0,0.0,4.4496,4.4496,4.4496,4.4496,4.4721,4.5172,4.5172,4.5585,4.6448,4.6523,4.7124,4.8176,4.8326,4.8814,4.949,4.949,4.949,4.949,4.949,4.949,0.0,0.0,4.949,4.949,4.949,4.9978,5.0691,5.0691,5.1442,0.0,0.0,0.0,5.2456,5.2344,5.2644,5.3095,5.3583,0.0,5.3207,5.4146,5.4071,5.3846,5.4296,5.4672,5.4934,5.4934,5.5573,5.6174,5.6174,5.6849,0.0,0.0,0.0,0.0,0.0,0.0,0.0,6.2099,6.2523,6.3299,0.0,6.5644,0.0,6.7423,6.8158,6.897,0.0,6.9976,7.017,7.0556,7.1021,7.1291,7.1291,7.1291,7.1291,7.1291,7.1291,7.1291,7.1291,7.1291,7.1291,7.1291,7.1291,7.1291,7.1291,0.0,7.1291,7.1291,7.1291,7.1291,7.1291,7.1291,7.1291,7.1291,7.1291,7.1291,7.1291,0.0,0.0,0.0,0.0,0.0,0.0,0.0,0.0,0.0,0.0,4.0446,4.0422,0.0,0.0,0.0,0.0,0.0,0.0,0.0,0.0,4.4496,4.4496,4.4496,4.4496,4.4496,4.4496,4.4834,4.5547,4.4946,4.5772,4.7838,4.7274,4.7838,4.934,4.934,4.9377,4.949,4.949,4.949,4.949,4.949,4.949,4.949,0.0,0.0,5.0729,5.0954,0.0,0.0,0.0,5.3357,5.3433,5.4033,5.4296,5.4409,5.4409,5.4409,5.4409,5.4409,5.4484,5.4559,5.4559,5.516,5.5798,5.5798,5.6436,5.7075,5.7075,0.0,5.8276,5.8276,5.9279,6.0074,5.9868,0.0,6.1027,6.2098,6.2767,6.3723,6.5159,6.6611,6.7578,6.781,6.9164,7.0054,7.017,7.017,7.0479,7.1253,7.1291,7.1291,7.1291,7.1291,7.1291,7.1291,7.1291,7.1291,7.1291,7.1291,7.1291,7.1291,7.1291,7.1291,7.1291,0.0,0.0,7.1291,7.1291,7.1291,7.1291,7.1291,7.1291,7.1291,7.1291,7.1291,7.1291,0.0,0.0,0.0,0.0,0.0,0.0,0.0,0.0,0.0,0.0,4.0174,4.0554,0.0,0.0,0.0,0.0,0.0,0.0,0.0,0.0,0.0,4.4496,4.4496,4.4496,4.4496,4.4496,4.4571,0.0,0.0,4.5697,4.6148,4.6749,4.75,4.8438,4.8438,4.8814,4.949,4.949,4.949,4.949,4.949,4.949,4.949,4.949,0.0,0.0,0.0,0.0,0.0,0.0,5.4183,5.4108,5.3545,5.3846,5.4409,5.4409,5.4409,5.4409,5.4409,5.4897,5.5385,5.5385,5.6061,5.6662,5.6662,5.73,0.0,0.0,5.8539,5.9102,5.9102,5.9496,5.9931,6.0103,0.0,0.0,0.0,0.0,6.4147,0.0,0.0,0.0,0.0,0.0,0.0,0.0,0.0,0.0,7.1291,7.1291,7.1291,7.1291,7.1291,7.1291,7.1291,7.1291,7.1291,7.1291,7.1291,7.1291,7.1291,7.1291,7.1291,7.1291,0.0,0.0,7.1291,7.1291,7.1291,7.1291,7.1291,7.1291,7.1291,7.1291,7.1291,7.1291,0.0,0.0,0.0,0.0,0.0,0.0,0.0,3.7638,3.8528,3.9391,4.0179,4.064,4.0626,4.1012,4.1493,0.0,0.0,0.0,0.0,0.0,0.0,0.0,0.0,0.0,0.0,0.0,0.0,0.0,0.0,0.0,0.0,0.0,0.0,0.0,0.0,0.0,4.8852,4.9302,4.949,4.949,4.949,4.949,0.0,0.0,0.0,0.0,0.0,0.0,0.0,0.0,5.4409,5.4334,5.3958,5.4071,5.4409,5.4409,5.4409,5.4484,5.4934,5.531,5.5723,5.6174,5.6925,5.7525,5.7525,0.0,0.0,0.0,5.9027,5.929,5.929,0.0,0.0,0.0,0.0,0.0,0.0,0.0,0.0,0.0,0.0,0.0,0.0,0.0,0.0,0.0,0.0,0.0,7.1291,7.1291,7.1291,7.1291,7.1291,7.1291,7.1291,7.1291,7.1291,7.1291,7.1291,7.1291,7.1291,7.1291,7.1291,7.1291,7.1291,0.0,7.1291,7.1291,7.1291,7.1291,7.1291,7.1291,7.1291,7.1291,7.1291,7.1291,0.0,0.0,0.0,0.0,0.0,0.0,3.6555,3.7367,3.8179,3.8837,3.9843,4.0462,4.0314,4.059,4.0988,0.0,0.0,0.0,0.0,0.0,0.0,0.0,0.0,0.0,0.0,0.0,0.0,0.0,0.0,0.0,0.0,0.0,0.0,0.0,0.0,0.0,0.0,0.0,4.9227,0.0,0.0,0.0,0.0,0.0,0.0,0.0,0.0,0.0,0.0,0.0,5.4409,5.4409,5.4409,5.4409,5.4409,5.4409,5.4521,5.4822,5.546,5.5873,5.6324,5.7,5.7751,5.8351,5.8351,5.884,0.0,0.0,5.929,5.929,5.929,0.0,0.0,0.0,0.0,0.0,0.0,0.0,0.0,0.0,0.0,0.0,0.0,0.0,0.0,0.0,0.0,0.0,7.1291,7.1291,7.1291,7.1291,7.1291,7.1291,7.1291,7.1291,7.1291,7.1291,7.1291,7.1291,7.1291,7.1291,7.1291,7.1291,7.1291,0.0,0.0,7.1291,7.1291,7.1291,7.1291,7.1291,7.1291,7.1291,7.1291,7.1291,0.0,0.0,0.0,0.0,0.0,0.0,3.5781,3.6516,3.7058,3.7135,3.8605,3.9611,3.9598,4.0307,4.1107,0.0,0.0,0.0,0.0,0.0,0.0,0.0,0.0,0.0,0.0,0.0,0.0,0.0,0.0,0.0,0.0,0.0,0.0,0.0,0.0,0.0,0.0,0.0,0.0,0.0,0.0,0.0,0.0,0.0,0.0,0.0,0.0,0.0,0.0,0.0,0.0,5.4409,5.4409,5.4409,5.4409,5.4409,0.0,0.0,5.561,5.6737,5.7901,5.7976,5.8577,5.9178,5.9178,0.0,0.0,5.929,5.929,5.929,5.929,0.0,0.0,0.0,0.0,6.0274,0.0,0.0,0.0,0.0,0.0,0.0,0.0,0.0,0.0,0.0,0.0,0.0,0.0,7.1291,7.1291,7.1291,7.1291,7.1291,7.1291,7.1291,7.1291,7.1291,7.1291,7.1291,7.1291,7.1291,7.1291,7.1291,0.0,0.0,0.0,7.1291,7.1291,7.1291,7.1291,7.1291,7.1291,7.1291,7.1291,7.1291,0.0,0.0,0.0,0.0,0.0,0.0,3.5704,3.6361,3.6903,3.6903,3.7947,3.8914,3.9429,3.9816,4.0346,4.1197,0.0,0.0,0.0,0.0,0.0,0.0,0.0,0.0,0.0,0.0,0.0,0.0,0.0,0.0,0.0,0.0,0.0,0.0,0.0,0.0,0.0,0.0,0.0,0.0,0.0,0.0,0.0,0.0,0.0,0.0,0.0,0.0,0.0,0.0,0.0,0.0,5.4409,5.4747,0.0,0.0,5.4972,5.5723,5.6249,5.7225,5.8239,5.8689,5.9065,5.929,5.929,0.0,5.929,5.929,5.929,5.929,5.929,5.929,0.0,0.0,5.94,0.0,6.2361,0.0,0.0,0.0,0.0,0.0,0.0,0.0,0.0,0.0,0.0,0.0,0.0,7.1291,7.1291,7.1291,7.1291,7.1291,7.1291,7.1291,7.1291,7.1291,7.1291,7.1291,7.1291,7.1291,7.1291,7.1291,0.0,0.0,0.0,7.1291,7.1291,7.1291,7.1291,7.1291,7.1291,7.1291,7.1291,7.1291,0.0,0.0,0.0,0.0,0.0,3.5704,3.5704,3.6168,3.6555,3.6555,3.729,3.8063,3.8644,3.8953,3.9456,4.0346,4.1158,0.0,0.0,0.0,0.0,0.0,0.0,0.0,0.0,0.0,4.4496,4.4496,0.0,0.0,0.0,0.0,0.0,0.0,0.0,0.0,0.0,0.0,0.0,0.0,0.0,0.0,0.0,0.0,0.0,0.0,0.0,0.0,0.0,0.0,0.0,0.0,0.0,0.0,0.0,0.0,5.5535,5.6474,5.7075,5.7826,5.8577,5.9178,5.929,5.929,0.0,0.0,5.929,5.929,5.929,5.929,5.929,5.929,5.929,5.929,5.929,6.0001,6.2012,0.0,0.0,0.0,0.0,0.0,0.0,0.0,0.0,0.0,0.0,0.0,0.0,7.1291,7.1291,7.1291,7.1291,7.1291,7.1291,7.1291,7.1291,7.1291,7.1291,7.1291,7.1291,7.1291,7.1291,7.1291,0.0,0.0,0.0,7.1291,7.1291,7.1291,7.1291,7.1291,7.1291,7.1291,7.1291,7.1291,0.0,0.0,0.0,0.0,0.0,3.5704,3.5704,3.5704,3.5704,3.5704,3.64,3.6903,3.6942,3.7715,3.8566,3.9429,4.0307,0.0,0.0,0.0,0.0,0.0,0.0,0.0,0.0,0.0,4.4496,4.4496,4.4496,4.4496,0.0,0.0,0.0,0.0,0.0,0.0,0.0,0.0,0.0,0.0,0.0,0.0,0.0,0.0,0.0,0.0,0.0,0.0,0.0,0.0,0.0,0.0,0.0,5.4972,5.561,5.561,5.6774,5.8089,5.8089,5.8689,5.929,5.929,5.929,5.929,0.0,0.0,5.929,5.929,5.929,5.929,5.929,5.929,5.929,5.929,5.929,6.0001,6.2012,0.0,0.0,0.0,0.0,0.0,0.0,0.0,0.0,0.0,0.0,0.0,0.0,7.1291,7.1291,7.1291,7.1291,7.1291,7.1291,7.1291,7.1291,7.1291,7.1291,7.1291,7.1291,7.1291,7.1291,0.0,0.0,0.0,0.0,7.1291,7.1291,7.1291,7.1291,7.1291,7.1291,7.1291,7.1291,7.1291,0.0,0.0,0.0,0.0,0.0,0.0,3.5704,3.5704,3.5704,3.5704,3.5936,3.6284,3.6826,3.7135,3.7677,3.8528,3.8876,0.0,0.0,0.0,0.0,0.0,0.0,0.0,0.0,0.0,4.3818,4.367,4.4233,4.4233,4.3707,4.4233,4.4496,0.0,0.0,0.0,0.0,0.0,0.0,0.0,0.0,0.0,0.0,0.0,0.0,0.0,0.0,0.0,0.0,0.0,0.0,0.0,0.0,0.0,0.0,5.6512,5.7263,5.8126,5.8126,5.8689,5.929,5.929,5.929,5.929,5.929,0.0,5.929,5.929,5.929,5.929,5.929,5.929,5.929,5.929,5.9816,6.0605,0.0,0.0,0.0,0.0,0.0,0.0,0.0,0.0,0.0,0.0,0.0,0.0,0.0,7.1291,7.1291,7.1291,7.1291,7.1291,7.1291,7.1291,7.1291,7.1291,7.1291,7.1291,7.1291,7.1291,0.0,0.0,0.0,0.0,0.0,7.1291,7.1291,7.1291,7.1291,7.1291,7.1291,7.1291,7.1291,7.1291,0.0,0.0,0.0,0.0,0.0,0.0,3.5704,3.5704,3.5704,3.5704,3.5704,3.5897,3.64,3.6439,3.6787,3.7638,3.7444,0.0,0.0,0.0,0.0,0.0,0.0,0.0,4.2753,4.3399,4.3625,4.3415,4.3905,4.4056,4.3868,4.3987,4.425,4.4621,4.4524,0.0,0.0,0.0,0.0,0.0,0.0,0.0,4.7763,0.0,0.0,0.0,0.0,0.0,0.0,0.0,0.0,0.0,0.0,0.0,0.0,0.0,5.7676,5.8539,5.8539,5.8915,5.929,5.929,5.929,5.929,0.0,0.0,5.929,5.929,5.929,5.929,5.929,5.929,5.929,5.929,6.0041,6.0905,0.0,0.0,0.0,0.0,0.0,0.0,0.0,0.0,0.0,0.0,0.0,0.0,0.0,0.0,7.1291,7.1291,7.1291,7.1291,7.1291,7.1291,7.1291,7.1291,7.1291,7.1291,7.1291,7.1291,0.0,0.0,0.0,0.0,0.0,7.1291,7.1291,7.1291,7.1291,7.1291,7.1291,7.1291,7.1291,7.1291,0.0,0.0,0.0,0.0,0.0,0.0,0.0,3.5704,3.5704,3.5704,3.5704,3.5704,3.5704,3.5704,3.6013,3.6748,3.6129,0.0,0.0,0.0,0.0,0.0,0.0,0.0,4.1418,4.2947,4.3683,4.3526,4.3512,4.3929,4.4675,4.3755,4.383,4.4751,4.4595,4.4496,0.0,0.0,0.0,0.0,4.5322,4.6186,0.0,0.0,0.0,0.0,0.0,0.0,0.0,0.0,0.0,0.0,0.0,0.0,0.0,0.0,0.0,0.0,0.0,5.929,5.929,5.929,5.929,5.929,5.929,0.0,0.0,5.929,5.929,5.929,5.929,5.929,5.9328,5.9365,6.0116,0.0,0.0,0.0,0.0,0.0,0.0,0.0,0.0,0.0,0.0,0.0,0.0,0.0,0.0,0.0,7.1291,7.1291,7.1291,7.1291,7.1291,7.1291,7.1291,7.1291,7.1291,7.1291,7.1291,7.1291,0.0,0.0,0.0,0.0,0.0,7.1291,7.1291,7.1291,7.1291,7.1291,7.1291,7.1291,7.1291,7.1291,0.0,0.0,0.0,0.0,0.0,0.0,0.0,0.0,0.0,0.0,3.5704,3.5704,3.5704,3.5704,3.5781,0.0,0.0,0.0,0.0,0.0,0.0,0.0,0.0,0.0,4.1618,4.204,4.2336,4.2617,4.2602,4.2961,4.3664,4.3555,4.3907,4.4605,4.4662,4.4648,0.0,0.0,0.0,0.0,4.4721,4.566,0.0,0.0,0.0,0.0,4.949,5.0128,0.0,0.0,0.0,0.0,0.0,0.0,0.0,0.0,5.8051,5.929,5.929,0.0,5.929,5.929,5.929,5.929,0.0,5.929,0.0,0.0,0.0,5.929,5.929,5.929,5.9515,6.0191,6.098,0.0,0.0,0.0,0.0,0.0,0.0,0.0,0.0,0.0,0.0,0.0,0.0,0.0,0.0,0.0,7.1291,7.1291,7.1291,7.1291,7.1291,7.1291,7.1291,7.1291,7.1291,7.1291,7.1291,7.1291,0.0,0.0,0.0,0.0,7.1291,7.1291,7.1291,7.1291,7.1291,7.1291,7.1291,7.1291,7.1291,7.1291,0.0,0.0,0.0,0.0,0.0,0.0,0.0,0.0,0.0,0.0,3.5704,3.5704,3.5704,3.5704,3.5704,0.0,0.0,0.0,0.0,0.0,0.0,0.0,0.0,3.9651,4.1268,4.1654,4.2091,4.2639,4.2536,4.3102,4.4296,4.3847,4.4113,4.4943,4.4849,4.4688,4.4496,4.4496,4.4496,4.4496,4.4496,0.0,0.0,0.0,0.0,0.0,4.949,5.0016,0.0,5.163,5.2494,5.332,0.0,0.0,0.0,0.0,5.8051,5.929,5.929,5.929,5.929,5.929,5.929,5.929,5.929,0.0,0.0,0.0,0.0,5.929,5.929,5.929,0.0,0.0,6.1394,0.0,0.0,0.0,0.0,0.0,0.0,0.0,0.0,0.0,0.0,0.0,0.0,0.0,0.0,0.0,7.1291,7.1291,7.1291,7.1291,7.1291,7.1291,7.1291,7.1291,7.1291,7.1291,7.1291,7.1291,0.0,0.0,0.0,0.0,7.1291,7.1291,7.1291,7.1291,7.1291,7.1523,7.1893,7.1893,7.2164,7.2474,0.0,0.0,0.0,0.0,0.0,0.0,0.0,0.0,0.0,0.0,0.0,0.0,0.0,0.0,0.0,0.0,0.0,0.0,0.0,0.0,0.0,0.0,3.8218,3.903,4.0771,4.1467,4.2121,4.2799,4.2641,4.3484,4.5225,4.4183,4.4319,4.5455,4.5011,4.4688,4.4496,4.4496,4.4496,4.4496,4.4496,0.0,0.0,0.0,0.0,0.0,0.0,0.0,0.0,5.1593,5.2381,5.317,5.4108,0.0,0.0,0.0,0.0,0.0,5.929,5.929,5.929,5.929,5.929,5.929,5.929,0.0,0.0,0.0,0.0,0.0,0.0,0.0,0.0,0.0,0.0,0.0,0.0,0.0,0.0,0.0,0.0,0.0,0.0,0.0,0.0,0.0,0.0,0.0,0.0,0.0,0.0,7.1291,7.1291,7.1291,7.1291,7.1291,7.1291,7.1291,7.1291,7.1291,7.1291,7.1291,7.1291,0.0,0.0,0.0,7.1291,7.1291,7.1291,7.1291,7.1446,7.1971,7.2629,7.2745,7.3248,7.3889,0.0,0.0,0.0,0.0,0.0,0.0,0.0,0.0,0.0,0.0,0.0,0.0,0.0,0.0,0.0,0.0,0.0,0.0,0.0,0.0,0.0,3.8141,3.8218,3.903,4.0771,4.0926,4.1272,4.1899,4.186,4.2637,4.4133,4.4192,4.4575,4.5243,4.4919,4.4688,4.4496,4.4496,4.4496,4.4496,4.4496,0.0,0.0,0.0,0.0,0.0,0.0,0.0,0.0,5.1405,5.2006,5.2381,5.3921,0.0,0.0,0.0,0.0,0.0,5.929,5.929,5.929,5.929,5.929,5.929,5.929,0.0,0.0,0.0,0.0,0.0,0.0,0.0,0.0,0.0,0.0,0.0,0.0,0.0,0.0,0.0,0.0,0.0,0.0,0.0,0.0,0.0,0.0,0.0,0.0,0.0,0.0,7.1291,7.1291,7.1291,7.1291,7.1291,7.1291,7.1291,7.1291,7.1291,7.1291,7.1291,7.1291,0.0,0.0,7.1291,7.1291,7.1291,7.1291,7.1369,7.2126,7.2474,7.2706,7.3435,7.3783,7.3899,0.0,0.0,0.0,0.0,0.0,0.0,0.0,0.0,0.0,0.0,0.0,0.0,0.0,0.0,0.0,0.0,0.0,0.0,0.0,0.0,3.6903,3.8141,3.8644,3.9495,4.0771,4.081,4.1171,4.1861,4.2233,4.3047,4.4295,4.4855,4.5124,4.5201,4.5094,4.4814,4.4496,4.4496,4.4496,4.4533,0.0,0.0,0.0,0.0,0.0,0.0,0.0,0.0,0.0,0.0,5.1893,5.2193,5.3883,0.0,0.0,0.0,0.0,0.0,5.929,5.929,5.929,5.929,5.929,5.929,5.929,0.0,0.0,0.0,0.0,0.0,0.0,0.0,0.0,0.0,0.0,0.0,0.0,0.0,0.0,0.0,0.0,0.0,0.0,0.0,0.0,0.0,0.0,0.0,0.0,0.0,0.0,0.0,7.1291,7.1291,7.1291,7.1291,7.1291,7.1291,7.1291,7.1291,7.1291,7.1291,7.1291,7.1291,0.0,7.1291,7.1291,7.1291,7.1562,7.2048,7.2435,7.317,7.4077,7.4904,7.5252,7.5252,0.0,0.0,0.0,0.0,0.0,0.0,0.0,0.0,0.0,0.0,0.0,0.0,0.0,0.0,0.0,0.0,0.0,0.0,0.0,3.6555,3.7367,3.845,3.9146,3.9932,4.0771,4.081,4.1197,4.2009,4.2733,4.3698,4.491,4.549,4.5594,4.5201,4.5263,4.4981,4.4496,4.4551,4.4664,4.4834,0.0,0.0,0.0,0.0,0.0,0.0,0.0,0.0,0.0,0.0,0.0,0.0,0.0,0.0,0.0,5.6887,5.8051,5.929,5.929,5.929,5.929,5.929,5.929,5.929,5.929,0.0,0.0,0.0,0.0,0.0,0.0,0.0,0.0,0.0,0.0,0.0,0.0,0.0,0.0,0.0,0.0,0.0,0.0,0.0,0.0,0.0,0.0,0.0,0.0,0.0,0.0,0.0,7.1291,7.1291,7.1291,7.1291,7.1291,7.1291,7.1291,7.1291,7.1291,7.1291,7.1291,7.1291,7.1291,7.1291,7.133,7.1523,7.201,7.2629,7.3016,7.4077,7.5484,7.6165,7.6397,7.6397,0.0,0.0,0.0,0.0,0.0,0.0,0.0,0.0,0.0,0.0,0.0,0.0,0.0,0.0,0.0,0.0,0.0,0.0,0.0,3.6864,3.7638,3.934,3.9468,3.9932,4.0771,4.081,4.1197,4.2009,4.2847,4.4123,4.5722,4.5761,4.5594,4.5222,4.5419,4.5099,4.4496,4.4688,4.5115,4.5622,4.566,0.0,0.0,0.0,0.0,0.0,0.0,0.0,0.0,0.0,0.0,0.0,0.0,0.0,5.6887,5.6887,5.8051,5.929,5.929,5.929,5.929,5.929,5.929,0.0,5.929,5.929,0.0,0.0,0.0,0.0,0.0,0.0,0.0,0.0,0.0,0.0,0.0,0.0,0.0,0.0,0.0,0.0,0.0,0.0,0.0,0.0,0.0,0.0,0.0,0.0,0.0,0.0,0.0,7.1291,7.1291,7.1291,7.1291,7.1291,7.1291,7.1291,7.1291,7.1291,7.1291,7.1291,7.1291,7.1291,7.1369,7.2164,7.2551,7.2745,7.4309,7.5508,7.632,7.6359,7.6397,7.6397,0.0,0.0,0.0,0.0,0.0,0.0,0.0,0.0,0.0,0.0,0.0,0.0,0.0,0.0,0.0,0.0,0.0,0.0,0.0,3.7406,3.8257,3.9468,3.9997,4.0462,4.0771,4.081,4.1197,4.2009,4.344,4.4678,4.58,4.5658,4.5543,4.5361,4.5342,4.5382,4.5481,4.5584,4.5972,4.6561,4.7049,4.7612,0.0,0.0,0.0,0.0,0.0,0.0,0.0,0.0,5.2043,5.3245,5.3545,5.516,5.6887,5.6887,5.8051,5.929,5.929,5.929,5.929,5.929,0.0,0.0,0.0,0.0,0.0,0.0,0.0,0.0,0.0,0.0,0.0,0.0,0.0,0.0,0.0,0.0,0.0,0.0,0.0,0.0,0.0,0.0,0.0,0.0,0.0,0.0,0.0,0.0,0.0,0.0,0.0,7.1291,7.1291,7.1291,7.1291,7.1291,7.1291,7.1291,7.1291,7.1291,7.1291,7.1291,7.1291,7.1291,7.1369,7.2242,7.2916,7.3551,7.5276,7.6127,7.6397,7.6397,7.6397,7.6397,0.0,0.0,0.0,0.0,0.0,0.0,0.0,0.0,0.0,0.0,0.0,0.0,0.0,0.0,0.0,0.0,0.0,0.0,3.7251,3.8141,3.8992,3.9894,4.0462,4.0926,4.1158,4.1158,4.1583,4.2396,4.4136,4.5258,4.58,4.5658,4.5731,4.5893,4.5784,4.6015,4.6506,4.6506,4.6814,4.7425,4.7988,4.8363,0.0,0.0,0.0,0.0,0.0,0.0,0.0,0.0,5.2419,5.362,5.3883,5.531,5.6962,5.7187,5.8239,5.929,5.929,5.929,5.929,0.0,0.0,0.0,0.0,0.0,0.0,0.0,0.0,0.0,0.0,0.0,0.0,0.0,0.0,0.0,0.0,0.0,0.0,0.0,0.0,0.0,0.0,0.0,0.0,0.0,0.0,0.0,0.0,0.0,0.0,0.0,0.0,7.1291,7.1291,7.1291,7.1291,7.1291,7.1291,7.1291,7.1291,7.1291,7.1291,7.1291,7.1291,7.1291,7.1369,7.2551,7.3651,7.4788,7.5972,7.6397,7.6397,7.6397,7.6397,7.6397,0.0,0.0,0.0,0.0,0.0,0.0,0.0,0.0,3.5704,3.5704,3.5704,0.0,0.0,0.0,0.0,0.0,0.0,0.0,3.8141,3.903,3.9894,4.0771,4.081,4.1158,4.197,4.2009,4.2434,4.3324,4.4987,4.58,4.58,4.58,4.6152,4.6796,4.6799,4.7023,4.7403,4.734,4.7645,4.8213,4.8213,4.8739,4.949,0.0,0.0,0.0,0.0,0.0,0.0,0.0,5.3733,5.4559,5.5348,5.6211,5.7075,5.7863,5.8689,5.929,5.929,5.929,5.929,0.0,0.0,0.0,0.0,0.0,0.0,0.0,0.0,0.0,0.0,0.0,0.0,0.0,0.0,0.0,0.0,0.0,0.0,0.0,0.0,0.0,0.0,0.0,0.0,0.0,0.0,0.0,0.0,0.0,0.0,0.0,0.0,0.0,7.1291,7.1291,7.1291,7.1291,7.1291,7.1291,7.1291,7.1291,7.1291,7.1291,7.1291,7.1291,7.1446,7.3192,7.4873,7.6397,7.6397,7.6397,7.6397,7.6397,7.6397,7.6397,0.0,0.0,0.0,0.0,0.0,0.0,0.0,0.0,3.5704,3.5704,3.5704,0.0,0.0,0.0,0.0,0.0,0.0,0.0,3.903,3.934,3.9894,4.0771,4.081,4.1158,4.197,4.3208,4.3982,4.4214,4.5297,4.58,4.58,4.6275,4.6667,4.704,4.73,4.7821,4.8424,4.8289,4.8551,4.9114,4.9114,4.9265,4.949,0.0,0.0,0.0,0.0,0.0,0.0,0.0,0.0,0.0,5.4672,5.5723,5.7075,5.7863,5.8689,5.929,5.929,5.929,0.0,0.0,0.0,0.0,0.0,0.0,0.0,0.0,0.0,0.0,0.0,0.0,0.0,0.0,0.0,0.0,0.0,0.0,0.0,0.0,0.0,0.0,0.0,0.0,0.0,0.0,0.0,0.0,0.0,0.0,0.0,0.0,0.0,0.0,7.1291,7.1291,7.1291,7.1291,7.1291,7.1291,7.1291,7.1291,7.1291,7.1291,7.1291,7.1291,7.1446,7.3187,7.4889,7.6397,7.6397,7.6397,7.6397,7.6397,7.6397,7.6397,0.0,0.0,0.0,0.0,0.0,0.0,0.0,0.0,3.5704,3.5704,3.5704,3.5704,0.0,0.0,0.0,0.0,0.0,0.0,0.0,3.9816,4.023,4.0771,4.1119,4.1816,4.3015,4.4369,4.5065,4.5065,4.5568,4.5993,4.6341,4.6715,4.7301,4.7973,4.8241,4.8684,4.9276,4.9136,4.9259,4.949,4.949,4.949,4.949,0.0,0.0,0.0,0.0,0.0,0.0,0.0,0.0,0.0,5.5272,5.6324,5.7525,5.8351,5.8915,5.929,5.929,5.94,0.0,0.0,0.0,0.0,0.0,0.0,0.0,0.0,0.0,0.0,0.0,0.0,0.0,0.0,0.0,0.0,0.0,0.0,0.0,0.0,0.0,0.0,0.0,0.0,0.0,0.0,0.0,0.0,0.0,0.0,0.0,0.0,0.0,0.0,7.1291,7.1291,7.1291,7.1291,7.1291,7.1291,7.1291,7.1291,7.1291,7.1291,7.1291,7.1678,7.2397,7.3474,7.4904,7.6397,7.6397,7.6397,7.6397,7.6397,7.6397,7.6397,0.0,0.0,3.5704,3.5704,0.0,0.0,0.0,0.0,3.5704,3.5704,3.5742,3.582,0.0,0.0,0.0,0.0,0.0,0.0,3.9623,4.0346,4.081,4.0887,4.1777,4.2976,4.4562,4.5374,4.5838,4.5916,4.5916,4.6303,4.7115,4.7255,4.8028,4.9336,4.9375,4.957,4.9857,4.983,4.9674,4.949,4.949,4.949,4.9527,4.9565,0.0,0.0,0.0,0.0,0.0,0.0,0.0,0.0,5.6699,5.7525,5.8276,5.9065,5.929,5.929,5.929,0.0,0.0,0.0,0.0,0.0,0.0,0.0,0.0,0.0,0.0,0.0,0.0,0.0,0.0,0.0,0.0,0.0,0.0,0.0,0.0,0.0,0.0,0.0,0.0,0.0,0.0,0.0,0.0,0.0,0.0,0.0,0.0,0.0,0.0,0.0,7.1291,7.1291,7.1291,0.0,7.1291,7.1291,7.1291,7.1291,7.1291,7.1291,7.1291,7.228,7.3889,7.3899,7.4904,7.6397,7.6397,7.6397,7.6397,7.6397,7.6397,7.6397,0.0,0.0,3.5704,3.5704,0.0,0.0,0.0,0.0,0.0,0.0,0.0,0.0,0.0,0.0,0.0,0.0,0.0,0.0,4.0462,4.0694,4.1081,4.1699,4.3208,4.4214,4.4601,4.5374,4.6148,4.6806,4.6806,4.6922,4.7115,4.8287,4.9136,4.9644,4.991,5.0077,5.0111,4.991,4.9674,4.949,4.949,4.949,4.9565,5.0203,5.0917,0.0,0.0,0.0,0.0,0.0,0.0,0.0,5.7375,5.7976,5.8276,5.9065,5.929,5.929,5.929,5.9364,0.0,0.0,0.0,0.0,0.0,0.0,0.0,0.0,0.0,0.0,0.0,0.0,0.0,0.0,0.0,0.0,0.0,0.0,0.0,0.0,0.0,0.0,0.0,0.0,0.0,0.0,0.0,0.0,0.0,0.0,0.0,0.0,0.0,7.0982,7.1291,7.1291,7.1291,0.0,7.1291,7.1291,7.1291,7.1291,7.1291,7.1291,7.1291,7.228,7.3889,7.3899,7.4904,7.6397,7.6397,7.6397,7.6397,7.6397,7.6397,7.6397,0.0,0.0,0.0,0.0,0.0,0.0,0.0,0.0,0.0,0.0,0.0,0.0,0.0,0.0,0.0,0.0,3.9894,4.0462,4.1313,4.1351,4.1932,4.3208,4.4136,4.4794,4.5181,4.5993,4.6651,4.7115,4.7927,4.8353,4.8353,4.9109,4.9732,5.0156,5.0335,5.0252,5.0012,4.9857,4.9674,4.9527,4.9903,5.0053,5.0166,5.0954,5.178,5.2569,5.3019,0.0,0.0,0.0,0.0,0.0,0.0,0.0,5.8764,5.9178,5.929,5.929,5.929,0.0,0.0,0.0,0.0,0.0,0.0,0.0,0.0,0.0,0.0,0.0,0.0,0.0,0.0,0.0,0.0,0.0,0.0,0.0,0.0,0.0,0.0,0.0,0.0,0.0,0.0,0.0,0.0,0.0,0.0,0.0,0.0,0.0,7.0469,7.0789,7.1291,7.1291,7.1291,7.1291,7.1291,7.1291,7.1291,7.1291,7.1291,7.1291,7.1291,7.228,7.3889,7.3899,7.4904,7.6397,7.6397,7.6397,7.6397,7.6397,7.6397,7.6397,0.0,0.0,0.0,0.0,0.0,0.0,0.0,0.0,0.0,0.0,0.0,0.0,0.0,0.0,0.0,0.0,0.0,0.0,4.2164,4.2357,4.3092,4.4562,4.4717,4.5181,4.5993,4.6728,4.7231,4.754,4.8972,4.9784,4.99,4.9869,5.0135,5.0644,5.0567,5.0275,4.9884,4.9982,4.993,4.9845,5.061,5.0911,5.1049,5.185,5.2569,5.3207,5.3357,5.4334,5.5648,5.5798,0.0,0.0,0.0,0.0,5.929,5.929,5.929,5.929,5.929,0.0,0.0,0.0,0.0,0.0,0.0,0.0,0.0,0.0,0.0,0.0,0.0,0.0,0.0,0.0,0.0,0.0,0.0,0.0,0.0,0.0,0.0,0.0,0.0,0.0,0.0,0.0,0.0,0.0,0.0,0.0,6.9541,7.0304,7.0277,7.0634,7.1291,7.1291,7.1291,7.1291,7.1291,7.1291,7.1291,7.1291,7.1291,7.1291,7.1291,7.228,7.3889,7.3899,7.4904,7.6397,7.6397,7.6397,7.6397,7.6397,7.6397,7.6397,0.0,0.0,0.0,0.0,0.0,0.0,0.0,0.0,0.0,0.0,3.8798,3.934,0.0,0.0,4.0887,4.1622,4.1777,4.2202,4.3053,0.0,0.0,4.4601,4.5258,4.6032,4.6922,4.7038,4.785,4.9359,4.9591,5.0055,5.0735,5.0545,5.0622,5.0858,5.0427,5.0206,5.0174,5.0707,5.0913,5.0922,5.1532,5.1895,5.2143,5.2811,5.3095,5.3282,5.3996,5.4822,5.5723,5.6474,5.7338,0.0,0.0,0.0,0.0,5.929,5.929,5.929,0.0,0.0,0.0,0.0,0.0,0.0,0.0,0.0,0.0,0.0,0.0,0.0,0.0,0.0,0.0,0.0,0.0,0.0,0.0,0.0,0.0,0.0,0.0,0.0,0.0,0.0,0.0,0.0,0.0,0.0,0.0,6.9203,6.9541,7.0304,7.0277,7.0634,7.1291,7.1291,7.1291,7.1291,7.1291,7.1291,7.1291,7.1291,7.1291,7.1291,7.1291,7.228,7.3889,7.3899,7.4904,7.6397,7.6397,7.6397,7.6397,7.6397,7.6397,7.6397,0.0,0.0,0.0,0.0,0.0,0.0,0.0,0.0,0.0,0.0,0.0,4.0384,0.0,4.1235,4.1816,4.2667,4.2744,4.3092,4.3982,4.4794,4.5258,4.5258,4.6071,4.6689,4.7076,4.8043,4.8933,4.9707,5.0171,5.0558,0.0,5.0825,5.0773,5.0756,5.0988,5.0941,5.076,5.1489,5.1689,5.1624,5.2333,5.2704,5.2868,5.3612,5.4146,5.4597,5.4972,5.5911,5.7075,5.745,5.8126,5.884,5.9178,0.0,0.0,0.0,5.929,0.0,5.929,0.0,0.0,0.0,0.0,0.0,0.0,0.0,0.0,0.0,0.0,0.0,0.0,0.0,0.0,0.0,0.0,0.0,0.0,0.0,0.0,0.0,0.0,0.0,0.0,0.0,0.0,0.0,0.0,0.0,6.9241,6.9391,6.9654,6.9998,7.0354,7.0711,7.1021,7.1214,7.1291,7.1291,7.1291,7.1291,7.1291,7.1291,7.1291,7.1291,7.1291,7.228,7.3889,7.3899,7.4904,7.6397,7.6397,7.6397,7.6397,7.6397,7.6397,7.6397,0.0,0.0,0.0,0.0,0.0,0.0,0.0,0.0,0.0,0.0,0.0,0.0,0.0,0.0,0.0,0.0,4.3634,4.3982,4.4833,4.5684,4.6109,4.6109,4.696,4.754,4.7773,4.9049,4.9784,5.0016,5.0596,5.0906,5.0906,5.0906,5.0885,0.0,5.1449,5.166,5.1649,5.2267,5.25,5.2522,5.3198,5.3536,5.3677,5.4405,5.5085,5.5648,5.5873,5.6887,5.8126,0.0,0.0,0.0,0.0,0.0,0.0,0.0,0.0,0.0,0.0,0.0,0.0,0.0,0.0,0.0,0.0,0.0,0.0,0.0,0.0,0.0,0.0,0.0,0.0,0.0,0.0,0.0,0.0,0.0,0.0,0.0,0.0,0.0,0.0,0.0,0.0,0.0,0.0,0.0,6.9504,6.9772,6.9985,7.0043,7.054,7.0838,7.0943,7.1175,7.1291,7.1291,7.1291,7.1291,7.1291,7.1291,7.1291,7.1291,7.1291,7.228,7.3889,7.3899,7.4904,7.6397,7.6397,7.6397,7.6397,7.6397,7.6397,7.6397,0.0,0.0,0.0,0.0,0.0,0.0,0.0,0.0,0.0,0.0,0.0,0.0,4.3131,4.3247,4.3595,4.4446,4.4523,4.4871,4.5684,4.6535,4.7038,4.7038,4.785,0.0,4.9552,4.9668,5.0055,5.0828,5.0867,0.0,5.0906,5.0906,5.1194,5.1741,5.1507,5.2027,5.2986,0.0,0.0,5.3913,5.422,5.4495,5.4784,5.53,5.5573,5.5723,5.6549,0.0,0.0,0.0,0.0,0.0,0.0,0.0,0.0,0.0,0.0,0.0,0.0,0.0,0.0,0.0,0.0,0.0,0.0,0.0,0.0,0.0,0.0,0.0,0.0,0.0,0.0,0.0,0.0,0.0,0.0,0.0,0.0,0.0,0.0,0.0,0.0,0.0,0.0,0.0,0.0,0.0,7.0223,7.0223,7.0422,7.0753,7.0756,7.0946,7.1291,7.1291,7.1291,7.1291,7.1291,7.1291,7.1291,7.1291,7.1291,7.1291,7.1291,7.228,7.3889,7.3899,7.4904,7.6397,7.6397,7.6397,7.6397,7.6397,7.6397,7.6397,0.0,0.0,0.0,0.0,0.0,0.0,0.0,0.0,0.0,0.0,0.0,0.0,0.0,4.4136,4.4485,4.5297,4.5877,4.6573,4.7424,4.7773,4.7927,4.7927,4.8778,4.9397,4.9707,5.021,5.0596,5.0906,5.0906,5.0906,5.0906,5.1486,5.215,5.2893,5.2781,5.2982,5.3467,5.4172,0.0,5.5294,5.4646,5.5206,5.633,5.5823,0.0,0.0,0.0,0.0,0.0,0.0,0.0,0.0,0.0,0.0,0.0,0.0,0.0,0.0,0.0,0.0,0.0,0.0,0.0,0.0,0.0,0.0,0.0,0.0,0.0,0.0,0.0,0.0,0.0,0.0,0.0,0.0,0.0,0.0,0.0,0.0,0.0,0.0,0.0,0.0,0.0,0.0,0.0,0.0,7.0316,7.0507,7.0591,7.0496,7.0887,7.1195,7.1291,7.1291,7.1291,7.1291,7.1291,7.1291,7.1291,7.1291,7.1291,7.133,7.1893,7.2783,7.3889,7.3899,7.4904,7.6397,7.6397,7.6397,7.6397,7.6397,7.6397,7.6397,0.0,0.0,0.0,0.0,0.0,4.2434,4.2434,4.2937,4.3401,4.3711,0.0,0.0,0.0,0.0,4.5761,4.6612,4.7192,4.7773,4.8353,4.8662,4.8856,4.8856,4.9668,5.0094,5.0094,5.0635,5.0906,5.0906,5.1112,5.1266,5.137,5.2116,5.3022,5.3962,5.4233,5.4321,0.0,0.0,0.0,5.6019,5.548,5.6007,5.7116,0.0,0.0,0.0,0.0,0.0,0.0,0.0,0.0,0.0,0.0,0.0,0.0,0.0,0.0,0.0,6.2707,0.0,0.0,0.0,0.0,0.0,0.0,0.0,0.0,0.0,0.0,0.0,0.0,0.0,0.0,0.0,0.0,0.0,0.0,0.0,0.0,0.0,0.0,0.0,0.0,0.0,0.0,0.0,0.0,0.0,7.0672,7.0866,7.0866,7.0634,7.1059,7.1291,7.1291,7.1291,7.1291,7.1291,7.1291,7.1291,7.1291,7.1291,7.1446,7.1777,7.2358,7.3115,7.3928,7.417,7.5136,7.6397,7.6397,7.6397,7.6397,7.6397,7.6397,7.6397,0.0,0.0,4.2267,4.3117,4.3311,4.3311,4.3311,4.3363,4.3711,4.4562,0.0,0.0,0.0,0.0,0.0,4.8353,4.843,4.8469,4.8469,4.9281,4.9745,4.9745,5.048,5.0906,5.0906,5.089,5.089,5.0945,5.151,5.1953,5.226,5.2839,5.3745,5.4851,5.5647,5.5904,5.5682,0.0,5.6057,5.614,0.0,5.696,5.7073,0.0,0.0,0.0,5.9027,5.929,0.0,0.0,0.0,0.0,0.0,0.0,0.0,0.0,0.0,0.0,0.0,0.0,0.0,0.0,0.0,0.0,0.0,0.0,0.0,0.0,0.0,0.0,0.0,0.0,0.0,0.0,0.0,0.0,0.0,0.0,0.0,0.0,0.0,0.0,0.0,0.0,0.0,0.0,0.0,7.1291,7.1291,7.1291,7.1291,7.1291,7.1291,7.1291,7.1291,7.1291,7.1291,7.1291,7.1291,7.1291,7.133,7.133,7.1816,7.2629,7.2667,7.3154,7.4005,7.4773,7.5624,7.6397,7.6397,7.6397,7.6397,7.6397,7.6397,7.6397,0.0,4.2411,4.2524,4.2754,4.3453,4.3959,4.3959,4.4607,4.5413,0.0,0.0,0.0,4.7579,4.7889,4.8392,4.9243,4.9359,4.9591,5.0171,5.0442,5.0558,5.0558,5.079,5.0906,5.0906,5.0773,5.1043,5.1834,5.1799,5.228,5.3149,5.395,5.48,5.5685,5.6348,5.6939,5.7473,5.7565,0.0,0.0,5.7365,5.8022,0.0,0.0,0.0,0.0,0.0,5.929,0.0,0.0,5.929,5.9403,0.0,0.0,0.0,0.0,0.0,0.0,6.4247,0.0,0.0,0.0,0.0,0.0,0.0,6.5493,0.0,0.0,0.0,0.0,0.0,0.0,0.0,0.0,0.0,0.0,0.0,0.0,0.0,0.0,0.0,0.0,0.0,0.0,0.0,0.0,7.1291,7.1291,7.1291,7.1291,7.1291,7.1291,7.1291,7.1291,7.1291,7.1291,7.1291,7.1291,7.1291,7.164,7.2242,7.2242,7.2706,7.3579,7.4154,7.4541,7.4773,7.502,7.5624,7.6397,7.6397,7.6397,7.6397,7.6397,7.6397,7.6397,4.2889,4.3097,4.335,4.3752,4.4393,4.5009,4.5356,4.5835,4.6507,0.0,0.0,0.0,4.8841,4.8933,4.9281,5.0132,5.0107,5.025,5.0752,5.0681,5.0663,5.0752,5.0752,5.0979,5.1447,5.131,5.1734,5.2724,5.2702,5.3146,5.4078,5.4898,5.5703,5.6406,5.7478,5.8064,5.8386,0.0,0.0,0.0,5.8245,0.0,0.0,5.8907,5.9022,0.0,0.0,0.0,5.9327,5.9434,5.9662,0.0,0.0,0.0,0.0,0.0,0.0,0.0,0.0,0.0,0.0,0.0,0.0,0.0,6.5692,6.568,0.0,0.0,0.0,0.0,0.0,0.0,0.0,0.0,0.0,0.0,0.0,0.0,0.0,0.0,0.0,0.0,0.0,0.0,0.0,0.0,7.1291,7.1291,7.1291,7.1291,7.1291,7.1291,7.1291,7.1291,7.1291,7.1291,7.1291,7.1291,7.1291,7.1777,7.259,7.2607,7.3264,7.4447,7.4889,7.5291,7.5662,7.5662,7.5933,7.6397,7.6397,7.6397,7.6397,7.6397,7.6397,7.6397,0.0,4.3967,4.4557,4.5361,4.577,4.6229,4.7001,4.6947,4.7108,0.0,4.8183,4.8643,4.9628,4.9776,5.0101,5.0764,5.0681,5.0587,5.0547,5.0435,5.0451,5.0701,5.0778,5.1299,5.2232,5.2215,5.2657,5.358,5.382,5.4303,5.5032,5.5747,5.6442,5.7213,5.8649,5.9087,5.8774,0.0,0.0,5.8818,5.9206,5.94,0.0,0.0,5.94,0.0,5.9711,5.9609,5.94,5.9757,6.0332,0.0,0.0,0.0,0.0,0.0,6.4284,0.0,0.0,0.0,0.0,0.0,0.0,0.0,6.6019,6.5913,6.5779,0.0,0.0,0.0,0.0,0.0,0.0,0.0,0.0,0.0,0.0,0.0,0.0,0.0,0.0,0.0,0.0,0.0,7.1291,7.1291,7.1291,7.1291,7.1291,7.1291,7.1291,7.1291,7.1291,7.1291,7.1291,7.1291,7.1291,7.1291,7.1407,7.1893,7.2745,7.2832,7.376,7.5252,7.5252,7.5701,7.6397,7.6397,7.6397,7.6397,7.6397,7.6397,7.6397,7.6397,7.6397,7.6397,4.4288,4.4896,4.5429,4.5644,4.6404,4.7044,4.7234,4.7411,4.7805,4.8608,4.9335,4.9854,5.0074,5.0317,5.0394,5.0363,5.0507,5.0507,5.0275,5.0841,5.12,5.1247,5.1935,5.2379,5.2617,5.2387,5.293,5.4226,5.4058,5.4824,5.6477,5.6652,5.7391,5.859,5.8644,5.9109,5.9874,0.0,0.0,5.9874,5.9728,0.0,6.0015,5.9772,6.0023,6.0391,5.9931,5.9777,5.9791,0.0,6.1432,6.267,0.0,0.0,0.0,0.0,0.0,0.0,0.0,0.0,0.0,0.0,0.0,0.0,6.5842,6.573,6.573,0.0,0.0,0.0,0.0,0.0,0.0,0.0,0.0,0.0,0.0,0.0,0.0,0.0,0.0,0.0,0.0,0.0,7.1291,7.1291,7.1291,7.1291,7.1291,7.1291,7.1291,7.1291,7.1291,7.1291,7.1291,7.1291,7.1291,7.1291,7.201,7.2783,7.3657,7.4309,7.5175,7.6165,7.6165,7.6243,7.6397,7.6397,7.6397,7.6397,7.6397,7.6397,7.6397,7.6397,7.6397,7.6397,4.5529,4.594,4.6318,4.6384,4.6932,4.7492,4.7998,4.8011,4.8289,4.9176,4.967,0.0,0.0,0.0,0.0,5.0955,5.1247,5.1467,5.1467,5.1597,5.1716,5.1851,5.227,5.2741,5.329,5.3187,5.3875,5.5423,5.5134,5.5782,5.7301,5.7434,5.8025,5.9005,5.9102,5.9488,5.9954,0.0,5.9643,5.9734,5.9772,0.0,6.0189,6.0044,6.0074,6.0265,6.0578,6.0811,6.1145,6.1657,6.2407,0.0,0.0,6.3984,6.4284,0.0,6.4284,6.4284,0.0,0.0,0.0,6.5207,0.0,0.0,0.0,6.5936,6.5936,0.0,0.0,0.0,0.0,0.0,0.0,0.0,0.0,0.0,0.0,0.0,0.0,0.0,0.0,0.0,0.0,7.1291,7.1291,7.1291,7.1291,7.1291,7.1291,7.1291,7.1291,7.1291,7.1291,7.1291,7.1291,7.1291,7.1291,7.1291,7.2164,7.3054,7.3922,7.4711,7.5585,7.6397,7.6397,7.6397,7.6397,7.6397,7.6397,7.6397,7.6397,7.6397,7.6397,7.6397,7.6397,7.6397,4.6643,4.6899,4.7154,4.7249,4.7521,4.801,4.877,4.8644,4.8738,4.9504,4.9617,0.0,0.0,0.0,0.0,0.0,5.2079,5.2361,0.0,0.0,5.2215,5.2424,5.2605,5.3148,5.4172,5.4172,5.496,5.6605,5.6337,5.6755,5.7863,5.806,5.8509,0.0,0.0,0.0,0.0,0.0,0.0,5.9543,0.0,6.0311,6.0361,6.0552,6.051,6.0469,6.134,6.1983,6.2516,6.2974,0.0,6.3458,6.4096,6.4284,0.0,0.0,0.0,0.0,0.0,0.0,0.0,0.0,0.0,6.5531,0.0,0.0,0.0,0.0,0.0,0.0,0.0,0.0,0.0,0.0,0.0,0.0,0.0,0.0,0.0,0.0,0.0,0.0,0.0,7.1253,7.1214,7.1291,7.1253,7.1214,7.1291,7.1291,7.1291,7.1291,7.1291,7.1291,7.1291,7.1291,7.1369,7.1562,7.2435,7.3303,7.4146,7.4982,7.574,7.6397,7.6397,7.6397,7.6397,7.6397,7.6397,7.6397,7.6397,7.6397,7.6397,7.6397,7.6397,7.6397,4.693,4.733,4.7884,4.7884,4.8509,4.9027,4.9139,4.9108,4.915,0.0,0.0,0.0,0.0,0.0,0.0,0.0,0.0,0.0,5.1983,0.0,5.3019,5.2915,5.3665,5.438,5.5132,5.5132,5.572,5.6965,5.696,5.7446,5.8311,5.8386,5.874,0.0,5.9326,0.0,0.0,0.0,6.0358,0.0,6.15,6.1553,0.0,6.1776,6.2167,6.2353,6.2254,6.2518,6.3009,0.0,6.3571,6.4172,0.0,6.4284,0.0,0.0,0.0,0.0,0.0,0.0,0.0,0.0,6.5465,0.0,0.0,0.0,0.0,0.0,0.0,0.0,0.0,0.0,0.0,0.0,0.0,0.0,0.0,0.0,0.0,0.0,0.0,0.0,0.0,0.0,7.0982,7.1291,7.1021,7.0982,7.1291,7.1291,7.1291,7.1291,7.1291,7.1291,7.1291,7.1291,7.1678,7.2474,7.3347,7.4176,7.4982,7.5856,7.632,7.6397,7.6397,7.6397,7.6397,7.6397,7.6397,7.6397,7.6397,7.6397,7.6397,7.6397,7.6397,7.6397,4.81,4.8248,4.8509,4.8509,4.8807,4.9064,4.9131,4.9542,4.9806,0.0,0.0,0.0,0.0,0.0,0.0,0.0,0.0,5.3381,0.0,0.0,0.0,5.435,5.5172,5.5772,5.6033,5.6033,5.6519,5.7453,5.7489,5.7938,5.8727,5.8764,5.9287,0.0,5.9658,0.0,6.0492,0.0,0.0,0.0,0.0,0.0,0.0,6.2444,6.2807,6.3128,6.2858,6.3238,6.3796,0.0,6.4021,0.0,0.0,0.0,0.0,0.0,0.0,0.0,0.0,0.0,0.0,0.0,0.0,0.0,0.0,0.0,6.634,0.0,0.0,0.0,0.0,0.0,0.0,0.0,0.0,0.0,0.0,0.0,0.0,0.0,0.0,0.0,0.0,0.0,0.0,0.0,0.0,7.1137,7.1291,7.1291,7.1291,7.1291,7.1291,7.1291,7.1291,7.1291,7.1739,7.259,7.3458,7.4347,7.5136,7.6011,7.6397,7.6397,7.6397,7.6397,7.6397,7.6397,7.6397,7.6397,7.6397,7.6397,7.6397,7.6397,7.6397,7.6397,4.889,4.889,4.889,4.889,4.889,4.9036,4.9331,5.0073,5.0596,0.0,0.0,0.0,5.1713,5.2453,0.0,0.0,0.0,5.4497,0.0,0.0,5.566,0.0,0.0,0.0,0.0,5.6853,5.7264,5.8047,5.8084,5.8422,5.8982,5.9209,5.9815,6.0602,0.0,6.0623,6.1424,0.0,0.0,6.1448,6.2862,6.3421,6.3424,6.3183,6.3369,6.3689,6.3501,6.3796,6.4284,6.4284,6.4284,0.0,6.4284,0.0,0.0,0.0,0.0,0.0,6.4405,0.0,0.0,0.0,0.0,0.0,0.0,0.0,0.0,0.0,0.0,0.0,0.0,0.0,0.0,0.0,0.0,0.0,0.0,0.0,0.0,0.0,0.0,0.0,0.0,0.0,0.0,0.0,7.1217,7.1214,7.1291,7.1291,7.1291,7.1291,7.1291,7.1291,7.1291,7.1291,7.1855,7.296,7.359,7.4479,7.5484,7.6127,7.6397,7.6397,7.6397,7.6397,7.6397,7.6397,7.6397,7.6397,7.6397,7.6397,7.6397,7.6397,7.6397,7.6397,4.889,4.889,0.0,0.0,4.889,4.915,4.9968,5.0822,0.0,0.0,0.0,0.0,0.0,0.0,0.0,0.0,0.0,5.5249,5.5286,0.0,5.6518,0.0,0.0,0.0,0.0,0.0,5.7881,5.8661,5.8821,5.8899,5.8937,5.9766,6.026,6.0413,6.12,6.1616,6.1844,6.2709,6.2711,6.2391,6.3727,6.4247,6.4247,0.0,6.4249,6.4287,6.4247,0.0,0.0,6.4284,6.4284,0.0,0.0,0.0,0.0,0.0,0.0,0.0,0.0,0.0,0.0,6.5207,0.0,0.0,0.0,0.0,6.7462,0.0,0.0,0.0,0.0,0.0,7.0982,7.017,0.0,0.0,0.0,0.0,0.0,0.0,0.0,0.0,0.0,0.0,0.0,7.1286,7.0999,7.0982,7.1291,7.1291,7.1291,7.1291,7.1291,7.1291,7.1291,7.1291,7.2164,7.385,7.3899,7.475,7.6359,7.6397,7.6397,7.6397,7.6397,7.6397,7.6397,7.6397,7.6397,7.6397,7.6397,7.6397,7.6397,7.6397,7.6397,7.6397,5.0562,0.0,0.0,0.0,0.0,0.0,0.0,5.1676,0.0,0.0,0.0,0.0,0.0,0.0,5.4652,0.0,0.0,5.5992,5.5992,5.6774,0.0,0.0,0.0,5.807,0.0,0.0,0.0,0.0,0.0,5.9557,5.9557,6.0455,6.1209,6.1857,0.0,6.2184,0.0,0.0,0.0,0.0,0.0,6.4284,6.4284,0.0,0.0,6.4284,6.4284,6.4284,0.0,6.4284,6.4284,6.4284,6.4284,6.4284,6.4324,6.4405,6.4633,0.0,0.0,0.0,6.5379,6.5329,0.0,0.0,0.0,0.0,0.0,0.0,0.0,0.0,0.0,0.0,7.1214,7.0905,7.1098,7.1214,0.0,0.0,0.0,0.0,0.0,0.0,0.0,0.0,0.0,7.1291,7.1175,7.1175,0.0,7.1291,7.1291,7.1291,7.1291,7.1291,7.1291,7.1291,7.2164,7.3889,7.3899,7.4788,7.6397,7.6397,7.6397,7.6397,7.6397,7.6397,7.6397,7.6397,7.6397,7.6397,7.6397,7.6397,7.6397,7.6397,7.6397,7.6397,5.1416,5.1639,0.0,0.0,0.0,0.0,0.0,0.0,0.0,0.0,5.3905,0.0,5.5391,0.0,5.5689,0.0,5.658,5.6729,5.6729,5.7472,0.0,5.7918,5.8438,0.0,0.0,0.0,0.0,0.0,0.0,6.037,6.0407,6.1224,6.198,6.2636,0.0,6.3012,6.3653,0.0,6.3802,0.0,0.0,6.4284,0.0,0.0,6.4284,6.4284,0.0,6.4284,6.4284,6.4284,6.4284,6.4284,6.4284,6.4284,6.4324,6.4444,6.4705,6.4947,6.4947,6.5321,0.0,6.5848,6.6035,0.0,6.7408,0.0,0.0,0.0,0.0,0.0,0.0,0.0,7.1291,7.1291,7.1291,7.1291,0.0,7.1291,0.0,0.0,0.0,0.0,0.0,0.0,7.1291,7.1291,7.1291,7.1291,0.0,0.0,7.1291,7.1291,7.1291,7.1291,7.1291,7.1601,7.2474,7.3889,7.4193,7.5059,7.6397,7.6397,7.6397,7.6397,7.6397,7.6397,7.6397,7.6397,7.6397,7.6397,7.6397,7.6397,7.6397,7.6397,7.6397,7.6397,5.1565,5.2234,0.0,0.0,5.2234,0.0,0.0,0.0,5.4203,0.0,5.5057,5.5391,5.6246,5.6357,5.6395,5.6432,5.7138,0.0,5.7583,5.8289,0.0,0.0,5.8698,5.8698,5.8698,0.0,0.0,0.0,0.0,0.0,6.1298,6.2079,6.2582,6.2795,6.3579,0.0,6.4284,6.4284,6.4284,6.4284,6.4284,6.4284,6.4284,6.4284,0.0,6.4284,6.4284,6.4284,6.4284,6.4284,6.4322,6.4359,6.4359,6.4397,6.4477,6.482,6.5128,6.5383,6.5383,6.5618,6.6051,6.6859,0.0,0.0,0.0,0.0,7.0015,0.0,0.0,0.0,0.0,0.0,0.0,7.1291,7.1291,7.1291,7.1291,0.0,0.0,0.0,0.0,0.0,0.0,7.1291,7.1291,7.1291,7.1291,7.1291,0.0,0.0,7.1291,7.1291,7.1291,7.1291,7.1291,7.2164,7.3037,7.3889,7.4734,7.5585,7.6397,7.6397,7.6397,7.6397,7.6397,7.6397,7.6397,7.6397,7.6397,7.6397,7.6397,7.6397,7.6397,7.6397,7.6397,7.6397,5.398,5.476,5.528,0.0,5.4686,5.4611,0.0,0.0,0.0,0.0,5.5986,5.6283,5.71,5.7212,5.7435,5.8029,5.8289,0.0,0.0,0.0,0.0,5.8698,5.8698,5.8698,5.8698,5.9515,0.0,5.9924,0.0,0.0,6.2116,6.2933,6.3394,6.3525,0.0,0.0,6.4162,6.4244,6.4284,6.4284,6.4284,6.4284,0.0,0.0,6.4284,6.4284,6.4284,6.4284,6.4284,6.4284,6.4697,6.5185,6.5185,6.5636,6.6203,6.6247,6.6484,6.6701,6.6701,6.7164,6.7705,6.7898,6.7975,6.8244,0.0,0.0,0.0,0.0,0.0,0.0,0.0,0.0,0.0,7.1291,7.1291,7.1291,0.0,0.0,0.0,0.0,0.0,0.0,7.1291,7.1291,7.1291,7.1291,7.1291,7.1291,0.0,0.0,0.0,7.1291,7.1291,7.1291,7.1291,7.2164,7.3054,7.3899,7.4711,7.5585,7.6397,7.6397,7.6397,7.6397,7.6397,7.6397,7.6397,7.6397,7.6397,7.6397,7.6397,7.6397,7.6397,7.6397,7.6397,7.6397,5.5503,0.0,0.0,5.6766,0.0,0.0,5.6283,0.0,0.0,5.6766,5.684,0.0,5.7955,5.8364,5.8735,5.9181,5.9589,0.0,0.0,0.0,0.0,5.9218,5.9218,5.9218,5.9218,6.0407,0.0,6.1001,0.0,0.0,6.2933,6.3416,6.3647,6.378,0.0,6.3915,0.0,6.4162,6.4244,6.4284,6.4284,0.0,0.0,6.481,6.5035,6.5373,6.5373,6.5148,6.4885,6.5261,6.5674,6.6049,6.6049,6.6387,6.68,6.68,6.6972,6.7202,6.7202,6.7751,6.8398,6.8744,6.8924,6.9316,7.0341,7.0467,7.0513,0.0,0.0,0.0,0.0,0.0,0.0,0.0,0.0,0.0,0.0,0.0,0.0,0.0,0.0,0.0,7.1291,7.1291,7.1291,7.1291,7.1291,7.1291,0.0,0.0,0.0,7.1291,7.1291,7.1291,7.1291,7.2551,7.338,7.3914,7.5098,7.5933,7.6397,7.6397,7.6397,7.6397,7.6397,7.6397,7.6397,7.6397,7.6397,7.6397,7.6397,7.6397,7.6397,7.6397,7.6397,7.6397,0.0,0.0,0.0,0.0,0.0,0.0,0.0,5.6617,0.0,5.7583,0.0,5.8103,5.8772,5.9589,6.0072,6.0072,0.0,6.1187,6.1187,6.0481,6.0072,6.0072,6.0072,6.0072,6.0072,6.1596,0.0,0.0,0.0,0.0,6.3602,6.3602,6.3647,6.378,0.0,0.0,0.0,6.4042,6.4162,0.0,6.4397,6.4885,6.5523,6.5636,6.6124,6.68,6.6913,6.6387,6.5786,6.6537,6.6838,6.695,6.695,6.7025,6.71,6.71,6.7271,6.7468,6.7468,6.7959,6.8646,6.9337,6.9836,7.0281,7.1054,7.1269,7.1291,7.1291,7.1291,0.0,0.0,0.0,0.0,0.0,0.0,0.0,0.0,0.0,0.0,0.0,0.0,0.0,0.0,7.1291,0.0,0.0,0.0,0.0,0.0,0.0,0.0,7.1291,7.1291,0.0,7.1291,0.0,7.3906,7.3914,7.5624,7.6397,7.6397,7.6397,7.6397,7.6397,7.6397,7.6397,7.6397,7.6397,7.6397,7.6397,7.6397,7.6397,7.6397,7.6397,7.6397,7.6397,0.0,0.0,0.0,0.0,0.0,5.8438,5.8326,5.8289,5.8326,5.8475,5.9069,0.0,5.9664,6.0481,6.0964,6.0964,6.1113,0.0,0.0,0.0,0.0,6.0964,6.0964,6.0964,6.0964,6.193,6.2413,0.0,0.0,0.0,6.3602,6.3602,6.3602,0.0,0.0,0.0,6.3915,6.4042,0.0,6.42,6.4957,6.5373,6.5598,6.6274,6.665,6.6875,6.7551,6.7251,6.6575,6.6725,6.7213,6.7776,6.7776,6.8264,6.879,6.879,6.8795,6.8838,6.8838,6.9207,6.9545,6.9697,7.0202,7.0709,7.0863,7.1116,7.1291,7.1291,7.1291,7.1291,7.1291,0.0,0.0,0.0,0.0,0.0,0.0,0.0,0.0,0.0,0.0,0.0,0.0,0.0,0.0,0.0,0.0,0.0,0.0,0.0,0.0,0.0,0.0,0.0,0.0,0.0,7.3906,7.3914,7.5624,7.6397,7.6397,7.6397,7.6397,7.6397,7.6397,7.6397,7.6397,7.6397,7.6397,7.6397,7.6397,7.6397,7.6397,7.6397,7.6397,7.6397,0.0,0.0,0.0,0.0,0.0,0.0,0.0,5.9329,0.0,5.9329,5.9664,6.0072,6.0518,6.1336,6.1819,6.1819,6.219,6.245,6.245,6.2041,6.1819,6.1819,6.1819,0.0,6.1819,6.2636,6.3044,6.3044,0.0,0.0,6.3602,6.3602,6.3602,6.3602,0.0,6.3823,0.0,0.0,0.0,6.4916,6.5824,6.6425,6.6838,6.7251,6.7664,6.8114,6.849,6.8377,6.8039,6.8039,6.8302,6.864,6.864,6.8903,6.9203,6.9203,6.9203,6.9203,6.9203,6.9501,6.9816,6.9816,7.0171,7.0584,7.0755,7.0928,7.1091,7.1269,7.1291,7.1291,7.1291,7.1291,0.0,0.0,0.0,0.0,0.0,0.0,0.0,0.0,0.0,0.0,0.0,0.0,0.0,0.0,0.0,0.0,0.0,0.0,0.0,0.0,0.0,0.0,0.0,0.0,0.0,7.3914,7.5624,7.6397,7.6397,7.6397,7.6397,7.6397,7.6397,7.6397,7.6397,7.6397,7.6397,7.6397,7.6397,7.6397,7.6397,7.6397,7.6397,7.6397,0.0,5.8995,0.0,0.0,5.9107,0.0,0.0,6.0184,6.0184,6.0184,6.0333,6.0704,6.1373,6.219,6.2673,6.2673,6.323,6.3602,6.3602,6.3007,6.2673,6.2673,6.2673,6.2673,6.2673,6.3305,6.3602,0.0,0.0,0.0,0.0,6.3602,0.0,0.0,0.0,0.0,0.0,0.0,6.5511,6.582,6.6687,6.7438,6.8039,6.8189,6.8677,6.9203,6.9203,6.9203,6.9203,6.9203,6.9203,6.9203,6.9203,6.9203,6.9203,6.9203,6.9203,6.9203,6.9289,6.9542,6.9816,6.9816,7.0033,7.0369,7.0643,7.0728,7.0902,7.1247,7.1291,7.1291,7.1291,7.1291,0.0,0.0,0.0,0.0,0.0,0.0,0.0,0.0,0.0,0.0,0.0,0.0,0.0,0.0,0.0,0.0,0.0,0.0,0.0,0.0,0.0,7.1291,7.1291,0.0,7.3906,0.0,7.5624,7.6397,7.6397,7.6397,7.6397,7.6397,7.6397,7.6397,7.6397,7.6397,7.6397,7.6397,7.6397,7.6397,7.6397,7.6397,7.6397,7.6397,0.0,0.0,0.0,0.0,0.0,0.0,0.0,6.1076,6.1076,6.1076,6.1707,6.219,6.2301,6.3007,6.349,6.349,6.3565,6.3602,6.3602,6.3527,6.349,6.349,6.349,6.349,6.349,6.3565,6.3602,0.0,0.0,0.0,0.0,0.0,0.0,0.0,0.0,0.0,0.0,6.5272,6.5806,6.6598,6.7509,6.7926,6.8077,6.8828,6.9128,6.9203,6.9203,6.9203,6.9203,6.9203,6.9203,6.9203,6.9203,6.9203,6.9203,6.9203,6.9203,6.9289,6.9661,6.9778,6.9816,6.9816,7.0033,7.0337,7.0369,7.0584,7.0902,7.1247,7.1291,7.1291,7.1291,7.1291,7.1291,0.0,0.0,0.0,0.0,0.0,0.0,0.0,0.0,0.0,0.0,0.0,0.0,0.0,0.0,0.0,0.0,0.0,0.0,7.1291,0.0,7.1291,7.1291,7.3037,0.0,7.3914,7.5624,7.6397,7.6397,7.6397,7.6397,7.6397,7.6397,7.6397,7.6397,7.6397,7.6397,7.6397,7.6397,7.6397,7.6397,7.6397,7.6397,7.6397,0.0,0.0,0.0,0.0,0.0,0.0,0.0,6.2339,6.2822,6.3305,6.323,6.3305,6.3788,6.4605,6.5125,6.5125,6.5125,6.5125,6.5125,6.5125,6.5125,6.5125,6.5125,6.4865,6.4345,6.4345,6.4085,0.0,0.0,0.0,0.0,0.0,0.0,0.0,0.0,6.5762,6.5888,6.6587,6.7085,6.7546,6.8334,6.8715,6.8753,6.9091,6.9203,6.9203,6.9203,6.9203,6.9203,6.9203,6.9203,6.9203,6.9203,6.9203,6.9203,6.9203,6.9203,6.9246,6.9416,6.9622,6.9816,6.9816,7.0033,7.0369,7.0554,7.07,7.0902,7.1247,7.1291,7.1291,7.1291,7.1291,7.1291,0.0,0.0,0.0,0.0,0.0,0.0,0.0,0.0,0.0,0.0,0.0,0.0,0.0,0.0,0.0,0.0,0.0,0.0,7.1291,0.0,7.1562,7.2104,7.3264,7.4154,7.4634,7.5817,7.6397,7.6397,7.6397,7.6397,7.6397,7.6397,7.6397,7.6397,7.6397,7.6397,7.6397,7.6397,7.6397,7.6397,7.6397,7.6397,7.6397,6.1261,0.0,6.1819,0.0,6.193,6.245,6.3044,6.3825,6.4531,6.5125,6.4902,6.4828,6.5162,6.5756,6.6091,6.6091,6.6091,6.6091,6.6091,6.6091,6.6091,6.6091,6.6091,0.0,6.5199,6.5199,6.4902,6.4345,6.4345,0.0,0.0,0.0,0.0,0.0,6.6156,6.6619,6.6784,6.7479,6.7985,6.8372,6.8935,6.9203,6.9203,6.9203,6.9203,6.9203,6.9203,6.9203,6.9203,6.9203,6.9203,6.9203,6.9203,6.9203,6.9203,6.9203,6.9203,6.9203,6.9374,6.9582,6.9816,6.9816,7.0033,7.0369,7.0613,7.0728,7.0902,7.1247,7.1291,7.1291,7.1291,7.1291,7.1291,7.1291,0.0,0.0,0.0,0.0,0.0,0.0,0.0,7.1291,7.1291,0.0,0.0,0.0,0.0,0.0,0.0,0.0,0.0,0.0,0.0,0.0,0.0,7.3458,7.4309,7.5098,7.5972,7.6397,7.6397,7.6397,7.6397,7.6397,7.6397,7.6397,7.6397,7.6397,7.6397,7.6397,7.6397,7.6397,7.6397,7.6397,7.6397,7.6397,6.1373,6.2487,6.3342,6.2524,6.3713,6.4791,6.4791,6.5534,6.6091,6.6091,6.676,6.6982,6.6165,6.6091,6.6091,6.6091,6.6091,6.6091,6.6091,6.6091,6.6091,0.0,0.0,6.6091,6.6091,6.6091,6.6091,6.6091,0.0,0.0,6.6091,0.0,6.6834,6.6128,6.7012,6.7431,6.7505,6.7741,6.8278,6.899,6.916,6.9203,6.9203,6.9203,6.9203,6.9203,6.9203,6.9203,6.9203,6.9203,6.9203,6.9203,6.9203,6.9203,6.9203,6.9203,6.9203,6.9289,6.97,6.9816,6.9816,6.9816,7.0033,7.0304,7.0304,7.0554,7.0902,7.1247,7.1291,7.1291,7.1291,7.1291,7.1291,7.1291,0.0,0.0,0.0,0.0,0.0,0.0,7.1291,7.1291,7.1291,0.0,0.0,0.0,0.0,0.0,0.0,0.0,0.0,7.1291,7.1291,0.0,7.2584,7.3435,7.4286,7.5098,7.5972,7.6397,7.6397,7.6397,7.6397,7.6397,7.6397,7.6397,7.6397,7.6397,7.6397,7.6397,7.6397,7.6397,7.6397,7.6397,7.6397,7.6397,6.2896,6.3713,6.4345,6.4085,6.4976,6.5682,6.5682,6.6388,6.6945,6.6945,6.7614,6.8023,6.7763,6.7763,6.7763,0.0,6.7763,6.7763,0.0,6.7763,6.7763,6.7763,6.7763,6.7503,6.6945,6.6945,6.6648,6.6091,0.0,0.0,0.0,6.6945,6.7168,6.6945,6.781,6.8193,6.8325,6.8418,6.8576,6.8929,6.8975,6.8975,6.8975,6.8975,6.902,6.9072,6.9072,6.9116,6.9203,6.9203,6.9203,6.9203,6.9203,6.9203,6.9203,6.9203,6.9203,6.9203,6.9374,6.9582,6.9816,6.9816,7.0033,7.0369,7.0584,7.0902,7.1163,7.1269,7.1291,7.1291,7.1291,7.1291,7.1291,7.1291,0.0,0.0,0.0,0.0,0.0,0.0,0.0,7.1291,0.0,7.1291,0.0,0.0,0.0,0.0,0.0,0.0,0.0,0.0,7.1291,0.0,7.3458,7.3767,7.4618,7.6011,7.6281,7.6397,7.6397,7.6397,7.6397,7.6397,7.6397,7.6397,7.6397,7.6397,7.6397,7.6397,7.6397,7.6397,7.6397,7.6397,7.6397,7.6397,6.4531,6.4939,6.5311,6.5311,6.6017,6.6574,6.6574,6.7243,6.7763,6.7763,6.8208,6.8506,6.8506,6.8506,0.0,6.8506,6.8506,6.8506,6.8506,6.8506,6.8506,6.8506,6.8506,6.8283,6.7763,0.0,0.0,6.702,6.702,6.702,6.702,6.754,6.7763,6.78,6.8283,6.8554,6.8602,6.865,6.8782,6.8828,6.8875,6.8921,6.8921,6.8921,6.8929,6.8937,6.8937,6.9027,6.9116,6.9116,6.916,6.9203,6.9203,6.9203,6.9203,6.9203,6.9203,6.9203,6.9203,6.9378,6.9582,6.9582,6.9853,7.0238,7.07,7.0953,7.1139,7.1269,7.1291,7.1291,7.1291,7.1291,7.1291,7.1291,7.1291,7.1291,7.1291,0.0,0.0,0.0,0.0,0.0,0.0,7.1291,0.0,0.0,0.0,0.0,0.0,0.0,0.0,7.1291,7.1601,0.0,7.3883,7.4193,7.5044,7.6397,7.6397,7.6397,7.6397,7.6397,7.6397,7.6397,7.6397,7.6397,7.6397,7.6397,7.6397,7.6397,7.6397,7.6397,7.6397,7.6397,7.6397,7.6397,6.6091,6.6128,0.0,0.0,6.6871,0.0,6.7391,6.8023,6.8506,6.8506,6.8506,6.8506,6.8506,6.8506,6.8506,6.8506,0.0,0.0,0.0,6.8506,6.8506,6.8506,6.8506,6.8506,6.8506,6.8506,6.8506,6.8506,6.8506,6.8506,6.8506,6.8506,6.8506,6.8506,6.8506,6.8506,6.8506,6.8602,6.8697,6.8697,6.8791,6.8875,6.8875,6.8875,6.8875,6.8921,6.8958,6.9004,6.9102,6.9132,6.9222,6.9391,6.9347,6.9391,6.9353,6.9241,6.9203,6.9203,6.9203,6.9203,6.9203,6.9203,6.9501,6.9963,7.0584,7.0728,7.0875,7.1224,7.1269,7.1269,7.1291,7.1291,7.1291,7.1291,7.1291,7.1291,7.1291,0.0,0.0,0.0,0.0,0.0,0.0,7.1291,7.1291,0.0,0.0,0.0,0.0,0.0,7.1291,7.1291,7.2142,7.3032,7.3883,7.4695,7.5546,7.6397,7.6397,7.6397,7.6397,7.6397,7.6397,7.6397,7.6397,7.6397,7.6397,7.6397,7.6397,7.6397,7.6397,7.6397,7.6397,7.6397,7.6397,7.6397,0.0,0.0,6.702,6.702,6.7688,6.8246,6.8246,6.8394,6.8506,6.8506,6.8506,6.8506,6.8506,6.8506,6.8506,6.8506,6.8506,6.8506,6.8506,6.8506,6.8506,6.8506,6.8506,6.8506,6.8506,6.8506,6.8506,6.8506,6.8506,6.8506,6.8506,6.8506,6.8506,6.8506,6.8506,6.8506,6.8506,6.8506,6.8554,6.8554,6.8554,6.8602,6.8602,6.8602,6.865,6.8856,6.9453,6.9818,7.0076,7.0583,7.09,7.1074,7.0983,7.1029,7.0855,6.9579,6.9203,6.9203,6.9203,6.9203,6.9203,6.9203,6.9501,6.9816,6.9999,7.0238,7.0524,7.0875,7.0928,7.0979,7.1269,7.1291,7.1291,7.1291,7.1291,7.1291,7.1291,7.1291,0.0,0.0,7.1291,7.1291,7.1291,7.1291,7.1291,0.0,0.0,0.0,0.0,7.1291,7.1291,7.1291,7.2142,7.3032,7.3883,7.4695,7.5546,7.6397,7.6397,7.6397,7.6397,7.6397,7.6397,7.6397,7.6397,7.6397,7.6397,7.6397,7.6397,7.6397,7.6397,7.6397,7.6397,7.6397,7.6397,7.6397,6.7205,6.7577,6.7874,6.7874,6.8208,6.8506,6.8506,6.8506,6.8506,6.8506,6.8506,6.8506,6.8506,6.8506,6.8506,6.8506,6.8506,6.8506,6.8506,6.8506,6.8506,6.8506,6.8506,6.8506,6.8506,6.8506,6.8506,6.8506,6.8506,6.8506,6.8506,6.8506,6.8506,6.8506,6.8506,6.8506,6.8506,6.8506,6.8506,6.8506,6.8506,6.8729,6.9063,6.9063,6.9335,6.9755,7.0202,7.0497,7.0714,7.1115,7.1406,7.1629,7.1499,7.1591,7.1531,7.063,7.0104,6.9804,6.9804,6.9504,6.9203,6.9203,6.9374,6.9582,6.9778,6.9963,7.0171,7.0524,7.0584,7.0671,7.1004,7.1091,7.1116,7.1269,7.1291,7.1291,7.1291,7.1291,0.0,7.1291,7.1291,7.1291,7.1291,7.1291,7.1291,7.1291,0.0,0.0,7.1291,7.1678,7.1872,7.1872,7.2723,7.3612,7.4425,7.5276,7.5933,7.6397,7.6397,7.6397,7.6397,7.6397,7.6397,7.6397,7.6397,7.6397,7.6397,7.6397,7.6397,7.6397,7.6397,7.6397,7.6397,7.6397,7.6397,7.6397,6.8506,6.8506,6.8506,6.8506,6.8506,6.8506,6.8506,6.8506,6.8506,6.8506,6.8506,6.8506,6.8506,6.8506,6.8506,6.8506,6.8506,6.8506,6.8506,6.8506,6.8506,6.8506,6.8506,6.8506,6.8506,6.8506,6.8506,6.8506,6.8506,6.8506,6.8506,6.8506,6.8506,6.8506,6.8506,6.8506,6.8506,6.8654,6.8691,6.8691,6.884,6.9286,6.988,6.988,7.0326,7.092,7.1069,7.1206,7.1305,7.1417,7.1637,7.1874,7.1827,7.192,7.2094,7.2094,7.1494,7.0818,7.0705,7.0142,6.9579,6.9579,6.9579,6.9627,6.9848,6.9928,6.9967,7.0209,7.0238,7.0337,7.0671,7.0755,7.0902,7.1163,7.1269,7.1291,7.1291,0.0,7.1291,7.1291,7.1291,7.1291,7.1291,7.1291,7.133,7.1485,7.1485,7.1562,0.0,7.2375,7.2839,7.2955,7.369,7.4463,7.5276,7.6011,7.6397,7.6397,7.6397,7.6397,7.6397,7.6397,7.6397,7.6397,7.6397,7.6397,7.6397,7.6397,7.6397,7.6397,7.6397,7.6397,7.6397,7.6397,7.6397,7.6397,6.8506,6.8506,6.8506,6.8506,6.8506,6.8506,6.8506,6.8506,6.8506,6.8506,6.8506,6.8506,6.8506,6.8506,6.8506,6.8506,6.8506,6.8506,6.8506,6.8506,6.8506,6.8506,6.8506,6.8506,6.8506,6.8506,6.8506,6.8506,6.8506,6.8506,6.8506,6.8506,6.8506,6.8506,6.8506,6.8506,6.8543,6.9249,6.9509,6.9583,7.0252,7.0623,7.0735,7.0735,7.0809,7.1032,7.1738,7.2099,7.2274,7.288,7.3305,7.3597,7.349,7.3634,7.3822,7.3822,7.3221,7.2395,7.1719,7.1419,7.1306,7.1306,7.1306,7.1156,7.053,7.0379,7.0324,6.9929,6.989,6.9999,7.0337,7.0613,7.0821,7.0875,7.1116,7.1291,7.1291,0.0,7.1291,7.1291,7.1291,7.1291,7.1291,7.1291,7.1601,7.2336,7.2413,7.2723,7.3458,7.3612,7.3999,7.4695,7.485,7.5314,7.6204,7.632,7.6397,7.6397,7.6397,7.6397,7.6397,7.6397,7.6397,7.6397,7.6397,7.6397,7.6397,7.6397,7.6397,7.6397,7.6397,7.6397,7.6397,7.6397,7.6397,7.6397,6.8506,6.8506,6.8506,6.8506,6.8506,6.8506,6.8506,6.8506,6.8506,6.8506,6.8506,6.8506,6.8506,6.8506,6.8506,6.8506,6.8506,6.8506,6.8506,6.8506,6.8506,6.8506,6.8506,6.8506,6.8506,6.8506,6.8506,6.8506,6.8506,6.8506,6.8506,6.8506,6.8729,6.9174,6.9174,6.9397,6.9843,7.0215,7.0363,7.04,7.0772,7.118,7.1589,7.1589,7.1886,7.2295,7.2704,7.2904,7.2992,7.3313,7.3578,7.3777,7.3715,7.3912,7.4104,7.4104,7.355,7.2733,7.1944,7.1719,7.1719,7.1719,7.1719,7.1606,7.1231,7.1156,7.105,7.0851,7.0479,7.0302,7.0609,7.0442,7.0337,7.0524,7.0783,0.0,0.0,7.1163,7.1291,7.1291,7.1717,7.1988,7.1988,7.2413,7.2877,7.3264,7.3303,7.3496,7.3883,7.4309,7.4734,7.5082,7.5546,7.5972,7.6397,7.6397,7.6397,7.6397,7.6397,7.6397,7.6397,7.6397,7.6397,7.6397,7.6397,7.6397,7.6397,7.6397,7.6397,7.6397,7.6397,7.6397,7.6397,7.6397,7.6397,7.6397,6.8506,6.8506,6.8506,6.8506,6.8506,6.8506,6.8506,6.8506,6.8506,6.8506,6.8506,6.8506,6.8506,6.8506,6.8506,6.8506,6.8506,6.8506,6.8506,6.8506,6.8506,6.8506,6.8506,6.8506,6.8506,6.8506,6.8617,6.8803,6.8803,6.8877,6.9063,6.9063,6.9397,6.9992,6.9992,7.0326,7.092,7.1143,7.1218,7.1218,7.1403,7.1886,7.2481,7.2481,7.2852,7.3372,7.3372,7.3372,7.3372,7.3372,7.3476,7.3615,7.3615,7.3765,7.3961,7.4009,7.3616,7.3071,7.247,7.2282,7.2282,7.2282,7.2282,7.2245,7.2019,7.1982,7.1944,7.1757,7.1231,7.0874,7.1133,7.0723,7.046,7.0709,0.0,0.0,0.0,7.1582,7.1804,7.191,7.2491,7.2916,7.2916,7.3496,7.3999,7.4154,7.4193,7.427,7.4463,7.5082,7.5392,7.5392,7.6049,7.6397,7.6397,7.6397,7.6397,7.6397,7.6397,7.6397,7.6397,7.6397,7.6397,7.6397,7.6397,7.6397,7.6397,7.6397,7.6397,7.6397,7.6397,7.6397,7.6397,7.6397,7.6397,7.6397,6.8506,6.8506,6.8506,6.8506,6.8506,6.8506,6.8506,6.8506,6.8506,6.8506,6.8506,6.8506,6.8506,6.8506,6.8506,6.8506,6.8506,6.8506,6.8506,6.8506,6.8506,6.8506,6.8506,6.8506,6.8506,6.8506,6.8877,6.962,6.962,6.9992,7.0735,7.0735,7.0772,7.0846,7.0846,7.0846,7.0958,7.1738,7.2072,7.2146,7.2889,7.3224,7.3298,7.3298,7.3335,7.3372,7.3372,7.3372,7.3372,7.3372,7.3476,7.3615,7.3615,7.3715,7.3864,7.3961,7.4066,7.4085,7.4047,7.4009,7.4009,7.4009,7.4009,7.3822,7.2996,7.2808,7.262,7.1869,7.1644,7.1606,7.1651,7.1845,7.2052,7.2091,0.0,0.0,7.3073,7.3129,7.3304,7.3667,7.3767,7.3806,7.3806,7.3844,7.4231,7.4966,7.5005,7.5353,7.6165,7.6281,7.6281,7.6281,7.6359,7.6397,7.6397,7.6397,7.6397,7.6397,7.6397,7.6397,7.6397,7.6397,7.6397,7.6397,7.6397,7.6397,7.6397,7.6397,7.6397,7.6397,7.6397,7.6397,7.6397,7.6397,7.6397,7.6397,6.8506,6.8506,6.8506,6.8506,6.8506,6.8506,6.8506,6.8506,6.8506,6.8506,6.8506,6.8506,6.8506,6.8506,6.8506,6.8506,6.8506,6.8729,6.9211,6.9249,6.9249,6.9249,6.9249,6.9509,6.9992,6.9992,7.014,7.0475,7.0475,7.0623,7.092,7.092,7.1218,7.1701,7.1701,7.1961,7.2481,7.2778,7.2927,7.2964,7.3261,7.3372,7.3372,7.3372,7.3372,7.3372,7.3372,7.3372,7.3372,7.3372,7.3424,7.3476,7.3476,7.3564,7.3715,7.3961,7.4104,7.4197,7.4197,7.4197,7.4197,7.4197,7.4197,7.4122,7.3784,7.3709,7.3634,7.3334,7.2808,7.2432,7.2432,7.2153,7.1907,7.1907,0.0,7.2432,7.2615,7.3016,7.335,7.3497,7.4215,7.4657,7.4657,7.5121,7.5585,7.5895,7.5895,7.6049,7.6359,7.6397,7.6397,7.6397,7.6397,7.6397,7.6397,7.6397,7.6397,7.6397,7.6397,7.6397,7.6397,7.6397,7.6397,7.6397,7.6397,7.6397,7.6397,7.6397,7.6397,7.6397,7.6397,7.6397,7.6397,7.6397,7.6397,7.6397,6.8506,6.8506,6.8506,6.8506,6.8506,6.8506,6.8506,6.8506,6.8506,6.8506,6.8506,6.8617,6.8877,6.8877,6.8989,6.9249,6.9249,6.9509,7.0066,7.0103,7.0103,7.0103,7.0103,7.0363,7.092,7.092,7.1032,7.1329,7.1329,7.1441,7.1701,7.1701,7.1998,7.2555,7.2555,7.2852,7.3372,7.3372,7.3372,7.3372,7.3372,7.3372,7.3372,7.3372,7.3372,7.3372,7.3372,7.3372,7.3372,7.3372,7.3372,7.3372,7.3372,7.3476,7.3628,7.3864,7.4056,7.4151,7.4197,7.4197,7.4197,7.4197,7.4197,7.4197,7.4197,7.4197,7.4197,7.4197,7.3709,7.3296,7.3296,7.2883,7.2507,7.2507,7.2698,7.2876,7.296,7.3413,7.3814,7.4101,7.4834,7.5374,7.5508,7.6049,7.6397,7.6397,7.6397,7.6397,7.6397,7.6397,7.6397,7.6397,7.6397,7.6397,7.6397,7.6397,7.6397,7.6397,7.6397,7.6397,7.6397,7.6397,7.6397,7.6397,7.6397,7.6397,7.6397,7.6397,7.6397,7.6397,7.6397,7.6397,7.6397,7.6397,7.6397,7.6397,6.8506,6.8506,6.8506,6.8506,6.8506,6.8506,6.8506,6.8506,6.8506,6.8506,6.8506,6.884,6.962,6.9732,7.0029,7.0846,7.092,7.092,7.092,7.092,7.0958,7.0958,7.092,7.092,7.0958,7.0958,7.1329,7.2184,7.2184,7.2592,7.3372,7.3372,7.3372,7.3372,7.3372,7.3372,7.3372,7.3372,7.3372,7.3372,7.3372,7.3372,7.3372,7.3372,7.3372,7.3372,7.3372,7.3372,7.3372,7.3372,7.3372,7.3372,7.3372,7.3476,7.3665,7.3765,7.3912,7.4056,7.4151,7.4197,7.4197,7.4197,7.4197,7.4197,7.4197,7.4197,7.4197,7.4197,7.4197,7.4197,7.4197,7.4197,7.4197,7.4197,7.4197,7.4342,7.4664,7.4705,7.5019,7.581,7.5899,7.6013,7.6374,7.6397,7.6397,7.6397,7.6397,7.6397,7.6397,7.6397,7.6397,7.6397,7.6397,7.6397,7.6397,7.6397,7.6397,7.6397,7.6397,7.6397,7.6397,7.6397,7.6397,7.6397,7.6397,7.6397,7.6397,7.6397,7.6397,7.6397,7.6397,7.6397,7.6397,7.6397,7.6397,7.6397,6.8506,6.8506,6.8506,6.8506,6.8506,6.8506,6.8506,6.8989,6.936,6.936,6.9843,7.0289,7.0549,7.0549,7.066,7.0883,7.092,7.118,7.1775,7.2332,7.2629,7.2629,7.2109,7.2072,7.2629,7.2629,7.2778,7.3038,7.3038,7.3149,7.3372,7.3372,7.3372,7.3372,7.3372,7.3372,7.3372,7.3372,7.3372,7.3372,7.3372,7.3372,7.3372,7.3372,7.3372,7.3372,7.3372,7.3372,7.3372,7.3372,7.3372,7.3372,7.3372,7.3476,7.3665,7.3765,7.3912,7.4056,7.4151,7.4197,7.4197,7.4197,7.4197,7.4197,7.4197,7.4197,7.4197,7.4197,7.4197,7.4197,7.4197,7.4197,7.4197,7.4197,7.4197,7.4243,7.4342,7.4535,7.4825,7.5018,7.5584,7.5928,7.6013,7.6262,7.6397,7.6397,7.6397,7.6397,7.6397,7.6397,7.6397,7.6397,7.6397,7.6397,7.6397,7.6397,7.6397,7.6397,7.6397,7.6397,7.6397,7.6397,7.6397,7.6397,7.6397,7.6397,7.6397,7.6397,7.6397,7.6397,7.6397,7.6397,7.6397,7.6397,7.6397,7.6475,6.8457,6.8506,6.8506,6.8506,6.8766,6.8989,6.8989,6.9694,7.0177,7.0177,7.0623,7.1032,7.1403,7.1403,7.1552,7.1849,7.1886,7.2109,7.2629,7.3112,7.3372,7.3372,7.2927,7.2889,7.3372,7.3372,7.3372,7.3372,7.3372,7.3372,7.3372,7.3372,7.3372,7.3372,7.3372,7.3372,7.3372,7.3372,7.3372,7.3372,7.3372,7.3372,7.3372,7.3372,7.3372,7.3372,7.3372,7.3372,7.3372,7.3372,7.3372,7.3372,7.3372,7.3424,7.3564,7.3715,7.3815,7.3961,7.4104,7.4151,7.4197,7.4197,7.4197,7.4197,7.4197,7.4197,7.4197,7.4197,7.4197,7.4197,7.4197,7.4197,7.4197,7.4197,7.4197,7.4197,7.4197,7.4394,7.4535,7.4705,7.5129,7.5545,7.587,7.6068,7.6262,7.6397,7.6397,7.6397,7.6397,7.6397,7.6397,7.6397,7.6397,7.6397,7.6397,7.6397,7.6397,7.6397,7.6397,7.6397,7.6397,7.6397,7.6397,7.6397,7.6397,7.6397,7.6397,7.6397,7.6397,7.6397,7.6397,7.6397,7.6397,7.6397,7.663,7.7001,6.8408,6.858,6.8617,6.8617,6.9286,6.9843,6.9843,7.0512,7.1032,7.1032,7.1106,7.1441,7.2221,7.2295,7.2592,7.3335,7.3372,7.3372,7.3372,7.3372,7.3372,7.3372,7.3372,7.3372,7.3372,7.3372,7.3372,7.3372,7.3372,7.3372,7.3372,7.3372,7.3372,7.3372,7.3372,7.3372,7.3372,7.3372,7.3372,7.3372,7.3372,7.3372,7.3372,7.3372,7.341,7.3484,7.3484,7.3484,7.3484,7.341,7.3372,7.3372,7.3372,7.3372,7.3424,7.3564,7.3715,7.3815,7.3961,7.4104,7.4197,7.4197,7.4197,7.4197,7.4197,7.4197,7.4197,7.4197,7.4197,7.4197,7.4197,7.4197,7.4197,7.4197,7.4197,7.4197,7.4197,7.4197,7.4342,7.4582,7.4705,7.4981,7.571,7.587,7.6013,7.6374,7.6397,7.6397,7.6397,7.6397,7.6397,7.6397,7.6397,7.6397,7.6397,7.6397,7.6397,7.6397,7.6397,7.6397,7.6397,7.6397,7.6397,7.6397,7.6397,7.6397,7.6397,7.6397,7.6397,7.6397,7.6397,7.6436,7.6514,7.6514,7.7079,7.7814,6.8457,6.9026,6.9472,6.9472,7.014,7.066,7.066,7.1366,7.1923,7.1923,7.2444,7.2927,7.3112,7.3112,7.3187,7.3372,7.3372,7.3372,7.3372,7.3372,7.3372,7.3372,7.3372,7.3372,7.3372,7.3372,7.3372,7.3372,7.3372,7.3372,7.3372,7.3372,7.3372,7.3372,7.3372,7.3372,7.3372,7.3372,7.3372,7.3372,7.3372,7.3372,7.3372,7.3372,7.3781,7.4338,7.4338,7.4338,7.4227,7.3595,7.3372,7.3372,7.3372,7.3372,7.3424,7.3564,7.3715,7.3815,7.3961,7.4104,7.4197,7.4197,7.4197,7.4197,7.4197,7.4197,7.4197,7.4197,7.4197,7.4197,7.4197,7.4197,7.4197,7.4197,7.4197,7.4197,7.4197,7.4197,7.4243,7.4297,7.4535,7.4786,7.4943,7.5513,7.6013,7.6374,7.6397,7.6397,7.6397,7.6397,7.6397,7.6397,7.6397,7.6397,7.6397,7.6397,7.6397,7.6397,7.6397,7.6397,7.6397,7.6397,7.6397,7.6397,7.6397,7.6397,7.6397,7.6397,7.6397,7.6397,7.6397,7.6823,7.7442,7.7418,7.7945,7.8805,6.9051,6.9732,7.0289,7.0289,7.0958,7.1515,7.1515,7.2221,7.2741,7.2741,7.3112,7.3372,7.3372,7.3372,7.3372,7.3372,7.3372,7.3372,7.3372,7.3372,7.3372,7.3372,7.3372,7.3372,7.3372,7.3372,7.3372,7.3372,7.3372,7.3372,7.3372,7.3372,7.3372,7.3372,7.3372,7.3372,7.3372,7.3372,7.3372,7.3372,7.3372,7.3632,7.3967,7.3967,7.445,7.5156,7.5156,7.5156,7.5044,7.4227,7.3967,7.3892,7.3521,7.3372,7.3424,7.3476,7.3615,7.3765,7.3864,7.4009,7.4104,7.4197,7.4197,7.4197,7.4197,7.4197,7.4197,7.4197,7.4197,7.4197,7.4197,7.4197,7.4197,7.4197,7.4197,7.4197,7.4197,7.4197,7.4197,7.4197,7.435,7.4577,7.4943,7.5513,7.6013,7.6374,7.6397,7.6397,7.6397,7.6397,7.6397,7.6397,7.6397,7.6397,7.6397,7.6397,7.6397,7.6397,7.6397,7.6397,7.6397,7.6397,7.6397,7.6397,7.6397,7.6397,7.6397,7.6397,7.663,7.7016,7.7016,7.7558,7.8332,7.8307,7.8873,7.9685,6.9818,7.0586,7.1143,7.1143,7.1812,7.2406,7.2406,7.2964,7.3372,7.3372,7.3372,7.3372,7.3372,7.3372,7.3372,7.3372,7.3372,7.3372,7.3372,7.3372,7.3372,7.3372,7.3372,7.3372,7.3372,7.3372,7.3372,7.3372,7.3372,7.3372,7.3372,7.3372,7.3372,7.3372,7.3372,7.3372,7.3372,7.3372,7.3484,7.3595,7.3595,7.4078,7.4784,7.4784,7.5304,7.601,7.601,7.601,7.5899,7.5081,7.4784,7.4635,7.3855,7.3595,7.3558,7.341,7.3476,7.3615,7.3765,7.3912,7.4056,7.4151,7.4197,7.4197,7.4197,7.4197,7.4197,7.4197,7.4197,7.4197,7.4197,7.4197,7.4197,7.4197,7.4197,7.4197,7.4197,7.4197,7.4197,7.4197,7.4197,7.4482,7.5239,7.5616,7.5957,7.6374,7.6397,7.6397,7.6397,7.6397,7.6397,7.6397,7.6397,7.6397,7.6397,7.6552,7.663,7.663,7.6784,7.6668,7.6397,7.6552,7.663,7.663,7.6784,7.6823,7.6823,7.6823,7.7248,7.7906,7.7906,7.8448,7.9221,7.9376,7.9854,8.0512,7.0684,7.1441,7.1998,7.1998,7.2666,7.3224,7.3224,7.3298,7.3372,7.3372,7.3372,7.3372,7.3372,7.3372,7.3372,7.3372,7.3372,7.3372,7.3372,7.3372,7.3372,7.3372,7.3372,7.3372,7.3372,7.3372,7.3372,7.3372,7.3372,7.3372,7.3372,7.3372,7.3372,7.3372,7.3372,7.3372,7.3372,7.3372,7.3781,7.4413,7.4413,7.4896,7.5639,7.5639,7.6159,7.6902,7.6902,7.6902,7.679,7.5936,7.5639,7.549,7.4673,7.4413,7.4301,7.3595,7.3476,7.3578,7.3615,7.3815,7.4009,7.4056,7.4104,7.4197,7.4197,7.4197,7.4197,7.4197,7.4197,7.4197,7.4197,7.4197,7.4197,7.4197,7.4197,7.4197,7.4197,7.4197,7.4197,7.4197,7.4197,7.4482,7.5239,7.5344,7.5672,7.6374,7.6397,7.6397,7.6397,7.6397,7.6397,7.6397,7.6397,7.6397,7.6397,7.7132,7.7519,7.7519,7.8293,7.7867,7.6436,7.7171,7.7519,7.7558,7.8332,7.8641,7.8641,7.8641,7.8718,7.8834,7.8834,7.9337,8.015,8.0885,8.1233,8.1349,7.1575,7.2295,7.2852,7.2852,7.3149,7.3372,7.3372,7.3372,7.3372,7.3372,7.3372,7.3372,7.3372,7.3372,7.3372,7.3372,7.3372,7.3372,7.3372,7.3372,7.3372,7.3372,7.3372,7.3372,7.3372,7.3372,7.3372,7.3372,7.3372,7.3372,7.3372,7.3372,7.3372,7.3372,7.3372,7.3632,7.4041,7.4041,7.4524,7.5267,7.5267,7.575,7.653,7.653,7.7013,7.7756,7.7756,7.7756,7.7608,7.679,7.653,7.6382,7.5527,7.5267,7.5193,7.4821,7.4763,7.4852,7.4956,7.4723,7.4487,7.4634,7.4394,7.4104,7.4197,7.4197,7.4197,7.4197,7.4197,7.4197,7.4197,7.4197,7.4197,7.4197,7.4197,7.4197,7.4197,7.4197,7.4252,7.4444,7.4487,7.4783,7.5584,7.5648,7.5831,7.6374,7.6397,7.6397,7.6397,7.6397,7.6397,7.6397,7.6862,7.7132,7.7132,7.7983,7.8409,7.8409,7.8834,7.8602,7.7867,7.8254,7.8409,7.8448,7.8834,7.8989,7.8989,7.8989,7.926,7.9685,7.9685,8.0188,8.0962,8.1349,8.1504,8.1504]},{"header":{"parameterUnit":"m.s-1","parameterCategory":1,"la1":30.6,"la2":28.766,"lo1":-90.7593,"lo2":-88.6598,"dy":0.0162,"dx":0.0183,"nx":116,"ny":114,"refTime":"2024-03-30T12:00:00:Z","depth":0,"parameterNumber":3,"parameterNumberName":"V-component_of_WINDS"},"data":[0.0,0.0,0.0,0.0,0.0,0.0,0.0,0.0,0.0,0.0,0.0,0.0,0.0,0.0,0.0,0.0,0.0,0.0,0.0,0.0,0.0,0.0,0.0,0.0,0.0,0.0,0.0,0.0,0.0,0.0,0.0,0.0,0.0,0.0,0.0,0.0,0.0,0.0,0.0,0.0,0.0,0.0,0.0,0.0,0.0,0.0,0.0,0.0,0.0,0.0,0.0,0.0,0.0,0.0,0.0,0.0,0.0,0.0,0.0,0.0,0.0,0.0,0.0,0.0,0.0,0.0,0.0,0.0,0.0,0.0,0.0,0.0,0.0,0.0,0.0,0.0,0.0,0.0,0.0,0.0,0.0,0.0,0.0,0.0,0.0,0.0,0.0,0.0,0.0,0.0,0.0,0.0,0.0,0.0,0.0,0.0,0.0,0.0,0.0,0.0,0.0,0.0,0.0,0.0,0.0,0.0,0.0,0.0,0.0,0.0,0.0,0.0,0.0,0.0,0.0,0.0,0.0,0.0,0.0,0.0,0.0,0.0,0.0,0.0,0.0,0.0,0.0,0.0,0.0,0.0,0.0,0.0,0.0,0.0,0.0,0.0,0.0,0.0,0.0,0.0,0.0,0.0,0.0,0.0,0.0,0.0,0.0,0.0,0.0,0.0,0.0,0.0,0.0,0.0,0.0,0.0,0.0,0.0,0.0,0.0,0.0,0.0,0.0,0.0,0.0,0.0,0.0,0.0,0.0,0.0,0.0,0.0,0.0,0.0,0.0,0.0,0.0,0.0,0.0,0.0,0.0,0.0,0.0,0.0,0.0,0.0,0.0,0.0,0.0,0.0,0.0,0.0,0.0,0.0,0.0,0.0,0.0,0.0,0.0,0.0,0.0,0.0,0.0,0.0,0.0,0.0,0.0,0.0,0.0,0.0,0.0,0.0,0.0,0.0,0.0,0.0,0.0,0.0,0.0,0.0,0.0,0.0,0.0,0.0,0.0,0.0,0.0,0.0,0.0,0.0,0.0,0.0,0.0,0.0,0.0,0.0,0.0,0.0,0.0,0.0,0.0,0.0,0.0,0.0,0.0,0.0,0.0,0.0,0.0,0.0,0.0,0.0,0.0,0.0,0.0,0.0,0.0,0.0,0.0,0.0,0.0,0.0,0.0,0.0,0.0,0.0,0.0,0.0,0.0,0.0,0.0,0.0,0.0,0.0,0.0,0.0,0.0,0.0,0.0,0.0,0.0,0.0,0.0,0.0,0.0,0.0,0.0,0.0,0.0,0.0,0.0,0.0,0.0,0.0,0.0,0.0,0.0,0.0,0.0,0.0,0.0,0.0,0.0,0.0,0.0,0.0,0.0,0.0,0.0,0.0,0.0,0.0,0.0,0.0,0.0,0.0,0.0,0.0,0.0,0.0,0.0,0.0,0.0,0.0,0.0,0.0,0.0,0.0,0.0,0.0,0.0,0.0,0.0,0.0,0.0,0.0,0.0,0.0,0.0,0.0,0.0,0.0,0.0,0.0,0.0,0.0,0.0,0.0,0.0,0.0,0.0,0.0,0.0,0.0,0.0,0.0,0.0,0.0,0.0,0.0,0.0,0.0,0.0,0.0,0.0,0.0,0.0,0.0,0.0,0.0,0.0,0.0,0.0,0.0,0.0,0.0,0.0,0.0,0.0,0.0,0.0,0.0,0.0,0.0,0.0,0.0,0.0,0.0,0.0,0.0,0.0,0.0,0.0,0.0,0.0,0.0,0.0,0.0,0.0,0.0,0.0,0.0,0.0,0.0,0.0,0.0,0.0,0.0,0.0,0.0,0.0,0.0,0.0,0.0,0.0,0.0,0.0,0.0,0.0,0.0,0.0,0.0,0.0,0.0,0.0,0.0,0.0,0.0,0.0,0.0,0.0,0.0,0.0,0.0,0.0,0.0,0.0,0.0,0.0,0.0,0.0,0.0,0.0,0.0,0.0,0.0,0.0,0.0,0.0,0.0,0.0,0.0,0.0,0.0,0.0,0.0,0.0,0.0,0.0,0.0,0.0,0.0,0.0,0.0,0.0,0.0,0.0,0.0,0.0,0.0,0.0,0.0,0.0,0.0,0.0,0.0,0.0,0.0,0.0,0.0,0.0,0.0,0.0,0.0,0.0,0.0,0.0,0.0,0.0,0.0,0.0,0.0,0.0,0.0,0.0,0.0,0.0,0.0,0.0,0.0,0.0,0.0,0.0,0.0,0.0,0.0,0.0,0.0,0.0,0.0,0.0,0.0,0.0,0.0,0.0,0.0,0.0,0.0,0.0,0.0,0.0,0.0,0.0,0.0,0.0,0.0,0.0,0.0,0.0,0.0,0.0,0.0,0.0,0.0,0.0,0.0,0.0,0.0,0.0,0.0,0.0,0.0,0.0,0.0,0.0,0.0,0.0,0.0,0.0,0.0,0.0,0.0,0.0,0.0,0.0,0.0,0.0,0.0,0.0,0.0,0.0,0.0,0.0,0.0,0.0,0.0,0.0,0.0,0.0,0.0,0.0,0.0,0.0,0.0,0.0,0.0,0.0,0.0,0.0,0.0,0.0,0.0,0.0,0.0,0.0,0.0,0.0,0.0,0.0,0.0,0.0,0.0,0.0,0.0,0.0,0.0,0.0,0.0,0.0,0.0,0.0,0.0,0.0,0.0,0.0,0.0,0.0,0.0,0.0,0.0,0.0,0.0,0.0,0.0,0.0,0.0,0.0,0.0,0.0,0.0,0.0,0.0,0.0,0.0,0.0,0.0,0.0,0.0,0.0,0.0,0.0,0.0,0.0,0.0,0.0,0.0,0.0,0.0,0.0,0.0,0.0,0.0,0.0,0.0,0.0,0.0,0.0,0.0,0.0,0.0,0.0,0.0,0.0,0.0,0.0,0.0,0.0,0.0,0.0,0.0,0.0,0.0,0.0,0.0,0.0,0.0,0.0,0.0,0.0,0.0,0.0,0.0,0.0,0.0,0.0,0.0,0.0,0.0,0.0,0.0,0.0,0.0,0.0,0.0,0.0,0.0,0.0,0.0,0.0,0.0,0.0,0.0,0.0,0.0,0.0,0.0,0.0,0.0,0.0,0.0,0.0,0.0,0.0,0.0,0.0,0.0,0.0,0.0,0.0,0.0,0.0,0.0,0.0,0.0,0.0,0.0,0.0,0.0,0.0,0.0,0.0,0.0,0.0,0.0,0.0,0.0,0.0,0.0,0.0,0.0,0.0,0.0,0.0,0.0,0.0,0.0,0.0,0.0,0.0,0.0,0.0,0.0,0.0,0.0,0.0,0.0,0.0,0.0,0.0,0.0,0.0,0.0,0.0,0.0,0.0,0.0,0.0,0.0,0.0,0.0,0.0,0.0,0.0,0.0,0.0,0.0,0.0,0.0,0.0,0.0,0.0,0.0,0.0,0.0,0.0,0.0,0.0,0.0,0.0,0.0,0.0,0.0,0.0,0.0,0.0,0.0,0.0,0.0,0.0,0.0,0.0,0.0,0.0,0.0,0.0,0.0,0.0,0.0,0.0,0.0,0.0,0.0,0.0,0.0,0.0,0.0,0.0,0.0,0.0,0.0,0.0,0.0,0.0,0.0,0.0,0.0,0.0,0.0,0.0,0.0,0.0,0.0,0.0,0.0,0.0,0.0,0.0,0.0,0.0,0.0,0.0,0.0,0.0,0.0,0.0,0.0,0.0,0.0,0.0,0.0,0.0,0.0,0.0,0.0,0.0,0.0,0.0,0.0,0.0,0.0,0.0,0.0,0.0,0.0,0.0,0.0,0.0,0.0,0.0,0.0,0.0,0.0,0.0,0.0,0.0,0.0,0.0,0.0,0.0,0.0,0.0,0.0,0.0,0.0,0.0,0.0,0.0,0.0,0.0,0.0,0.0,0.0,0.0,0.0,0.0,0.0,0.0,0.0,0.0,0.0,0.0,0.0,0.0,0.0,0.0,0.0,0.0,0.0,0.0,0.0,0.0,0.0,0.0,0.0,0.0,0.0,0.0,0.0,0.0,0.0,0.0,0.0,0.0,0.0,0.0,0.0,0.0,0.0,0.0,0.0,0.0,0.0,0.0,0.0,0.0,0.0,0.0,0.0,0.0,0.0,0.0,0.0,0.0,0.0,0.0,0.0,0.0,0.0,0.0,0.0,0.0,0.0,0.0,0.0,0.0,0.0,0.0,0.0,0.0,0.0,0.0,0.0,0.0,0.0,0.0,0.0,0.0,0.0,0.0,0.0,0.0,0.0,0.0,0.0,0.0,0.0,0.0,0.0,0.0,0.0,0.0,0.0,0.0,0.0,0.0,0.0,0.0,0.0,0.0,0.0,0.0,0.0,0.0,0.0,0.0,0.0,0.0,0.0,0.0,0.0,0.0,0.0,0.0,0.0,0.0,0.0,0.0,0.0,0.0,0.0,0.0,0.0,0.0,0.0,0.0,0.0,0.0,0.0,0.0,0.0,0.0,0.0,0.0,0.0,0.0,0.0,0.0,0.0,0.0,0.0,0.0,0.0,0.0,0.0,0.0,0.0,0.0,0.0,0.0,0.0,0.0,0.0,0.0,0.0,0.0,0.0,0.0,0.0,0.0,0.0,0.0,0.0,0.0,0.0,0.0,0.0,0.0,0.0,0.0,0.0,0.0,0.0,0.0,0.0,0.0,0.0,0.0,0.0,0.0,0.0,0.0,0.0,0.0,0.0,0.0,0.0,0.0,0.0,0.0,0.0,0.0,0.0,0.0,0.0,0.0,0.0,0.0,0.0,0.0,0.0,0.0,0.0,0.0,0.0,0.0,0.0,0.0,0.0,0.0,0.0,0.0,0.0,0.0,0.0,0.0,0.0,0.0,0.0,0.0,0.0,0.0,0.0,0.0,0.0,0.0,0.0,0.0,0.0,0.0,0.0,0.0,0.0,0.0,0.0,0.0,0.0,0.0,0.0,0.0,0.0,0.0,0.0,0.0,0.0,0.0,0.0,0.0,0.0,0.0,0.0,0.0,0.0,0.0,0.0,0.0,0.0,0.0,0.0,0.0,0.0,0.0,0.0,0.0,0.0,0.0,0.0,0.0,0.0,0.0,0.0,0.0,0.0,0.0,0.0,0.0,0.0,0.0,0.0,0.0,0.0,0.0,0.0,0.0,0.0,0.0,0.0,0.0,0.0,0.0,0.0,0.0,0.0,0.0,0.0,0.0,0.0,0.0,0.0,0.0,0.0,0.0,0.0,0.0,0.0,0.0,0.0,0.0,0.0,0.0,0.0,0.0,0.0,0.0,0.0,0.0,0.0,0.0,0.0,0.0,0.0,0.0,0.0,0.0,0.0,0.0,0.0,0.0,0.0,0.0,0.0,0.0,0.0,0.0,0.0,0.0,0.0,0.0,0.0,0.0,0.0,0.0,0.0,0.0,0.0,0.0,0.0,0.0,0.0,0.0,0.0,0.0,0.0,0.0,0.0,0.0,0.0,0.0,0.0,0.0,0.0,0.0,0.0,0.0,0.0,0.0,0.0,0.0,0.0,0.0,0.0,0.0,0.0,0.0,0.0,0.0,0.0,0.0,0.0,0.0,0.0,0.0,0.0,0.0,0.0,0.0,0.0,0.0,0.0,0.0,0.0,0.0,0.0,0.0,0.0,0.0,0.0,0.0,0.0,0.0,0.0,0.0,0.0,0.0,0.0,0.0,0.0,0.0,0.0,0.0,0.0,0.0,0.0,0.0,0.0,0.0,0.0,0.0,0.0,0.0,0.0,0.0,0.0,0.0,0.0,0.0,0.0,0.0,0.0,0.0,0.0,0.0,0.0,0.0,0.0,0.0,0.0,0.0,0.0,0.0,0.0,0.0,0.0,0.0,0.0,0.0,0.0,0.0,0.0,0.0,0.0,0.0,0.0,0.0,0.0,0.0,0.0,0.0,0.0,0.0,0.0,0.0,0.0,0.0,0.0,0.0,0.0,0.0,0.0,0.0,0.0,0.0,0.0,0.0,0.0,0.0,0.0,0.0,0.0,0.0,0.0,0.0,0.0,0.0,0.0,0.0,0.0,0.0,0.0,0.0,0.0,0.0,0.0,0.0,0.0,0.0,0.0,0.0,0.0,0.0,0.0,-0.1463,0.0,0.0,0.0,0.0,0.0,0.0,0.0,0.0,0.0,0.0,0.0,0.0,0.0,0.0,0.0,0.0,0.0,0.0,0.0,0.0,0.0,0.0,0.0,0.0,0.6512,0.6478,0.6187,0.6125,0.6339,0.6962,0.0,0.0,0.0,0.0,0.0,0.7672,0.7672,0.7785,0.8084,0.8084,0.8358,0.8845,0.8845,0.8558,0.8084,0.0,0.0,0.0,0.0,0.0,0.0,0.0,0.0,0.0,0.0,0.0,0.0,0.0,0.0,0.0,0.0,0.0,0.0,0.0,0.0,0.0,0.0,0.0,0.0,0.0,0.0,0.0,0.0,0.0,0.0,0.0,0.0,0.0,0.0,0.0,0.0,0.0,0.0,0.0,0.0,0.0,0.0,0.0,0.0,0.0,0.0,0.0,0.0,0.0,0.0,0.0,0.0,0.0,0.0,0.0,0.0,0.0,0.0,0.0,0.0,0.0,0.0,0.0,0.0,0.0,0.0,0.0,0.0,0.0,0.0,0.0,-0.1502,0.0,0.0,0.0,0.0,0.0,0.0,0.0,0.0,0.0,0.0,0.0,0.0,0.0,0.0,0.0,0.0,0.0,0.0,0.0,0.0,0.0,0.6808,0.6729,0.7088,0.7175,0.6732,0.7204,0.7663,0.7852,0.8028,0.0,0.0,0.0,0.8443,0.8173,0.8199,0.8461,0.899,0.9019,0.9446,1.0358,1.0358,0.9849,0.9038,0.974,0.0,0.0,0.0,0.0,0.0,0.0,0.0,0.0,0.0,0.0,0.0,0.0,0.0,0.0,0.0,0.0,0.0,0.0,0.0,0.0,0.0,0.0,0.0,0.0,0.0,0.0,0.0,0.0,0.0,0.0,0.0,0.0,0.0,0.0,0.0,0.0,0.0,0.0,0.0,0.0,0.0,0.0,0.0,0.0,0.0,0.0,0.0,0.0,0.0,0.0,0.0,0.0,0.0,0.0,0.0,0.0,0.0,0.0,0.0,0.0,0.0,0.0,0.0,0.0,0.0994,0.0894,0.1492,0.1492,0.0993,-0.0391,-0.1257,-0.1631,0.0,0.0,0.0,0.0,0.0,0.0,0.0,0.0,0.0,0.0,0.0,0.0,0.0,0.0,0.0,0.0,0.0,0.0,0.0,0.0,0.7741,0.8978,0.8169,0.7812,0.8636,0.8094,0.786,0.8122,0.8783,0.9124,0.8974,0.9617,0.9907,0.9666,0.9865,1.0037,1.0084,1.0285,1.0402,1.0595,1.0595,1.0493,1.038,1.0461,1.0461,1.038,0.0,0.0,0.0,0.0,0.0,0.0,0.0,0.0,0.0,0.0,0.0,0.0,0.0,0.0,0.0,0.0,0.0,0.0,0.0,0.0,0.0,0.0,0.0,0.0,0.0,0.0,0.0,0.0,0.0,0.0,0.0,0.0,0.0,0.0,0.0,0.0,0.0,0.0,0.0,0.0,0.0,0.4903,0.4813,0.0,0.0,0.0,0.0,0.0,0.0,0.0,0.0,0.0,0.0,0.0,0.0,0.0,0.0,0.4399,0.3859,0.3483,0.3491,0.2817,0.2521,0.2521,0.2626,0.2838,0.3048,0.1571,0.0,-0.1568,-0.1594,0.0,0.0,0.0,0.0,0.0,0.0,0.0,0.0,0.0,0.0,0.0,0.0,0.0,0.0,0.0,0.0,0.0,0.0,0.0,0.0,0.0,0.8665,0.8356,0.8365,0.8551,0.8729,0.8901,0.9644,1.0009,0.9917,1.0237,1.0433,1.0326,1.0433,1.0487,1.0487,1.0713,1.0907,1.1036,1.1176,1.1305,1.1424,1.1424,1.1133,1.0638,1.0638,0.0,0.0,0.0,0.0,0.0,0.0,0.0,0.0,0.0,0.0,0.0,0.0,0.0,0.0,0.0,0.0,0.0,0.0,0.0,0.0,0.0,0.0,0.0,0.0,0.0,0.0,0.0,0.0,0.0,0.0,0.0,0.0,0.0,0.0,0.0,0.0,0.0,0.0,0.0,0.5323,0.5245,0.5435,0.5276,0.5227,0.0,0.0,0.0,0.0,0.0,0.0,0.0,0.0,0.0,0.5454,0.5616,0.5565,0.5507,0.5231,0.5043,0.5043,0.4763,0.4567,0.4567,0.4567,0.4355,0.4037,0.4146,0.3252,0.1643,0.1139,-0.0103,-0.1437,0.0,0.0,0.0,0.0,0.0,-0.0104,0.0,0.0,0.0,0.0,0.0,0.0,0.0,0.0,0.0,0.0,0.0,0.0,0.9066,0.9077,0.8965,0.8676,0.9252,0.9745,0.9814,1.0345,1.0659,1.0724,1.0724,1.0756,1.0821,1.0875,1.0939,1.0993,1.1165,1.1381,1.1628,1.1801,1.2005,1.2324,1.2167,1.1682,1.0907,1.0907,1.0875,1.0821,0.0,0.0,0.0,0.0,0.0,0.0,0.0,0.0,0.0,0.0,0.0,0.0,0.0,0.0,0.0,0.0,0.0,0.0,0.0,0.0,0.0,0.0,0.0,0.0,0.0,0.0,0.0,0.0,0.0,0.0,0.0,0.0,0.0,0.0,0.0,0.0,0.0,0.5624,0.5501,0.5717,0.5675,0.5636,0.0,0.0,0.0,0.0,0.0,0.0,0.5404,0.5955,0.6147,0.5836,0.6123,0.6177,0.6105,0.6129,0.6266,0.6182,0.632,0.6335,0.6335,0.6335,0.5895,0.5239,0.6231,0.6013,0.5013,0.4176,0.2653,0.0637,0.0637,0.0425,0.0,0.0,0.0,0.0,0.0,0.0,0.0,0.0,0.0,0.0,0.0,0.0,0.0,0.0,0.0,0.8291,1.0016,0.9556,0.9567,1.0741,1.0674,1.0642,1.0867,1.0756,1.0735,1.0961,1.0961,1.1079,1.1219,1.1532,1.1758,1.1973,1.2075,1.2124,1.2361,1.2371,1.2501,1.2716,1.2501,1.2113,1.1639,1.1639,1.1521,1.123,1.123,0.0,0.0,0.0,0.0,0.0,0.0,0.0,0.0,0.0,0.0,0.0,0.0,0.0,0.0,0.0,0.0,0.0,0.0,0.0,0.0,0.0,0.0,0.0,0.0,0.0,0.0,0.0,0.0,0.0,0.0,0.0,0.0,0.0,0.0,0.0,0.0,0.0,0.0,0.6236,0.6154,0.0,0.0,0.0,0.0,0.6169,0.6195,0.6241,0.6343,0.6358,0.6263,0.5946,0.6056,0.611,0.6216,0.6533,0.6751,0.6863,0.7196,0.7481,0.7481,0.7481,0.7364,0.7364,0.7364,0.7364,0.7217,0.7013,0.694,0.6722,0.6733,0.394,0.0,0.0,0.0,0.0,0.0,0.0,0.0,0.0,0.0,0.8915,0.9055,0.9143,0.9322,0.9702,0.9545,0.9564,1.0204,1.0311,1.0408,1.0756,1.0821,1.0767,1.0552,1.0746,1.0832,1.0767,1.1058,1.1327,1.1564,1.1801,1.2038,1.2285,1.2436,1.263,1.2867,1.3028,1.3147,1.3222,1.3136,1.292,1.2576,1.2113,1.1876,1.1801,1.1801,1.1801,0.0,0.0,0.0,0.0,0.0,0.0,0.0,0.0,0.0,0.0,0.0,0.0,0.0,0.0,0.0,0.0,0.0,0.0,0.0,0.0,0.0,0.0,0.0,0.0,0.0,0.0,0.0,0.0,0.0,0.0,0.0,0.0,0.0,0.0,0.0,0.0,0.0,0.6263,0.6366,0.0,0.0,0.6277,0.6225,0.6312,0.6213,0.6128,0.6162,0.6516,0.6593,0.6488,0.6847,0.6945,0.6987,0.7143,0.7338,0.7455,0.7616,0.7676,0.7747,0.7747,0.7747,0.7741,0.7665,0.7638,0.7616,0.7492,0.7387,0.7392,0.7398,0.5302,0.2117,0.0559,0.0,0.0,0.0,0.0,0.0,0.0,0.8617,0.8779,0.9292,0.9093,0.917,0.9937,0.9953,1.0032,1.0509,1.0799,1.095,1.0885,1.0939,1.0885,1.067,1.0864,1.1025,1.1112,1.1575,1.1941,1.2167,1.2328,1.2522,1.277,1.2931,1.3125,1.3351,1.3513,1.3642,1.3717,1.3631,1.3502,1.3308,1.2759,1.2393,1.2167,1.2173,1.214,1.2118,0.0,0.0,0.0,0.0,0.0,0.0,0.0,0.0,0.0,0.0,0.0,0.0,0.0,0.0,0.0,0.0,0.0,0.0,0.0,0.0,0.0,0.0,0.0,0.0,0.0,0.0,0.0,0.0,0.0,0.0,0.0,0.0,0.0,0.0,0.0,0.6184,0.6388,0.6562,0.6681,0.6681,0.6542,0.651,0.6695,0.6383,0.631,0.6493,0.6857,0.7074,0.7111,0.738,0.7616,0.7698,0.7698,0.7763,0.7883,0.7883,0.7921,0.7992,0.7992,0.7992,0.7992,0.7915,0.7883,0.7877,0.7669,0.7637,0.7621,0.7589,0.642,0.4732,0.3005,0.1952,0.1365,0.0,0.0,0.0,0.8751,0.8423,0.836,0.9467,0.8412,0.8231,1.0027,0.9665,0.9667,1.0845,1.0993,1.109,1.123,1.1133,1.109,1.1241,1.1133,1.1327,1.2129,1.2522,1.2877,1.3104,1.3114,1.3243,1.3491,1.3491,1.361,1.3836,1.3836,1.3965,1.418,1.3943,1.3836,1.3814,1.3588,1.3093,1.2436,1.2188,1.2173,1.2173,0.0,0.0,0.0,0.0,0.0,0.0,0.0,0.0,0.0,0.0,0.0,0.0,0.0,0.0,0.0,0.0,0.0,0.0,0.0,0.0,0.0,0.0,0.0,0.0,0.0,0.0,0.0,0.0,0.0,0.0,0.0,0.0,0.0,0.6464,0.6551,0.6627,0.6627,0.6736,0.6812,0.6812,0.6606,0.67,0.7149,0.6953,0.7053,0.7513,0.7529,0.7589,0.7709,0.7714,0.7828,0.8057,0.8057,0.8122,0.8242,0.8242,0.8242,0.8247,0.8247,0.8247,0.8247,0.8114,0.8108,0.8108,0.7975,0.7847,0.7933,0.7611,0.7551,0.7551,0.7322,0.589,0.3995,0.0,0.0,0.8385,0.8818,0.8423,0.836,0.9467,0.9074,0.9018,1.0126,1.0423,1.0584,1.0972,1.1144,1.1209,1.109,1.1187,1.1209,1.109,1.151,1.1995,1.2544,1.2856,1.3039,1.3104,1.3287,1.3491,1.3728,1.3728,1.3857,1.4094,1.4094,1.4126,1.4191,1.4126,1.4094,1.4073,1.3825,1.361,1.3394,1.2985,1.2813,1.278,0.0,0.0,0.0,0.0,0.0,0.0,0.0,0.0,0.0,0.0,0.0,0.0,0.0,0.0,0.0,0.0,0.0,0.0,0.0,0.0,0.0,0.0,0.0,0.0,0.0,0.0,0.0,0.0,0.0,0.0,0.0,0.0,0.6741,0.6709,0.673,0.6752,0.6752,0.6931,0.7056,0.7056,0.7107,0.7231,0.7415,0.7386,0.7466,0.7649,0.7812,0.7921,0.7959,0.804,0.8122,0.8187,0.8187,0.8247,0.8367,0.8367,0.841,0.8492,0.8492,0.8492,0.8486,0.8405,0.8367,0.8361,0.814,0.8103,0.8092,0.7838,0.7862,0.7787,0.7793,0.7327,0.6817,0.0,0.7588,0.8666,0.8548,0.8,0.7979,0.9089,0.8875,0.9044,1.0264,1.0756,1.1025,1.1122,1.1262,1.1338,1.1284,1.1413,1.1521,1.1575,1.2059,1.2511,1.2888,1.3028,1.32,1.3394,1.3545,1.3782,1.4116,1.4116,1.4245,1.4482,1.4482,1.4482,1.4482,1.4482,1.4482,1.4471,1.4331,1.4213,1.4083,1.3706,1.3437,1.3222,1.2845,1.2705,1.2673,1.2436,1.235,1.235,1.235,0.0,0.0,0.0,0.0,0.0,0.0,0.0,0.0,0.0,0.0,0.0,0.0,0.0,0.0,0.0,0.0,0.0,0.0,0.0,0.0,0.0,0.0,0.0,0.0,0.6877,0.6915,0.7013,0.698,0.6948,0.6948,0.716,0.7328,0.7377,0.7513,0.7638,0.7736,0.7807,0.7872,0.7921,0.8057,0.8155,0.8204,0.8274,0.8334,0.8383,0.8383,0.8443,0.8568,0.8568,0.8628,0.8742,0.8742,0.8742,0.0,0.8531,0.8478,0.8424,0.8355,0.8296,0.0,0.0,0.0,0.0,0.0,0.7926,0.7932,0.6465,0.775,0.8586,0.8112,0.7445,0.7335,0.8514,0.8191,0.8471,1.0363,1.0864,1.1112,1.1241,1.1241,1.1413,1.1671,1.1704,1.1919,1.2425,1.2673,1.2888,1.3093,1.3157,1.3383,1.3814,1.3879,1.4105,1.4536,1.4557,1.4676,1.488,1.488,1.488,1.488,1.488,1.488,1.488,1.488,1.4762,1.4557,1.4352,1.3965,1.3491,1.3243,1.3147,1.3114,1.2888,1.2802,1.2802,1.277,0.0,0.0,0.0,0.0,0.0,0.0,0.0,0.0,0.0,0.0,0.0,0.0,0.0,0.0,0.0,0.0,0.0,0.0,0.0,0.0,0.0,0.0,0.0,0.0,0.7024,0.7105,0.7323,0.7285,0.723,0.722,0.7421,0.7611,0.7747,0.7763,0.7856,0.8079,0.8095,0.8144,0.8253,0.0,0.0,0.0,0.0,0.8513,0.8628,0.8628,0.8682,0.8791,0.8791,0.8845,0.8809,0.8809,0.8809,0.8809,0.867,0.8607,0.8649,0.8649,0.859,0.8606,0.8102,0.814,0.8274,0.8258,0.8124,0.0,0.7055,0.7626,0.7903,0.7972,0.6944,0.6746,0.8438,0.8383,0.8702,1.0384,1.1015,1.1295,1.1262,1.1176,1.123,1.1661,1.1704,1.1984,1.2651,1.291,1.306,1.3104,1.348,1.3728,1.3814,1.4202,1.4439,1.4536,1.4729,1.4837,1.488,1.488,1.488,1.488,1.488,1.488,1.488,1.488,1.4859,1.4815,1.4772,1.4352,1.3728,1.3491,1.3405,1.3373,1.3125,1.3039,1.3007,1.2824,1.263,1.2404,1.2404,1.1706,0.0,0.0,0.0,0.0,0.0,0.0,0.0,0.0,0.0,0.0,0.0,0.0,0.0,0.0,0.0,0.0,0.0,0.0,0.0,0.7236,0.7269,0.7317,0.7464,0.7627,0.7698,0.7606,0.772,0.7888,0.8111,0.8133,0.8193,0.8334,0.835,0.8356,0.8383,0.847,0.0,0.8698,0.8704,0.8758,0.8878,0.8883,0.8894,0.8777,0.0,0.0,0.8809,0.8809,0.8809,0.8809,0.8809,0.8793,0.8634,0.8634,0.8623,0.8576,0.8478,0.8519,0.8508,0.8552,0.8513,0.8502,0.7456,0.7777,0.7818,0.7495,0.7008,0.7019,0.8121,0.823,0.8855,1.0542,1.1122,1.1262,1.1262,1.1241,1.1359,1.1833,1.2091,1.2382,1.2737,1.2974,1.3157,1.3287,1.3631,1.3933,1.4169,1.4417,1.4654,1.4891,1.5009,1.5128,1.5246,1.5246,1.5246,1.5246,1.5246,1.5246,1.5246,1.5246,1.5171,1.5063,1.5063,1.4708,1.4148,1.3922,1.376,1.362,1.3373,1.3287,1.3254,1.3017,1.2931,1.291,1.2802,1.2541,1.2033,0.0,0.0,0.0,0.0,0.0,0.0,0.0,0.0,0.0,0.0,0.0,0.0,0.0,0.0,0.6997,0.7056,0.0,0.7198,0.7317,0.7388,0.7491,0.7671,0.7796,0.785,0.7796,0.7943,0.8122,0.8307,0.8329,0.8378,0.8492,0.8557,0.8595,0.8595,0.8704,0.8796,0.8861,0.8861,0.8889,0.8954,0.8954,0.8981,0.89,0.89,0.9073,0.9128,0.9128,0.9128,0.9128,0.9128,0.9095,0.8895,0.8976,0.8954,0.8938,0.8955,0.8866,0.8536,0.8617,0.8557,0.8629,0.7518,0.766,0.7593,0.6985,0.6954,0.7142,0.7478,0.7886,0.8808,1.0523,1.1027,1.1262,1.1262,1.1305,1.1467,1.1941,1.2457,1.2759,1.2759,1.3017,1.3265,1.347,1.3739,1.4094,1.4525,1.4579,1.4815,1.5246,1.53,1.5418,1.5601,1.5601,1.5601,1.5601,1.5601,1.5601,1.5601,1.5601,1.5612,1.5544,1.5322,1.5145,1.48,1.4505,1.4148,1.3868,1.3631,1.3545,1.3502,1.3254,1.3179,1.3147,1.2964,1.3028,1.2978,1.2163,1.2079,0.0,0.0,0.0,0.0,0.0,0.0,0.0,0.0,0.0,0.8412,0.7231,0.7089,0.716,0.7187,0.7269,0.735,0.7399,0.7508,0.766,0.7877,0.7948,0.7975,0.7975,0.8149,0.8329,0.8475,0.8465,0.8508,0.8649,0.8725,0.878,0.8802,0.8899,0.8965,0.8986,0.8986,0.9008,0.9057,0.9057,0.9117,0.9093,0.9093,0.9141,0.9227,0.9227,0.9227,0.9227,0.9227,0.9323,0.9231,0.9275,0.9366,0.9344,0.9344,0.9109,0.8697,0.8676,0.8606,0.8655,0.0,0.6472,0.6345,0.6927,0.6056,0.5599,0.6444,0.7481,0.8561,0.9592,1.0675,1.1262,1.1262,1.1155,1.1219,1.1693,1.2371,1.2759,1.2759,1.319,1.3448,1.348,1.3911,1.4277,1.4525,1.474,1.4977,1.5246,1.5461,1.5569,1.5601,1.5601,1.5601,1.5601,1.5601,1.5601,1.5601,1.5601,1.6053,1.6727,1.5913,1.5732,1.6063,1.5142,1.4536,1.4116,1.3868,1.3782,1.375,1.3513,1.3437,1.3437,1.3405,1.3416,1.3437,1.3335,1.3346,1.3265,1.3162,1.3309,1.3141,1.2183,1.2005,1.1584,0.0,0.0,0.8562,0.7465,0.7143,0.7187,0.7296,0.7328,0.741,0.7627,0.7758,0.7877,0.8013,0.822,0.8356,0.8356,0.8383,0.8486,0.8709,0.8633,0.8666,0.8894,0.8823,0.8818,0.8927,0.8943,0.9003,0.9111,0.9111,0.9215,0.9427,0.9427,0.9339,0.9303,0.9303,0.9313,0.9324,0.9324,0.9324,0.9324,0.9324,0.9318,0.9303,0.9292,0.9371,0.9275,0.9275,0.9291,0.9225,0.8692,0.8783,0.8894,0.0,0.6328,0.6455,0.6557,0.6123,0.5937,0.6559,0.7542,0.8604,0.9591,1.0671,1.1262,1.1262,1.1499,1.1682,1.1887,1.2425,1.2759,1.2759,1.3071,1.333,1.347,1.3803,1.4148,1.4525,1.4902,1.5149,1.5246,1.5623,1.5731,1.5601,1.5601,1.5601,1.5601,1.5601,1.5601,1.5601,1.5601,1.5828,1.6172,1.5568,1.5412,1.5423,1.4841,1.4482,1.418,1.4073,1.404,0.0,1.376,1.3674,1.3653,1.3523,1.3566,1.3674,1.3674,1.3782,1.389,1.389,1.3965,1.3933,0.0,1.3352,1.2871,1.0453,0.9904,0.9382,0.7578,0.7258,0.7296,0.7421,0.7502,0.7606,0.0,0.7899,0.8046,0.8236,0.8356,0.8443,0.8508,0.8519,0.8557,0.8655,0.8682,0.8736,0.884,0.8932,0.9003,0.9057,0.9122,0.9215,0.9334,0.934,0.9421,0.959,0.9595,0.9617,0.9516,0.9516,0.9666,0.9671,0.9671,0.9671,0.9671,0.9671,0.9671,0.9671,0.9671,0.9639,0.9744,0.9441,0.9234,0.9264,0.9013,0.9014,0.9087,0.0,0.605,0.6236,0.62,0.6009,0.5956,0.6401,0.7424,0.8546,0.9365,1.0559,1.1262,1.1262,1.1768,1.214,1.214,1.249,1.2759,1.2759,1.2974,1.319,1.3362,1.3663,1.4019,1.4428,1.4848,1.5117,1.5246,1.5591,1.5698,1.5601,1.5601,1.5601,1.5601,1.5601,1.5601,1.5601,1.5601,1.5677,1.5836,1.5438,1.5178,1.5098,1.4711,1.4396,1.4191,1.4191,1.4191,1.4169,1.3986,1.3922,1.389,1.3728,1.3793,1.3922,1.3922,1.4051,1.4191,1.4191,1.4191,0.0,1.4191,1.4191,1.3661,1.1726,1.1296,1.0572,0.8382,0.7841,0.7766,0.7546,0.7665,0.7785,0.7899,0.8051,0.8214,0.8394,0.8443,0.8497,0.8579,0.8617,0.8638,0.8638,0.872,0.8796,0.8867,0.9035,0.916,0.9226,0.9307,0.941,0.9536,0.9536,0.9595,0.9715,0.9715,0.9731,0.9764,0.9764,0.9921,1.0072,1.0072,1.0072,1.0072,1.0072,1.0072,1.0072,1.0072,1.0056,1.0022,0.9564,0.9543,0.9484,0.9523,0.9352,0.9236,0.0,0.0,0.5168,0.606,0.555,0.5094,0.5416,0.7012,0.8296,0.8495,1.0125,1.1262,1.1262,1.1768,1.214,1.214,1.249,1.2759,1.2759,1.2974,1.3104,1.3114,1.3566,1.3943,1.4202,1.4439,1.4783,1.5246,1.5268,1.5386,1.5601,1.5601,1.5601,1.5601,1.5601,1.5601,1.5601,1.5601,1.5931,1.6518,1.5594,1.541,1.5736,1.4867,1.4396,1.4191,1.4191,1.4191,1.4191,1.4191,1.418,1.418,1.4169,1.418,0.0,1.418,1.4191,1.4191,1.4191,0.0,1.4191,1.4191,1.4191,1.3919,1.2913,1.2729,1.2114,0.9788,0.9354,0.9059,0.7909,0.779,0.7905,0.803,0.8253,0.841,0.8416,0.8513,0.8584,0.859,0.8693,0.8764,0.0,0.8769,0.8867,0.9106,0.9128,0.9237,0.9465,0.9481,0.9536,0.9661,0.9511,0.9564,0.9829,0.9676,0.9735,1.0008,1.0008,1.0008,1.0008,1.0008,1.0008,1.0008,1.0008,1.0008,1.0008,1.0008,0.9943,0.9987,0.9987,0.9921,0.9972,0.996,0.9728,0.9286,0.0,0.0,0.0,0.0,0.0,0.5099,0.5333,0.644,0.7545,0.8408,0.9593,0.0,0.0,0.0,0.0,0.0,1.249,1.2759,1.2759,1.2834,1.2942,1.3093,1.3254,1.3534,1.3943,1.4331,1.4611,1.4772,1.5095,1.5203,1.5128,1.5128,1.5128,1.5128,1.5128,1.5128,1.5128,1.5128,1.5303,1.5443,1.495,1.4787,1.4955,1.4473,1.4266,1.4191,0.0,1.4191,1.4191,1.4191,1.4191,1.4191,1.4191,1.4191,1.4223,1.4374,1.4309,1.4256,1.4568,0.0,1.446,1.4611,1.4654,1.433,1.3267,1.2947,1.2539,1.1105,1.0911,1.076,1.0686,0.9924,0.9417,0.9653,0.9004,0.8443,0.8519,0.8562,0.8617,0.8698,0.8747,0.0,0.0,0.0,0.0,0.9128,0.928,0.94,0.9481,0.9563,0.9661,0.9775,0.978,0.9835,0.9954,0.996,0.9981,1.0019,1.0019,1.0019,1.0019,1.0019,1.0019,1.0019,1.0019,1.0019,1.0019,1.0019,0.9998,0.996,0.996,0.9938,1.0048,0.9965,0.991,0.9699,0.0,0.0,0.0,0.0,0.0,0.0,0.0,0.0,0.0,0.0,0.0,0.0,0.0,0.0,0.0,0.0,0.0,1.2759,1.2759,1.2759,1.2824,1.2974,1.306,1.3243,1.3556,1.3954,1.4202,1.4277,1.4589,1.474,1.4762,1.4762,1.4805,1.488,1.488,1.488,1.488,1.488,1.4837,1.4751,1.46,1.4482,1.4396,1.4256,1.4191,0.0,1.4191,1.4245,1.4299,1.4223,1.4245,1.432,1.432,1.4374,1.4471,1.4622,1.4557,1.4503,1.4805,1.4772,1.4697,1.4848,1.488,1.4675,1.4063,1.3854,1.3567,1.2587,1.2447,1.2329,1.2094,1.0996,1.0376,1.1092,1.0136,0.9294,0.9371,0.9424,0.9215,0.8894,0.8845,0.8965,0.0,0.0,0.0,0.9258,0.94,0.9525,0.9606,0.9688,0.9786,0.99,0.99,0.9938,1.0019,1.0019,1.0019,1.0019,1.0019,1.0019,1.0019,1.0019,1.0019,1.0019,1.0019,1.0019,1.0019,1.0019,1.0019,1.0019,1.0019,1.0019,1.0008,0.9932,1.0059,1.0037,0.0,0.0,0.0,0.0,0.0,0.0,0.0,0.0,0.0,0.0,0.0,0.0,0.0,0.0,0.0,0.0,0.0,0.0,1.2759,1.2759,1.2759,1.2759,1.2974,1.3093,1.3104,1.334,1.3577,1.3803,1.3814,1.4051,1.4492,1.4514,1.4632,1.4848,1.4848,1.4848,1.4848,1.4848,1.4719,1.4514,1.4514,1.4385,1.4191,1.4191,1.4202,1.4213,1.4213,1.4363,1.4514,1.4288,1.4363,1.4546,1.4536,1.4697,1.4891,1.4902,1.4891,1.4891,1.4912,1.4912,1.4902,1.4912,1.4923,1.4977,1.5214,1.5278,1.4993,1.4004,1.3965,1.3741,0.0,0.0,1.0991,1.2427,1.1526,1.0571,1.0578,1.0705,1.0264,0.0,0.0,0.0,0.0,0.0,0.0,0.9503,0.0,0.9601,0.9824,0.9845,0.99,1.0014,1.0019,1.0019,1.0019,1.0019,1.0019,1.0019,1.0019,1.0019,1.0019,1.0019,1.0019,1.0019,1.0019,1.0019,1.0019,1.0019,1.0019,1.0019,1.0019,1.0019,1.0019,1.0019,1.0019,0.9987,0.0,0.0,0.0,0.0,0.0,0.0,0.0,0.0,0.0,0.0,0.0,0.0,0.0,0.0,0.0,0.0,0.0,0.0,1.2759,1.2759,1.2759,1.2759,1.2824,1.2931,1.3104,1.3168,1.3319,1.3566,1.3739,1.3879,1.4008,1.4191,1.4309,1.4374,1.4374,1.4374,1.4374,1.4374,1.4331,1.4288,1.4288,1.4245,1.4191,1.4191,1.4299,1.4449,1.4449,1.46,1.4762,0.0,0.0,0.0,0.0,1.4697,1.4923,1.5106,1.5031,1.4966,1.5322,1.5289,1.5203,1.5375,1.5418,1.5429,1.5494,1.5645,1.5664,1.5476,1.5554,1.5639,0.0,0.0,0.0,1.271,1.067,0.0,0.925,0.929,0.0,0.9019,0.0,0.9204,0.9378,0.9454,0.0,0.0,0.9748,0.9775,0.9835,0.9927,0.9987,1.0019,1.0019,1.0019,1.0019,1.0019,1.0019,1.0019,1.0019,1.0019,1.0019,1.0019,1.0019,1.0019,1.0019,1.0019,1.0019,1.0019,1.0019,1.0019,1.0019,1.0019,1.0019,1.0019,1.0019,1.0014,0.0,0.0,0.0,0.0,0.0,0.0,0.0,0.0,0.0,0.0,0.0,0.0,0.0,0.0,0.0,0.0,0.0,0.0,0.0,1.2759,1.2759,1.2759,1.2759,1.2824,1.2953,1.2953,1.3071,1.3319,1.334,1.3513,1.3814,1.3857,1.3997,1.4191,1.4191,1.4191,1.4191,1.4191,1.4191,0.0,0.0,1.4191,1.4191,1.4191,1.4331,1.4536,1.4536,1.4751,0.0,0.0,0.0,1.5042,1.5009,1.5095,1.5225,1.5365,0.0,1.5257,1.5526,1.5505,1.544,1.5569,1.5677,1.5752,1.5752,1.5935,1.6108,1.6108,1.6301,0.0,0.0,0.0,0.0,0.0,0.0,0.0,0.9697,0.9763,0.9601,0.0,0.9226,0.0,0.9476,0.9579,0.9693,0.0,0.9835,0.9862,0.9916,0.9981,1.0019,1.0019,1.0019,1.0019,1.0019,1.0019,1.0019,1.0019,1.0019,1.0019,1.0019,1.0019,1.0019,1.0019,0.0,1.0019,1.0019,1.0019,1.0019,1.0019,1.0019,1.0019,1.0019,1.0019,1.0019,1.0019,0.0,0.0,0.0,0.0,0.0,0.0,0.0,0.0,0.0,0.0,0.7041,0.7401,0.0,0.0,0.0,0.0,0.0,0.0,0.0,0.0,1.2759,1.2759,1.2759,1.2759,1.2759,1.2759,1.2856,1.306,1.2888,1.3125,1.3717,1.3556,1.3717,1.4148,1.4148,1.4159,1.4191,1.4191,1.4191,1.4191,1.4191,1.4191,1.4191,0.0,0.0,1.4546,1.4611,0.0,0.0,0.0,1.53,1.5322,1.5494,1.5569,1.5601,1.5601,1.5601,1.5601,1.5601,1.5623,1.5645,1.5645,1.5817,1.6,1.6,1.6183,1.6366,1.6366,0.0,1.671,1.671,1.478,1.3456,1.4511,0.0,1.0898,1.067,1.0926,1.0664,0.9303,0.9362,0.9497,0.953,0.972,0.9845,0.9862,0.9862,0.9905,1.0014,1.0019,1.0019,1.0019,1.0019,1.0019,1.0019,1.0019,1.0019,1.0019,1.0019,1.0019,1.0019,1.0019,1.0019,1.0019,0.0,0.0,1.0019,1.0019,1.0019,1.0019,1.0019,1.0019,1.0019,1.0019,1.0019,1.0019,0.0,0.0,0.0,0.0,0.0,0.0,0.0,0.0,0.0,0.0,0.6543,0.6877,0.0,0.0,0.0,0.0,0.0,0.0,0.0,0.0,0.0,1.2759,1.2759,1.2759,1.2759,1.2759,1.278,0.0,0.0,1.3104,1.3233,1.3405,1.362,1.389,1.389,1.3997,1.4191,1.4191,1.4191,1.4191,1.4191,1.4191,1.4191,1.4191,0.0,0.0,0.0,0.0,0.0,0.0,1.5537,1.5515,1.5354,1.544,1.5601,1.5601,1.5601,1.5601,1.5601,1.5741,1.5881,1.5881,1.6075,1.6247,1.6247,1.6431,0.0,0.0,1.6786,1.6947,1.6947,1.5664,1.425,1.3325,0.0,0.0,0.0,0.0,1.0735,0.0,0.0,0.0,0.0,0.0,0.0,0.0,0.0,0.0,1.0019,1.0019,1.0019,1.0019,1.0019,1.0019,1.0019,1.0019,1.0019,1.0019,1.0019,1.0019,1.0019,1.0019,1.0019,1.0019,0.0,0.0,1.0019,1.0019,1.0019,1.0019,1.0019,1.0019,1.0019,1.0019,1.0019,1.0019,0.0,0.0,0.0,0.0,0.0,0.0,0.0,0.529,0.5415,0.5448,0.6005,0.6346,0.6435,0.6496,0.6944,0.0,0.0,0.0,0.0,0.0,0.0,0.0,0.0,0.0,0.0,0.0,0.0,0.0,0.0,0.0,0.0,0.0,0.0,0.0,0.0,0.0,1.4008,1.4137,1.4191,1.4191,1.4191,1.4191,0.0,0.0,0.0,0.0,0.0,0.0,0.0,0.0,1.5601,1.558,1.5472,1.5505,1.5601,1.5601,1.5601,1.5623,1.5752,1.586,1.5978,1.6108,1.6323,1.6495,1.6495,0.0,0.0,0.0,1.6926,1.7001,1.7001,0.0,0.0,0.0,0.0,0.0,0.0,0.0,0.0,0.0,0.0,0.0,0.0,0.0,0.0,0.0,0.0,0.0,1.0019,1.0019,1.0019,1.0019,1.0019,1.0019,1.0019,1.0019,1.0019,1.0019,1.0019,1.0019,1.0019,1.0019,1.0019,1.0019,1.0019,0.0,1.0019,1.0019,1.0019,1.0019,1.0019,1.0019,1.0019,1.0019,1.0019,1.0019,0.0,0.0,0.0,0.0,0.0,0.0,0.5137,0.5252,0.5366,0.5458,0.56,0.5957,0.6656,0.6157,0.64,0.0,0.0,0.0,0.0,0.0,0.0,0.0,0.0,0.0,0.0,0.0,0.0,0.0,0.0,0.0,0.0,0.0,0.0,0.0,0.0,0.0,0.0,0.0,1.4116,0.0,0.0,0.0,0.0,0.0,0.0,0.0,0.0,0.0,0.0,0.0,1.5601,1.5601,1.5601,1.5601,1.5601,1.5601,1.5634,1.572,1.5903,1.6021,1.6151,1.6344,1.656,1.6732,1.6732,1.6872,0.0,0.0,1.7001,1.7001,1.7001,0.0,0.0,0.0,0.0,0.0,0.0,0.0,0.0,0.0,0.0,0.0,0.0,0.0,0.0,0.0,0.0,0.0,1.0019,1.0019,1.0019,1.0019,1.0019,1.0019,1.0019,1.0019,1.0019,1.0019,1.0019,1.0019,1.0019,1.0019,1.0019,1.0019,1.0019,0.0,0.0,1.0019,1.0019,1.0019,1.0019,1.0019,1.0019,1.0019,1.0019,1.0019,0.0,0.0,0.0,0.0,0.0,0.0,0.5029,0.5132,0.5208,0.5219,0.5426,0.5567,0.5653,0.5665,0.5869,0.0,0.0,0.0,0.0,0.0,0.0,0.0,0.0,0.0,0.0,0.0,0.0,0.0,0.0,0.0,0.0,0.0,0.0,0.0,0.0,0.0,0.0,0.0,0.0,0.0,0.0,0.0,0.0,0.0,0.0,0.0,0.0,0.0,0.0,0.0,0.0,1.5601,1.5601,1.5601,1.5601,1.5601,0.0,0.0,1.5946,1.6269,1.6603,1.6624,1.6797,1.6969,1.6969,0.0,0.0,1.7001,1.7001,1.7001,1.7001,0.0,0.0,0.0,0.0,1.5308,0.0,0.0,0.0,0.0,0.0,0.0,0.0,0.0,0.0,0.0,0.0,0.0,0.0,1.0019,1.0019,1.0019,1.0019,1.0019,1.0019,1.0019,1.0019,1.0019,1.0019,1.0019,1.0019,1.0019,1.0019,1.0019,0.0,0.0,0.0,1.0019,1.0019,1.0019,1.0019,1.0019,1.0019,1.0019,1.0019,1.0019,0.0,0.0,0.0,0.0,0.0,0.0,0.5018,0.511,0.5186,0.5186,0.5333,0.5469,0.5454,0.5507,0.567,0.579,0.0,0.0,0.0,0.0,0.0,0.0,0.0,0.0,0.0,0.0,0.0,0.0,0.0,0.0,0.0,0.0,0.0,0.0,0.0,0.0,0.0,0.0,0.0,0.0,0.0,0.0,0.0,0.0,0.0,0.0,0.0,0.0,0.0,0.0,0.0,0.0,1.5601,1.5698,0.0,0.0,1.5763,1.5978,1.6129,1.6409,1.67,1.6829,1.6937,1.7001,1.7001,0.0,1.7001,1.7001,1.7001,1.7001,1.7001,1.7001,0.0,0.0,1.6613,0.0,1.3968,0.0,0.0,0.0,0.0,0.0,0.0,0.0,0.0,0.0,0.0,0.0,0.0,1.0019,1.0019,1.0019,1.0019,1.0019,1.0019,1.0019,1.0019,1.0019,1.0019,1.0019,1.0019,1.0019,1.0019,1.0019,0.0,0.0,0.0,1.0019,1.0019,1.0019,1.0019,1.0019,1.0019,1.0019,1.0019,1.0019,0.0,0.0,0.0,0.0,0.0,0.5018,0.5018,0.5083,0.5137,0.5137,0.5241,0.5349,0.5431,0.5474,0.5545,0.567,0.5784,0.0,0.0,0.0,0.0,0.0,0.0,0.0,0.0,0.0,1.2759,1.2759,0.0,0.0,0.0,0.0,0.0,0.0,0.0,0.0,0.0,0.0,0.0,0.0,0.0,0.0,0.0,0.0,0.0,0.0,0.0,0.0,0.0,0.0,0.0,0.0,0.0,0.0,0.0,0.0,1.5924,1.6194,1.6366,1.6581,1.6797,1.6969,1.7001,1.7001,0.0,0.0,1.7001,1.7001,1.7001,1.7001,1.7001,1.7001,1.7001,1.7001,1.7001,1.664,1.5605,0.0,0.0,0.0,0.0,0.0,0.0,0.0,0.0,0.0,0.0,0.0,0.0,1.0019,1.0019,1.0019,1.0019,1.0019,1.0019,1.0019,1.0019,1.0019,1.0019,1.0019,1.0019,1.0019,1.0019,1.0019,0.0,0.0,0.0,1.0019,1.0019,1.0019,1.0019,1.0019,1.0019,1.0019,1.0019,1.0019,0.0,0.0,0.0,0.0,0.0,0.5018,0.5018,0.5018,0.5018,0.5018,0.5116,0.5186,0.5192,0.5301,0.542,0.5454,0.5665,0.0,0.0,0.0,0.0,0.0,0.0,0.0,0.0,0.0,1.2759,1.2759,1.2759,1.2759,0.0,0.0,0.0,0.0,0.0,0.0,0.0,0.0,0.0,0.0,0.0,0.0,0.0,0.0,0.0,0.0,0.0,0.0,0.0,0.0,0.0,0.0,0.0,1.5763,1.5946,1.5946,1.628,1.6657,1.6657,1.6829,1.7001,1.7001,1.7001,1.7001,0.0,0.0,1.7001,1.7001,1.7001,1.7001,1.7001,1.7001,1.7001,1.7001,1.7001,1.664,1.5605,0.0,0.0,0.0,0.0,0.0,0.0,0.0,0.0,0.0,0.0,0.0,0.0,1.0019,1.0019,1.0019,1.0019,1.0019,1.0019,1.0019,1.0019,1.0019,1.0019,1.0019,1.0019,1.0019,1.0019,0.0,0.0,0.0,0.0,1.0019,1.0019,1.0019,1.0019,1.0019,1.0019,1.0019,1.0019,1.0019,0.0,0.0,0.0,0.0,0.0,0.0,0.5018,0.5018,0.5018,0.5018,0.505,0.5099,0.5175,0.5219,0.5295,0.5415,0.5464,0.0,0.0,0.0,0.0,0.0,0.0,0.0,0.0,0.0,1.1844,1.2522,1.2684,1.2684,1.2533,1.2684,1.2759,0.0,0.0,0.0,0.0,0.0,0.0,0.0,0.0,0.0,0.0,0.0,0.0,0.0,0.0,0.0,0.0,0.0,0.0,0.0,0.0,0.0,0.0,1.6204,1.642,1.6667,1.6667,1.6829,1.7001,1.7001,1.7001,1.7001,1.7001,0.0,1.7001,1.7001,1.7001,1.7001,1.7001,1.7001,1.7001,1.7001,1.7152,1.7235,0.0,0.0,0.0,0.0,0.0,0.0,0.0,0.0,0.0,0.0,0.0,0.0,0.0,1.0019,1.0019,1.0019,1.0019,1.0019,1.0019,1.0019,1.0019,1.0019,1.0019,1.0019,1.0019,1.0019,0.0,0.0,0.0,0.0,0.0,1.0019,1.0019,1.0019,1.0019,1.0019,1.0019,1.0019,1.0019,1.0019,0.0,0.0,0.0,0.0,0.0,0.0,0.5018,0.5018,0.5018,0.5018,0.5018,0.5045,0.5116,0.5121,0.517,0.529,0.5262,0.0,0.0,0.0,0.0,0.0,0.0,0.0,1.0166,1.0319,1.0877,1.1836,1.197,1.2011,1.196,1.2406,1.248,1.2165,1.2662,0.0,0.0,0.0,0.0,0.0,0.0,0.0,1.3696,0.0,0.0,0.0,0.0,0.0,0.0,0.0,0.0,0.0,0.0,0.0,0.0,0.0,1.6538,1.6786,1.6786,1.6894,1.7001,1.7001,1.7001,1.7001,0.0,0.0,1.7001,1.7001,1.7001,1.7001,1.7001,1.7001,1.7001,1.7001,1.7217,1.7321,0.0,0.0,0.0,0.0,0.0,0.0,0.0,0.0,0.0,0.0,0.0,0.0,0.0,0.0,1.0019,1.0019,1.0019,1.0019,1.0019,1.0019,1.0019,1.0019,1.0019,1.0019,1.0019,1.0019,0.0,0.0,0.0,0.0,0.0,1.0019,1.0019,1.0019,1.0019,1.0019,1.0019,1.0019,1.0019,1.0019,0.0,0.0,0.0,0.0,0.0,0.0,0.0,0.5018,0.5018,0.5018,0.5018,0.5018,0.5018,0.5018,0.5061,0.5165,0.5078,0.0,0.0,0.0,0.0,0.0,0.0,0.0,0.8804,0.9129,0.9784,1.0953,1.0849,1.0953,1.1346,1.1929,1.1949,1.1365,1.2262,1.2759,0.0,0.0,0.0,0.0,1.2996,1.3243,0.0,0.0,0.0,0.0,0.0,0.0,0.0,0.0,0.0,0.0,0.0,0.0,0.0,0.0,0.0,0.0,0.0,1.7001,1.7001,1.7001,1.7001,1.7001,1.7001,0.0,0.0,1.7001,1.7001,1.7001,1.7001,1.7001,1.7012,1.7023,1.7238,0.0,0.0,0.0,0.0,0.0,0.0,0.0,0.0,0.0,0.0,0.0,0.0,0.0,0.0,0.0,1.0019,1.0019,1.0019,1.0019,1.0019,1.0019,1.0019,1.0019,1.0019,1.0019,1.0019,1.0019,0.0,0.0,0.0,0.0,0.0,1.0019,1.0019,1.0019,1.0019,1.0019,1.0019,1.0019,1.0019,1.0019,0.0,0.0,0.0,0.0,0.0,0.0,0.0,0.0,0.0,0.0,0.5018,0.5018,0.5018,0.5018,0.5029,0.0,0.0,0.0,0.0,0.0,0.0,0.0,0.0,0.0,0.7807,0.7887,0.8806,1.0724,1.0622,1.1111,1.2109,1.1467,1.1662,1.237,1.1863,1.2068,0.0,0.0,0.0,0.0,1.2824,1.3093,0.0,0.0,0.0,0.0,1.4191,1.4374,0.0,0.0,0.0,0.0,0.0,0.0,0.0,0.0,1.6646,1.7001,1.7001,0.0,1.7001,1.7001,1.7001,1.7001,0.0,1.7001,0.0,0.0,0.0,1.7001,1.7001,1.7001,1.7066,1.726,1.7486,0.0,0.0,0.0,0.0,0.0,0.0,0.0,0.0,0.0,0.0,0.0,0.0,0.0,0.0,0.0,1.0019,1.0019,1.0019,1.0019,1.0019,1.0019,1.0019,1.0019,1.0019,1.0019,1.0019,1.0019,0.0,0.0,0.0,0.0,1.0019,1.0019,1.0019,1.0019,1.0019,1.0019,1.0019,1.0019,1.0019,1.0019,0.0,0.0,0.0,0.0,0.0,0.0,0.0,0.0,0.0,0.0,0.5018,0.5018,0.5018,0.5018,0.5018,0.0,0.0,0.0,0.0,0.0,0.0,0.0,0.0,0.5837,0.6629,0.669,0.7611,0.9258,0.9722,1.005,1.043,1.0628,1.0692,1.0583,1.0974,1.1765,1.2759,1.2759,1.2759,1.2759,1.2759,0.0,0.0,0.0,0.0,0.0,1.4191,1.4342,0.0,1.4805,1.5052,1.5289,0.0,0.0,0.0,0.0,1.6646,1.7001,1.7001,1.7001,1.7001,1.7001,1.7001,1.7001,1.7001,0.0,0.0,0.0,0.0,1.7001,1.7001,1.7001,0.0,0.0,1.7026,0.0,0.0,0.0,0.0,0.0,0.0,0.0,0.0,0.0,0.0,0.0,0.0,0.0,0.0,0.0,1.0019,1.0019,1.0019,1.0019,1.0019,1.0019,1.0019,1.0019,1.0019,1.0019,1.0019,1.0019,0.0,0.0,0.0,0.0,1.0019,1.0019,1.0019,1.0019,1.0019,1.0052,0.9944,0.9944,0.9982,1.0024,0.0,0.0,0.0,0.0,0.0,0.0,0.0,0.0,0.0,0.0,0.0,0.0,0.0,0.0,0.0,0.0,0.0,0.0,0.0,0.0,0.0,0.0,0.5371,0.5485,0.573,0.5828,0.6483,0.7643,0.8482,0.8649,0.828,0.9694,0.9623,0.8322,1.0288,1.1765,1.2759,1.2759,1.2759,1.2759,1.2759,0.0,0.0,0.0,0.0,0.0,0.0,0.0,0.0,1.4794,1.502,1.5246,1.5515,0.0,0.0,0.0,0.0,0.0,1.7001,1.7001,1.7001,1.7001,1.7001,1.7001,1.7001,0.0,0.0,0.0,0.0,0.0,0.0,0.0,0.0,0.0,0.0,0.0,0.0,0.0,0.0,0.0,0.0,0.0,0.0,0.0,0.0,0.0,0.0,0.0,0.0,0.0,0.0,1.0019,1.0019,1.0019,1.0019,1.0019,1.0019,1.0019,1.0019,1.0019,1.0019,1.0019,1.0019,0.0,0.0,0.0,1.0019,1.0019,1.0019,1.0019,1.0041,0.9955,1.0046,1.0062,1.0131,1.0056,0.0,0.0,0.0,0.0,0.0,0.0,0.0,0.0,0.0,0.0,0.0,0.0,0.0,0.0,0.0,0.0,0.0,0.0,0.0,0.0,0.0,0.536,0.5371,0.5485,0.573,0.5752,0.6352,0.7576,0.757,0.8095,0.918,0.849,0.8564,0.941,1.0681,1.1765,1.2759,1.2759,1.2759,1.2759,1.2759,0.0,0.0,0.0,0.0,0.0,0.0,0.0,0.0,1.474,1.4912,1.502,1.5461,0.0,0.0,0.0,0.0,0.0,1.7001,1.7001,1.7001,1.7001,1.7001,1.7001,1.7001,0.0,0.0,0.0,0.0,0.0,0.0,0.0,0.0,0.0,0.0,0.0,0.0,0.0,0.0,0.0,0.0,0.0,0.0,0.0,0.0,0.0,0.0,0.0,0.0,0.0,0.0,1.0019,1.0019,1.0019,1.0019,1.0019,1.0019,1.0019,1.0019,1.0019,1.0019,1.0019,1.0019,0.0,0.0,1.0019,1.0019,1.0019,1.0019,1.003,0.9976,1.0024,1.0056,1.0484,1.0534,1.055,0.0,0.0,0.0,0.0,0.0,0.0,0.0,0.0,0.0,0.0,0.0,0.0,0.0,0.0,0.0,0.0,0.0,0.0,0.0,0.0,0.5186,0.536,0.5431,0.5551,0.573,0.5735,0.597,0.663,0.7257,0.759,0.7711,0.7205,0.7957,0.9608,1.01,1.1277,1.2759,1.2759,1.2759,1.277,0.0,0.0,0.0,0.0,0.0,0.0,0.0,0.0,0.0,0.0,1.488,1.4966,1.5451,0.0,0.0,0.0,0.0,0.0,1.7001,1.7001,1.7001,1.7001,1.7001,1.7001,1.7001,0.0,0.0,0.0,0.0,0.0,0.0,0.0,0.0,0.0,0.0,0.0,0.0,0.0,0.0,0.0,0.0,0.0,0.0,0.0,0.0,0.0,0.0,0.0,0.0,0.0,0.0,0.0,1.0019,1.0019,1.0019,1.0019,1.0019,1.0019,1.0019,1.0019,1.0019,1.0019,1.0019,1.0019,0.0,1.0019,1.0019,1.0019,1.0057,0.9965,1.0019,1.0121,1.0411,1.0694,1.0744,1.0744,0.0,0.0,0.0,0.0,0.0,0.0,0.0,0.0,0.0,0.0,0.0,0.0,0.0,0.0,0.0,0.0,0.0,0.0,0.0,0.5137,0.5252,0.5404,0.5502,0.5523,0.573,0.5735,0.579,0.5904,0.6864,0.7019,0.6312,0.6393,0.7528,0.9608,0.9312,1.0592,1.2759,1.2565,1.2597,1.2856,0.0,0.0,0.0,0.0,0.0,0.0,0.0,0.0,0.0,0.0,0.0,0.0,0.0,0.0,0.0,1.6312,1.6646,1.7001,1.7001,1.7001,1.7001,1.7001,1.7001,1.7001,1.7001,0.0,0.0,0.0,0.0,0.0,0.0,0.0,0.0,0.0,0.0,0.0,0.0,0.0,0.0,0.0,0.0,0.0,0.0,0.0,0.0,0.0,0.0,0.0,0.0,0.0,0.0,0.0,1.0019,1.0019,1.0019,1.0019,1.0019,1.0019,1.0019,1.0019,1.0019,1.0019,1.0019,1.0019,1.0019,1.0019,1.0025,1.0052,0.996,1.0046,1.0099,1.0411,1.0777,1.0704,1.0737,1.0737,0.0,0.0,0.0,0.0,0.0,0.0,0.0,0.0,0.0,0.0,0.0,0.0,0.0,0.0,0.0,0.0,0.0,0.0,0.0,0.5181,0.529,0.5529,0.5459,0.5523,0.573,0.5735,0.579,0.5904,0.6117,0.6299,0.6426,0.6431,0.7528,0.9509,0.852,0.9895,1.2759,1.1765,1.1983,1.3082,1.3093,0.0,0.0,0.0,0.0,0.0,0.0,0.0,0.0,0.0,0.0,0.0,0.0,0.0,1.6312,1.6312,1.6646,1.7001,1.7001,1.7001,1.7001,1.7001,1.7001,0.0,1.7001,1.7001,0.0,0.0,0.0,0.0,0.0,0.0,0.0,0.0,0.0,0.0,0.0,0.0,0.0,0.0,0.0,0.0,0.0,0.0,0.0,0.0,0.0,0.0,0.0,0.0,0.0,0.0,0.0,1.0019,1.0019,1.0019,1.0019,1.0019,1.0019,1.0019,1.0019,1.0019,1.0019,1.0019,1.0019,1.0019,1.003,0.9982,1.0035,1.0062,1.0443,1.0612,1.0726,1.0732,1.0737,1.0737,0.0,0.0,0.0,0.0,0.0,0.0,0.0,0.0,0.0,0.0,0.0,0.0,0.0,0.0,0.0,0.0,0.0,0.0,0.0,0.5257,0.5377,0.5459,0.5621,0.5687,0.573,0.5735,0.579,0.5904,0.6105,0.6279,0.6437,0.7129,0.7826,0.8612,0.8916,1.0061,1.1974,1.1577,1.2104,1.3351,1.3491,1.3653,0.0,0.0,0.0,0.0,0.0,0.0,0.0,0.0,1.4923,1.5268,1.5354,1.5817,1.6312,1.6312,1.6646,1.7001,1.7001,1.7001,1.7001,1.7001,0.0,0.0,0.0,0.0,0.0,0.0,0.0,0.0,0.0,0.0,0.0,0.0,0.0,0.0,0.0,0.0,0.0,0.0,0.0,0.0,0.0,0.0,0.0,0.0,0.0,0.0,0.0,0.0,0.0,0.0,0.0,1.0019,1.0019,1.0019,1.0019,1.0019,1.0019,1.0019,1.0019,1.0019,1.0019,1.0019,1.0019,1.0019,1.003,0.9992,1.0248,1.0501,1.0579,1.0699,1.0737,1.0737,1.0737,1.0737,0.0,0.0,0.0,0.0,0.0,0.0,0.0,0.0,0.0,0.0,0.0,0.0,0.0,0.0,0.0,0.0,0.0,0.0,0.5235,0.536,0.548,0.5518,0.5687,0.5752,0.5784,0.5784,0.5844,0.5958,0.6203,0.6361,0.6437,0.7129,0.7653,0.8092,0.8899,1.0096,1.1595,1.1595,1.2434,1.3599,1.376,1.3868,0.0,0.0,0.0,0.0,0.0,0.0,0.0,0.0,1.5031,1.5375,1.5451,1.586,1.6334,1.6398,1.67,1.7001,1.7001,1.7001,1.7001,0.0,0.0,0.0,0.0,0.0,0.0,0.0,0.0,0.0,0.0,0.0,0.0,0.0,0.0,0.0,0.0,0.0,0.0,0.0,0.0,0.0,0.0,0.0,0.0,0.0,0.0,0.0,0.0,0.0,0.0,0.0,0.0,1.0019,1.0019,1.0019,1.0019,1.0019,1.0019,1.0019,1.0019,1.0019,1.0019,1.0019,1.0019,1.0019,1.003,1.0035,1.0351,1.0677,1.0677,1.0737,1.0737,1.0737,1.0737,1.0737,0.0,0.0,0.0,0.0,0.0,0.0,0.0,0.0,0.5018,0.5018,0.5018,0.0,0.0,0.0,0.0,0.0,0.0,0.0,0.536,0.5485,0.5518,0.573,0.5735,0.5784,0.5899,0.5904,0.5964,0.6089,0.6323,0.6437,0.6437,0.6437,0.7,0.8146,0.8357,0.9674,1.1709,1.1803,1.2655,1.3825,1.3825,1.3976,1.4191,0.0,0.0,0.0,0.0,0.0,0.0,0.0,1.5408,1.5645,1.5871,1.6118,1.6366,1.6592,1.6829,1.7001,1.7001,1.7001,1.7001,0.0,0.0,0.0,0.0,0.0,0.0,0.0,0.0,0.0,0.0,0.0,0.0,0.0,0.0,0.0,0.0,0.0,0.0,0.0,0.0,0.0,0.0,0.0,0.0,0.0,0.0,0.0,0.0,0.0,0.0,0.0,0.0,0.0,1.0019,1.0019,1.0019,1.0019,1.0019,1.0019,1.0019,1.0019,1.0019,1.0019,1.0019,1.0019,1.0041,0.9961,1.0356,1.0737,1.0737,1.0737,1.0737,1.0737,1.0737,1.0737,0.0,0.0,0.0,0.0,0.0,0.0,0.0,0.0,0.5018,0.5018,0.5018,0.0,0.0,0.0,0.0,0.0,0.0,0.0,0.5485,0.5529,0.5518,0.573,0.5735,0.5784,0.5899,0.6072,0.6181,0.6214,0.6366,0.6437,0.6437,0.7226,0.7496,0.7135,0.8873,1.0056,1.0957,1.1705,1.2896,1.4083,1.4083,1.4126,1.4191,0.0,0.0,0.0,0.0,0.0,0.0,0.0,0.0,0.0,1.5677,1.5978,1.6366,1.6592,1.6829,1.7001,1.7001,1.7001,0.0,0.0,0.0,0.0,0.0,0.0,0.0,0.0,0.0,0.0,0.0,0.0,0.0,0.0,0.0,0.0,0.0,0.0,0.0,0.0,0.0,0.0,0.0,0.0,0.0,0.0,0.0,0.0,0.0,0.0,0.0,0.0,0.0,0.0,1.0019,1.0019,1.0019,1.0019,1.0019,1.0019,1.0019,1.0019,1.0019,1.0019,1.0019,1.0019,1.0041,1.0286,1.0525,1.0737,1.0737,1.0737,1.0737,1.0737,1.0737,1.0737,0.0,0.0,0.0,0.0,0.0,0.0,0.0,0.0,0.5018,0.5018,0.5018,0.5018,0.0,0.0,0.0,0.0,0.0,0.0,0.0,0.5507,0.5654,0.573,0.5779,0.5877,0.6045,0.6236,0.6333,0.6333,0.6404,0.6464,0.6513,0.719,0.7492,0.7491,0.8941,1.0126,1.1263,1.2024,1.2969,1.4191,1.4191,1.4191,1.4191,0.0,0.0,0.0,0.0,0.0,0.0,0.0,0.0,0.0,1.5849,1.6151,1.6495,1.6732,1.6894,1.7001,1.7001,1.6613,0.0,0.0,0.0,0.0,0.0,0.0,0.0,0.0,0.0,0.0,0.0,0.0,0.0,0.0,0.0,0.0,0.0,0.0,0.0,0.0,0.0,0.0,0.0,0.0,0.0,0.0,0.0,0.0,0.0,0.0,0.0,0.0,0.0,0.0,1.0019,1.0019,1.0019,1.0019,1.0019,1.0019,1.0019,1.0019,1.0019,1.0019,1.0019,1.0074,1.0014,1.049,1.0694,1.0737,1.0737,1.0737,1.0737,1.0737,1.0737,1.0737,0.0,0.0,0.5018,0.5018,0.0,0.0,0.0,0.0,0.5018,0.5018,0.5023,0.5034,0.0,0.0,0.0,0.0,0.0,0.0,0.548,0.567,0.5735,0.5746,0.5871,0.604,0.6263,0.6377,0.6442,0.6453,0.6453,0.6507,0.6622,0.6746,0.7392,0.8588,0.8817,1.0085,1.22,1.2309,1.3078,1.4191,1.4191,1.4191,1.4202,1.4213,0.0,0.0,0.0,0.0,0.0,0.0,0.0,0.0,1.6258,1.6495,1.671,1.6937,1.7001,1.7001,1.7001,0.0,0.0,0.0,0.0,0.0,0.0,0.0,0.0,0.0,0.0,0.0,0.0,0.0,0.0,0.0,0.0,0.0,0.0,0.0,0.0,0.0,0.0,0.0,0.0,0.0,0.0,0.0,0.0,0.0,0.0,0.0,0.0,0.0,0.0,0.0,1.0019,1.0019,1.0019,0.0,1.0019,1.0019,1.0019,1.0019,1.0019,1.0019,1.0019,0.9998,1.0056,1.055,1.0694,1.0737,1.0737,1.0737,1.0737,1.0737,1.0737,1.0737,0.0,0.0,0.5018,0.5018,0.0,0.0,0.0,0.0,0.0,0.0,0.0,0.0,0.0,0.0,0.0,0.0,0.0,0.0,0.5687,0.5719,0.5773,0.586,0.6072,0.6214,0.6268,0.6377,0.6486,0.6578,0.6578,0.6594,0.6622,0.7756,0.7892,0.7419,0.9363,1.053,1.1109,1.1982,1.3078,1.4191,1.4191,1.4191,1.4213,1.4396,1.46,0.0,0.0,0.0,0.0,0.0,0.0,0.0,1.6452,1.6624,1.671,1.6937,1.7001,1.7001,1.7001,1.6742,0.0,0.0,0.0,0.0,0.0,0.0,0.0,0.0,0.0,0.0,0.0,0.0,0.0,0.0,0.0,0.0,0.0,0.0,0.0,0.0,0.0,0.0,0.0,0.0,0.0,0.0,0.0,0.0,0.0,0.0,0.0,0.0,0.0,0.9976,1.0019,1.0019,1.0019,0.0,1.0019,1.0019,1.0019,1.0019,1.0019,1.0019,1.0019,0.9998,1.0056,1.055,1.0694,1.0737,1.0737,1.0737,1.0737,1.0737,1.0737,1.0737,0.0,0.0,0.0,0.0,0.0,0.0,0.0,0.0,0.0,0.0,0.0,0.0,0.0,0.0,0.0,0.0,0.5518,0.5687,0.5806,0.5812,0.5893,0.6072,0.6203,0.6295,0.635,0.6464,0.6556,0.6622,0.6736,0.6796,0.6796,0.7559,0.7877,0.7944,0.9216,1.0453,1.1546,1.22,1.3078,1.4202,1.4309,1.4352,1.4385,1.4611,1.4848,1.5074,1.5203,0.0,0.0,0.0,0.0,0.0,0.0,0.0,1.685,1.6969,1.7001,1.7001,1.7001,0.0,0.0,0.0,0.0,0.0,0.0,0.0,0.0,0.0,0.0,0.0,0.0,0.0,0.0,0.0,0.0,0.0,0.0,0.0,0.0,0.0,0.0,0.0,0.0,0.0,0.0,0.0,0.0,0.0,0.0,0.0,0.0,0.0,1.3538,0.9949,1.0019,1.0019,1.0019,1.0019,1.0019,1.0019,1.0019,1.0019,1.0019,1.0019,1.0019,0.9998,1.0056,1.055,1.0694,1.0737,1.0737,1.0737,1.0737,1.0737,1.0737,1.0737,0.0,0.0,0.0,0.0,0.0,0.0,0.0,0.0,0.0,0.0,0.0,0.0,0.0,0.0,0.0,0.0,0.0,0.0,0.5926,0.5953,0.6056,0.6263,0.6285,0.635,0.6464,0.6567,0.6638,0.6681,0.6883,0.6997,0.7013,0.7231,0.7828,0.8589,0.903,1.0343,1.2091,1.2346,1.3029,1.394,1.4393,1.4478,1.4277,1.4745,1.5074,1.5257,1.53,1.558,1.5957,1.6,0.0,0.0,0.0,0.0,1.7001,1.7001,1.7001,1.7001,1.7001,0.0,0.0,0.0,0.0,0.0,0.0,0.0,0.0,0.0,0.0,0.0,0.0,0.0,0.0,0.0,0.0,0.0,0.0,0.0,0.0,0.0,0.0,0.0,0.0,0.0,0.0,0.0,0.0,0.0,0.0,0.0,1.9941,1.9828,1.3501,0.9927,1.0019,1.0019,1.0019,1.0019,1.0019,1.0019,1.0019,1.0019,1.0019,1.0019,1.0019,0.9998,1.0056,1.055,1.0694,1.0737,1.0737,1.0737,1.0737,1.0737,1.0737,1.0737,0.0,0.0,0.0,0.0,0.0,0.0,0.0,0.0,0.0,0.0,0.5453,0.5529,0.0,0.0,0.5746,0.585,0.5871,0.5931,0.6051,0.0,0.0,0.6268,0.6361,0.6469,0.6594,0.6611,0.6725,0.6937,0.697,0.7035,0.7243,0.8232,0.8244,0.7487,0.9574,1.0672,1.1008,1.2174,1.2812,1.2933,1.4291,1.4148,1.3364,1.4646,1.5225,1.5278,1.5483,1.572,1.5978,1.6194,1.6441,0.0,0.0,0.0,0.0,1.7001,1.7001,1.7001,0.0,0.0,0.0,0.0,0.0,0.0,0.0,0.0,0.0,0.0,0.0,0.0,0.0,0.0,0.0,0.0,0.0,0.0,0.0,0.0,0.0,0.0,0.0,0.0,0.0,0.0,0.0,0.0,0.0,0.0,0.0,1.9844,1.9941,1.9828,1.3501,0.9927,1.0019,1.0019,1.0019,1.0019,1.0019,1.0019,1.0019,1.0019,1.0019,1.0019,1.0019,0.9998,1.0056,1.055,1.0694,1.0737,1.0737,1.0737,1.0737,1.0737,1.0737,1.0737,0.0,0.0,0.0,0.0,0.0,0.0,0.0,0.0,0.0,0.0,0.0,0.5676,0.0,0.5795,0.5877,0.5996,0.6007,0.6056,0.6181,0.6295,0.6361,0.6361,0.6475,0.6562,0.6616,0.6752,0.6877,0.6986,0.7051,0.7105,0.0,0.7709,0.8042,0.8152,0.9335,1.0596,1.1952,1.2599,1.3247,1.3953,1.476,1.474,1.429,1.512,1.5526,1.5655,1.5763,1.6032,1.6366,1.6474,1.6667,1.6872,1.6969,0.0,0.0,0.0,1.7001,0.0,1.7001,0.0,0.0,0.0,0.0,0.0,0.0,0.0,0.0,0.0,0.0,0.0,0.0,0.0,0.0,0.0,0.0,0.0,0.0,0.0,0.0,0.0,0.0,0.0,0.0,0.0,0.0,0.0,0.0,0.0,1.9854,1.9898,1.9973,1.9906,1.3516,0.9938,0.9981,1.0008,1.0019,1.0019,1.0019,1.0019,1.0019,1.0019,1.0019,1.0019,1.0019,0.9998,1.0056,1.055,1.0694,1.0737,1.0737,1.0737,1.0737,1.0737,1.0737,1.0737,0.0,0.0,0.0,0.0,0.0,0.0,0.0,0.0,0.0,0.0,0.0,0.0,0.0,0.0,0.0,0.0,0.6132,0.6181,0.6301,0.642,0.648,0.648,0.66,0.6681,0.6714,0.6893,0.6997,0.7029,0.7111,0.7154,0.7154,0.7154,0.7832,0.0,0.942,1.0393,1.1924,1.3032,1.37,1.4073,1.5003,1.5099,1.4886,1.5472,1.5795,1.5957,1.6021,1.6312,1.6667,0.0,0.0,0.0,0.0,0.0,0.0,0.0,0.0,0.0,0.0,0.0,0.0,0.0,0.0,0.0,0.0,0.0,0.0,0.0,0.0,0.0,0.0,0.0,0.0,0.0,0.0,0.0,0.0,0.0,0.0,0.0,0.0,0.0,0.0,0.0,0.0,0.0,0.0,0.0,1.993,1.9842,1.908,1.7464,1.4191,1.1695,0.997,1.0003,1.0019,1.0019,1.0019,1.0019,1.0019,1.0019,1.0019,1.0019,1.0019,0.9998,1.0056,1.055,1.0694,1.0737,1.0737,1.0737,1.0737,1.0737,1.0737,1.0737,0.0,0.0,0.0,0.0,0.0,0.0,0.0,0.0,0.0,0.0,0.0,0.0,0.6062,0.6078,0.6127,0.6246,0.6257,0.6306,0.642,0.654,0.6611,0.6611,0.6725,0.0,0.6964,0.698,0.7035,0.7143,0.7149,0.0,0.7154,0.7154,0.7879,0.9123,1.0362,1.0349,0.9701,0.0,0.0,1.1829,1.4528,1.4857,1.3913,1.5466,1.5935,1.5978,1.6215,0.0,0.0,0.0,0.0,0.0,0.0,0.0,0.0,0.0,0.0,0.0,0.0,0.0,0.0,0.0,0.0,0.0,0.0,0.0,0.0,0.0,0.0,0.0,0.0,0.0,0.0,0.0,0.0,0.0,0.0,0.0,0.0,0.0,0.0,0.0,0.0,0.0,0.0,0.0,0.0,0.0,1.997,1.997,1.7069,1.0732,1.6335,1.6379,1.0019,1.0019,1.0019,1.0019,1.0019,1.0019,1.0019,1.0019,1.0019,1.0019,1.0019,0.9998,1.0056,1.055,1.0694,1.0737,1.0737,1.0737,1.0737,1.0737,1.0737,1.0737,0.0,0.0,0.0,0.0,0.0,0.0,0.0,0.0,0.0,0.0,0.0,0.0,0.0,0.6203,0.6252,0.6366,0.6448,0.6545,0.6665,0.6714,0.6736,0.6736,0.6855,0.6942,0.6986,0.7056,0.7111,0.7154,0.7154,0.7154,0.7154,0.7236,0.7561,0.8141,0.8596,0.9939,1.1853,1.2631,0.0,1.3147,1.4898,1.4922,1.4175,1.5481,0.0,0.0,0.0,0.0,0.0,0.0,0.0,0.0,0.0,0.0,0.0,0.0,0.0,0.0,0.0,0.0,0.0,0.0,0.0,0.0,0.0,0.0,0.0,0.0,0.0,0.0,0.0,0.0,0.0,0.0,0.0,0.0,0.0,0.0,0.0,0.0,0.0,0.0,0.0,0.0,0.0,0.0,0.0,0.0,1.3509,1.3546,1.2447,1.0064,1.234,1.2393,1.0019,1.0019,1.0019,1.0019,1.0019,1.0019,1.0019,1.0019,1.0019,1.0025,0.9944,1.0067,1.0056,1.055,1.0694,1.0737,1.0737,1.0737,1.0737,1.0737,1.0737,1.0737,0.0,0.0,0.0,0.0,0.0,0.5964,0.5964,0.6034,0.61,0.6143,0.0,0.0,0.0,0.0,0.6431,0.6551,0.6632,0.6714,0.6796,0.6839,0.6866,0.6866,0.698,0.704,0.704,0.7116,0.7154,0.7154,0.7639,0.7662,0.722,0.7789,0.7806,0.7584,0.7622,0.9334,0.0,0.0,0.0,1.3967,1.5256,1.5401,1.5037,0.0,0.0,0.0,0.0,0.0,0.0,0.0,0.0,0.0,0.0,0.0,0.0,0.0,0.0,0.0,1.7981,0.0,0.0,0.0,0.0,0.0,0.0,0.0,0.0,0.0,0.0,0.0,0.0,0.0,0.0,0.0,0.0,0.0,0.0,0.0,0.0,0.0,0.0,0.0,0.0,0.0,0.0,0.0,0.0,0.0,0.9932,0.996,0.996,0.9927,0.9987,1.0019,1.0019,1.0019,1.0019,1.0019,1.0019,1.0019,1.0019,1.0019,1.0041,0.9928,1.0008,0.9951,1.0061,1.0589,1.0727,1.0737,1.0737,1.0737,1.0737,1.0737,1.0737,1.0737,0.0,0.0,0.6034,0.6156,0.6183,0.6183,0.6183,0.6094,0.6143,0.6263,0.0,0.0,0.0,0.0,0.0,0.6796,0.6806,0.6812,0.6812,0.6926,0.6991,0.6991,0.7095,0.7154,0.7154,0.7265,0.7265,0.716,0.862,0.8577,0.7345,0.8724,0.8753,0.7709,0.7944,0.8604,0.9943,0.0,1.3977,1.4127,0.0,1.6199,1.6231,0.0,0.0,0.0,1.6926,1.7001,0.0,0.0,0.0,0.0,0.0,0.0,0.0,0.0,0.0,0.0,0.0,0.0,0.0,0.0,0.0,0.0,0.0,0.0,0.0,0.0,0.0,0.0,0.0,0.0,0.0,0.0,0.0,0.0,0.0,0.0,0.0,0.0,0.0,0.0,0.0,0.0,0.0,0.0,0.0,1.0019,1.0019,1.0019,1.0019,1.0019,1.0019,1.0019,1.0019,1.0019,1.0019,1.0019,1.0019,1.0019,1.0025,1.0025,0.9933,1.0046,1.0051,0.9956,1.0072,1.0509,1.0628,1.0737,1.0737,1.0737,1.0737,1.0737,1.0737,1.0737,0.0,0.8436,0.8266,0.8311,0.776,0.7356,0.7356,0.6766,0.6382,0.0,0.0,0.0,0.6687,0.673,0.6801,0.6921,0.6937,0.697,0.7051,0.7089,0.7105,0.7105,0.7138,0.7154,0.7154,0.8042,0.8084,0.7285,0.8552,0.8514,0.747,0.7943,0.8068,0.795,0.9051,0.9784,1.0134,1.0929,0.0,0.0,1.4702,1.4332,0.0,0.0,0.0,0.0,0.0,1.7001,0.0,0.0,1.7001,1.7033,0.0,0.0,0.0,0.0,0.0,0.0,1.8422,0.0,0.0,0.0,0.0,0.0,0.0,1.2731,0.0,0.0,0.0,0.0,0.0,0.0,0.0,0.0,0.0,0.0,0.0,0.0,0.0,0.0,0.0,0.0,0.0,0.0,0.0,0.0,1.0019,1.0019,1.0019,1.0019,1.0019,1.0019,1.0019,1.0019,1.0019,1.0019,1.0019,1.0019,1.0019,1.0068,0.9992,0.9992,1.0056,1.0014,1.0422,1.0476,1.0509,1.071,1.0628,1.0737,1.0737,1.0737,1.0737,1.0737,1.0737,1.0737,1.0099,0.9357,0.8721,0.8703,0.7828,0.7229,0.7285,0.726,0.7262,0.0,0.0,0.0,0.6973,0.6877,0.6926,0.7046,0.7489,0.7847,0.7925,0.8367,0.8478,0.7925,0.7925,0.7733,0.723,0.7897,0.7963,0.741,0.9293,0.9252,0.76,0.9433,0.9822,0.8934,0.9876,1.1024,1.2012,0.0,0.0,0.0,1.5199,0.0,0.0,1.6198,1.6368,0.0,0.0,0.0,1.6872,1.6343,1.6546,0.0,0.0,0.0,0.0,0.0,0.0,0.0,0.0,0.0,0.0,0.0,0.0,0.0,1.1879,1.1729,0.0,0.0,0.0,0.0,0.0,0.0,0.0,0.0,0.0,0.0,0.0,0.0,0.0,0.0,0.0,0.0,0.0,0.0,0.0,0.0,1.0019,1.0019,1.0019,1.0019,1.0019,1.0019,1.0019,1.0019,1.0019,1.0019,1.0019,1.0019,1.0019,0.9928,1.004,1.0204,1.0297,1.0297,1.0525,1.0749,1.0634,1.0634,1.0672,1.0737,1.0737,1.0737,1.0737,1.0737,1.0737,1.0737,0.0,0.9949,0.8661,0.8612,0.7659,0.7012,0.7129,0.7962,0.8625,0.0,0.8822,0.8468,0.7528,0.7328,0.7264,0.7587,0.8367,0.892,0.914,1.0147,1.0264,0.9168,0.9182,0.87,0.7806,0.792,0.787,0.7769,1.034,1.031,0.8102,1.1849,1.2513,1.0475,1.087,1.229,1.4382,0.0,0.0,1.4529,1.6141,1.6613,0.0,0.0,1.6613,0.0,1.5303,1.5694,1.6613,1.5593,1.6166,0.0,0.0,0.0,0.0,0.0,1.8433,0.0,0.0,0.0,0.0,0.0,0.0,0.0,1.0161,1.0587,1.1155,0.0,0.0,0.0,0.0,0.0,0.0,0.0,0.0,0.0,0.0,0.0,0.0,0.0,0.0,0.0,0.0,0.0,1.0019,1.0019,1.0019,1.0019,1.0019,1.0019,1.0019,1.0019,1.0019,1.0019,1.0019,1.0019,1.0019,1.0019,1.0036,0.9944,1.0062,1.056,1.0695,1.0744,1.0744,1.0639,1.0737,1.0737,1.0737,1.0737,1.0737,1.0737,1.0737,1.0737,1.0737,1.0737,1.249,1.2345,1.2173,1.2124,1.1355,1.0861,1.0905,1.0294,0.9943,1.011,1.0262,1.0256,0.996,0.9099,0.8886,0.9904,0.9361,0.9361,1.0343,1.0691,1.0883,1.0659,1.0803,1.0776,1.0586,1.1494,1.1009,0.9196,1.0753,1.0905,0.9704,1.05,1.1416,1.2187,1.3404,1.3646,1.3274,0.0,0.0,1.3274,1.4754,0.0,1.3718,1.4903,1.3857,1.215,1.425,1.5043,1.5463,0.0,1.7325,1.797,0.0,0.0,0.0,0.0,0.0,0.0,0.0,0.0,0.0,0.0,0.0,0.0,1.1018,1.1442,1.1442,0.0,0.0,0.0,0.0,0.0,0.0,0.0,0.0,0.0,0.0,0.0,0.0,0.0,0.0,0.0,0.0,0.0,1.0019,1.0019,1.0019,1.0019,1.0019,1.0019,1.0019,1.0019,1.0019,1.0019,1.0019,1.0019,1.0019,1.0019,0.996,1.0067,1.0024,1.0443,1.0732,1.0704,1.0704,1.0715,1.0737,1.0737,1.0737,1.0737,1.0737,1.0737,1.0737,1.0737,1.0737,1.0737,1.3811,1.339,1.3063,1.2972,1.2138,1.1511,1.1413,1.1526,1.1705,1.1693,1.181,0.0,0.0,0.0,0.0,1.0136,1.0659,1.094,1.094,1.2149,1.2655,1.209,1.2188,1.2055,1.157,1.2035,1.182,1.0899,1.2097,1.2239,1.1268,1.2733,1.313,1.2677,1.4189,1.4419,1.3979,0.0,1.5564,1.4893,1.4903,0.0,1.2931,1.3587,1.3456,1.2947,1.3707,1.4599,1.5529,1.7244,1.7895,0.0,0.0,1.8347,1.8433,0.0,1.8433,1.8433,0.0,0.0,0.0,1.4307,0.0,0.0,0.0,1.0443,1.0443,0.0,0.0,0.0,0.0,0.0,0.0,0.0,0.0,0.0,0.0,0.0,0.0,0.0,0.0,0.0,0.0,1.0019,1.0019,1.0019,1.0019,1.0019,1.0019,1.0019,1.0019,1.0019,1.0019,1.0019,1.0019,1.0019,1.0019,1.0019,0.9982,1.0105,1.0389,1.0666,1.0623,1.0737,1.0737,1.0737,1.0737,1.0737,1.0737,1.0737,1.0737,1.0737,1.0737,1.0737,1.0737,1.0737,1.4706,1.4004,1.341,1.3214,1.2511,1.1859,1.1709,1.2694,1.3402,1.3264,1.3295,0.0,0.0,0.0,0.0,0.0,1.2143,1.2813,0.0,0.0,1.4603,1.368,1.3605,1.3374,1.2631,1.2631,1.2689,1.2679,1.3655,1.3757,1.296,1.5286,1.5268,0.0,0.0,0.0,0.0,0.0,0.0,1.6094,0.0,1.434,1.3244,1.3285,1.3831,1.4517,1.388,1.4738,1.6313,1.7612,0.0,1.8196,1.8379,1.8433,0.0,0.0,0.0,0.0,0.0,0.0,0.0,0.0,0.0,1.2738,0.0,0.0,0.0,0.0,0.0,0.0,0.0,0.0,0.0,0.0,0.0,0.0,0.0,0.0,0.0,0.0,0.0,0.0,0.0,1.0014,1.0008,1.0019,1.0014,1.0008,1.0019,1.0019,1.0019,1.0019,1.0019,1.0019,1.0019,1.0019,1.003,1.0057,1.0019,1.0302,1.0751,1.0705,1.0645,1.0737,1.0737,1.0737,1.0737,1.0737,1.0737,1.0737,1.0737,1.0737,1.0737,1.0737,1.0737,1.0737,1.4572,1.447,1.4526,1.4526,1.4484,1.4522,1.4556,1.4663,1.4793,0.0,0.0,0.0,0.0,0.0,0.0,0.0,0.0,0.0,1.4416,0.0,1.5203,1.5423,1.5642,1.5979,1.6331,1.6331,1.5846,1.4998,1.4863,1.4856,1.4944,1.4964,1.5465,0.0,1.6732,0.0,0.0,0.0,1.561,0.0,1.4907,1.5347,0.0,1.5259,1.4638,1.3823,1.4946,1.646,1.7919,0.0,1.8229,1.8401,0.0,1.8433,0.0,0.0,0.0,0.0,0.0,0.0,0.0,0.0,1.2873,0.0,0.0,0.0,0.0,0.0,0.0,0.0,0.0,0.0,0.0,0.0,0.0,0.0,0.0,0.0,0.0,0.0,0.0,0.0,0.0,0.0,0.9976,1.0019,0.9981,0.9976,1.0019,1.0019,1.0019,1.0019,1.0019,1.0019,1.0019,1.0019,1.0074,1.0024,0.9982,1.026,1.0705,1.0661,1.0726,1.0737,1.0737,1.0737,1.0737,1.0737,1.0737,1.0737,1.0737,1.0737,1.0737,1.0737,1.0737,1.0737,1.5281,1.5328,1.5411,1.5411,1.5506,1.547,1.5256,1.5383,1.5584,0.0,0.0,0.0,0.0,0.0,0.0,0.0,0.0,1.4929,0.0,0.0,0.0,1.6357,1.6605,1.6918,1.7131,1.7131,1.701,1.6746,1.6621,1.6614,1.684,1.6712,1.6581,0.0,1.6265,0.0,1.5082,0.0,0.0,0.0,0.0,0.0,0.0,1.4992,1.4645,1.5156,1.6549,1.7537,1.8293,0.0,1.8358,0.0,0.0,0.0,0.0,0.0,0.0,0.0,0.0,0.0,0.0,0.0,0.0,0.0,0.0,0.0,0.9323,0.0,0.0,0.0,0.0,0.0,0.0,0.0,0.0,0.0,0.0,0.0,0.0,0.0,0.0,0.0,0.0,0.0,0.0,0.0,0.0,0.9998,1.0019,1.0019,1.0019,1.0019,1.0019,1.0019,1.0019,1.0019,0.9923,1.004,1.0324,1.0449,1.0727,1.0683,1.0737,1.0737,1.0737,1.0737,1.0737,1.0737,1.0737,1.0737,1.0737,1.0737,1.0737,1.0737,1.0737,1.0737,1.5885,1.5885,1.5885,1.5885,1.5885,1.5815,1.5791,1.5908,1.6196,0.0,0.0,0.0,1.6678,1.6413,0.0,0.0,0.0,1.6272,0.0,0.0,1.7017,0.0,0.0,0.0,0.0,1.7653,1.7781,1.8024,1.8036,1.8001,1.8173,1.8102,1.7576,1.6664,0.0,1.5678,1.4888,0.0,0.0,1.5606,1.7433,1.8186,1.7887,1.5753,1.5653,1.6768,1.776,1.8293,1.8433,1.8433,1.8433,0.0,1.8433,0.0,0.0,0.0,0.0,0.0,1.7861,0.0,0.0,0.0,0.0,0.0,0.0,0.0,0.0,0.0,0.0,0.0,0.0,0.0,0.0,0.0,0.0,0.0,0.0,0.0,0.0,0.0,0.0,0.0,0.0,0.0,0.0,0.0,1.2718,1.0008,1.0019,1.0019,1.0019,1.0019,1.0019,1.0019,1.0019,1.0019,0.9939,0.9929,1.0506,1.0633,1.0777,1.0699,1.0737,1.0737,1.0737,1.0737,1.0737,1.0737,1.0737,1.0737,1.0737,1.0737,1.0737,1.0737,1.0737,1.0737,1.5885,1.5885,0.0,0.0,1.5885,1.597,1.6235,1.6513,0.0,0.0,0.0,0.0,0.0,0.0,0.0,0.0,0.0,1.6891,1.6771,0.0,1.7414,0.0,0.0,0.0,0.0,0.0,1.8807,1.906,1.8688,1.8571,1.8583,1.8415,1.8136,1.7895,1.8128,1.7959,1.7588,1.7833,1.7097,1.57,1.7673,1.8422,1.8422,0.0,1.8272,1.8282,1.8422,0.0,0.0,1.8433,1.8433,0.0,0.0,0.0,0.0,0.0,0.0,0.0,0.0,0.0,0.0,1.4307,0.0,0.0,0.0,0.0,0.9481,0.0,0.0,0.0,0.0,0.0,0.9976,0.9862,0.0,0.0,0.0,0.0,0.0,0.0,0.0,0.0,0.0,0.0,0.0,1.0336,1.0136,0.9976,1.0019,1.0019,1.0019,1.0019,1.0019,1.0019,1.0019,1.0019,0.9982,1.0051,1.055,1.0672,1.0732,1.0737,1.0737,1.0737,1.0737,1.0737,1.0737,1.0737,1.0737,1.0737,1.0737,1.0737,1.0737,1.0737,1.0737,1.0737,1.6429,0.0,0.0,0.0,0.0,0.0,0.0,1.6791,0.0,0.0,0.0,0.0,0.0,0.0,1.7363,0.0,0.0,1.7789,1.7789,1.8037,0.0,0.0,0.0,1.8728,0.0,0.0,0.0,0.0,0.0,1.9208,1.9208,1.9352,1.9299,1.9059,0.0,1.7099,0.0,0.0,0.0,0.0,0.0,1.8433,1.8433,0.0,0.0,1.8433,1.8433,1.8433,0.0,1.8433,1.8433,1.8433,1.8433,1.8433,1.8293,1.7861,1.7017,0.0,0.0,0.0,1.3302,1.3737,0.0,0.0,0.0,0.0,0.0,0.0,0.0,0.0,0.0,0.0,1.0008,0.9965,0.9992,1.0008,0.0,0.0,0.0,0.0,0.0,0.0,0.0,0.0,0.0,1.0019,1.0003,1.0003,0.0,1.0019,1.0019,1.0019,1.0019,1.0019,1.0019,1.0019,0.9982,1.0056,1.055,1.0677,1.0737,1.0737,1.0737,1.0737,1.0737,1.0737,1.0737,1.0737,1.0737,1.0737,1.0737,1.0737,1.0737,1.0737,1.0737,1.0737,1.6706,1.6779,0.0,0.0,0.0,0.0,0.0,0.0,0.0,0.0,1.7515,0.0,1.7998,0.0,1.8094,0.0,1.8384,1.8432,1.8432,1.8674,0.0,1.8819,1.8988,0.0,0.0,0.0,0.0,0.0,0.0,1.9615,1.9627,1.9893,1.984,1.9449,0.0,1.7475,1.7205,0.0,1.6798,0.0,0.0,1.8433,0.0,0.0,1.8433,1.8433,0.0,1.8433,1.8433,1.8433,1.8433,1.8433,1.8433,1.8433,1.8293,1.7721,1.6583,1.5443,1.5443,1.3587,0.0,1.2949,1.2388,0.0,1.1129,0.0,0.0,0.0,0.0,0.0,0.0,0.0,1.0019,1.0019,1.0019,1.0019,0.0,1.0019,0.0,0.0,0.0,0.0,0.0,0.0,1.0019,1.0019,1.0019,1.0019,0.0,0.0,1.0019,1.0019,1.0019,1.0019,1.0019,1.0063,1.0024,1.0056,1.0427,1.0716,1.0737,1.0737,1.0737,1.0737,1.0737,1.0737,1.0737,1.0737,1.0737,1.0737,1.0737,1.0737,1.0737,1.0737,1.0737,1.0737,1.6754,1.6972,0.0,0.0,1.6972,0.0,0.0,0.0,1.7612,0.0,1.7889,1.7998,1.8275,1.8312,1.8324,1.8336,1.8565,0.0,1.871,1.8939,0.0,0.0,1.9072,1.9072,1.9072,0.0,0.0,0.0,0.0,0.0,1.9917,2.0171,1.9882,1.9198,1.9438,0.0,1.8433,1.8433,1.8433,1.8433,1.8433,1.8433,1.8433,1.8433,0.0,1.8433,1.8433,1.8433,1.8433,1.8433,1.8444,1.8455,1.8455,1.8466,1.8184,1.6764,1.5186,1.4047,1.4047,1.2904,1.1647,1.1789,0.0,0.0,0.0,0.0,0.984,0.0,0.0,0.0,0.0,0.0,0.0,1.0019,1.0019,1.0019,1.0019,0.0,0.0,0.0,0.0,0.0,0.0,1.0019,1.0019,1.0019,1.0019,1.0019,0.0,0.0,1.0019,1.0019,1.0019,1.0019,1.0019,0.9982,0.994,1.0056,1.0503,1.0623,1.0737,1.0737,1.0737,1.0737,1.0737,1.0737,1.0737,1.0737,1.0737,1.0737,1.0737,1.0737,1.0737,1.0737,1.0737,1.0737,1.7539,1.7793,1.7962,0.0,1.7768,1.7744,0.0,0.0,0.0,0.0,1.8191,1.8287,1.8553,1.8589,1.8662,1.8855,1.8939,0.0,0.0,0.0,0.0,1.9072,1.9072,1.9072,1.9072,1.9338,0.0,1.947,0.0,0.0,2.0183,2.0448,2.0292,1.9877,0.0,0.0,1.8854,1.8573,1.8433,1.8433,1.8433,1.8433,0.0,0.0,1.8433,1.8433,1.8433,1.8433,1.8433,1.8433,1.8552,1.8692,1.8692,1.8821,1.8827,1.8528,1.7349,1.6168,1.6168,1.4123,1.1938,1.1972,1.1986,1.1573,0.0,0.0,0.0,0.0,0.0,0.0,0.0,0.0,0.0,1.0019,1.0019,1.0019,0.0,0.0,0.0,0.0,0.0,0.0,1.0019,1.0019,1.0019,1.0019,1.0019,1.0019,0.0,0.0,0.0,1.0019,1.0019,1.0019,1.0019,0.9982,1.0105,1.055,1.0666,1.0623,1.0737,1.0737,1.0737,1.0737,1.0737,1.0737,1.0737,1.0737,1.0737,1.0737,1.0737,1.0737,1.0737,1.0737,1.0737,1.0737,1.8034,0.0,0.0,1.8444,0.0,0.0,1.8287,0.0,0.0,1.8444,1.8469,0.0,1.8831,1.8963,1.9084,1.9229,1.9362,0.0,0.0,0.0,0.0,1.9241,1.9241,1.9241,1.9241,1.9627,0.0,1.982,0.0,0.0,2.0448,2.0605,2.0527,2.011,0.0,1.9541,0.0,1.8854,1.8573,1.8433,1.8433,0.0,0.0,1.8584,1.8649,1.8745,1.8745,1.8681,1.8605,1.8713,1.8832,1.8939,1.8939,1.9036,1.9155,1.9155,1.8102,1.6911,1.6911,1.4555,1.206,1.2121,1.1534,1.0824,1.0042,1.0531,1.101,0.0,0.0,0.0,0.0,0.0,0.0,0.0,0.0,0.0,0.0,0.0,0.0,0.0,0.0,0.0,1.0019,1.0019,1.0019,1.0019,1.0019,1.0019,0.0,0.0,0.0,1.0019,1.0019,1.0019,1.0019,1.0035,1.0313,1.0717,1.0721,1.0672,1.0737,1.0737,1.0737,1.0737,1.0737,1.0737,1.0737,1.0737,1.0737,1.0737,1.0737,1.0737,1.0737,1.0737,1.0737,1.0737,0.0,0.0,0.0,0.0,0.0,0.0,0.0,1.8396,0.0,1.871,0.0,1.8879,1.9096,1.9362,1.9519,1.9519,0.0,1.9881,1.9881,1.9652,1.9519,1.9519,1.9519,1.9519,1.9519,2.0014,0.0,0.0,0.0,0.0,2.0665,2.0665,2.0527,2.011,0.0,0.0,0.0,1.9122,1.8854,0.0,1.8466,1.8605,1.8789,1.8821,1.8961,1.9155,1.9187,1.9036,1.8864,1.9079,1.9165,1.9198,1.9198,1.9219,1.9241,1.9241,1.834,1.7291,1.7291,1.5066,1.2878,1.3007,1.153,1.019,1.0302,1.0175,1.0019,1.0019,1.0019,0.0,0.0,0.0,0.0,0.0,0.0,0.0,0.0,0.0,0.0,0.0,0.0,0.0,0.0,1.0019,0.0,0.0,0.0,0.0,0.0,0.0,0.0,1.0019,1.0019,0.0,1.0019,0.0,1.0222,1.0717,1.0628,1.0737,1.0737,1.0737,1.0737,1.0737,1.0737,1.0737,1.0737,1.0737,1.0737,1.0737,1.0737,1.0737,1.0737,1.0737,1.0737,1.0737,0.0,0.0,0.0,0.0,0.0,1.8988,1.8951,1.8939,1.8951,1.9,1.9193,0.0,1.9386,1.9652,1.9808,1.9808,1.9857,0.0,0.0,0.0,0.0,1.9808,1.9808,1.9808,1.9808,2.0122,2.0279,0.0,0.0,0.0,2.0665,2.0665,2.0665,0.0,0.0,0.0,1.9541,1.9122,0.0,1.8865,1.878,1.8745,1.881,1.9004,1.9112,1.9176,1.937,1.9284,1.909,1.9133,1.9273,1.9435,1.9435,1.9575,1.9725,1.9725,1.9564,1.9414,1.9414,1.7898,1.6536,1.6572,1.4283,1.1991,1.2017,1.0946,1.0019,1.0019,1.0019,1.0019,1.0019,0.0,0.0,0.0,0.0,0.0,0.0,0.0,0.0,0.0,0.0,0.0,0.0,0.0,0.0,0.0,0.0,0.0,0.0,0.0,0.0,0.0,0.0,0.0,0.0,0.0,1.0222,1.0717,1.0628,1.0737,1.0737,1.0737,1.0737,1.0737,1.0737,1.0737,1.0737,1.0737,1.0737,1.0737,1.0737,1.0737,1.0737,1.0737,1.0737,1.0737,0.0,0.0,0.0,0.0,0.0,0.0,0.0,1.9277,0.0,1.9277,1.9386,1.9519,1.9664,1.9929,2.0086,2.0086,2.0207,2.0291,2.0291,2.0158,2.0086,2.0086,2.0086,0.0,2.0086,2.0352,2.0484,2.0484,0.0,0.0,2.0665,2.0665,2.0665,2.0665,0.0,1.997,0.0,0.0,0.0,1.8921,1.8875,1.9047,1.9165,1.9284,1.9402,1.9531,1.9639,1.9607,1.951,1.951,1.9585,1.9682,1.9682,1.9758,1.9844,1.9844,1.9844,1.9844,1.9844,1.8623,1.7407,1.7407,1.5557,1.356,1.2635,1.1869,1.1101,1.0175,1.0019,1.0019,1.0019,1.0019,0.0,0.0,0.0,0.0,0.0,0.0,0.0,0.0,0.0,0.0,0.0,0.0,0.0,0.0,0.0,0.0,0.0,0.0,0.0,0.0,0.0,0.0,0.0,0.0,0.0,1.0717,1.0628,1.0737,1.0737,1.0737,1.0737,1.0737,1.0737,1.0737,1.0737,1.0737,1.0737,1.0737,1.0737,1.0737,1.0737,1.0737,1.0737,1.0737,0.0,1.9169,0.0,0.0,1.9205,0.0,0.0,1.9555,1.9555,1.9555,1.9603,1.9724,1.9941,2.0207,2.0364,2.0364,2.0545,2.0665,2.0665,2.0472,2.0364,2.0364,2.0364,2.0364,2.0364,2.0569,2.0665,0.0,0.0,0.0,0.0,2.0665,0.0,0.0,0.0,0.0,0.0,0.0,1.925,1.9029,1.9122,1.9338,1.951,1.9553,1.9693,1.9844,1.9844,1.9844,1.9844,1.9844,1.9844,1.9844,1.9844,1.9844,1.9844,1.9844,1.9844,1.9844,1.9542,1.8471,1.7407,1.7407,1.6168,1.4637,1.3252,1.279,1.2024,1.033,1.0019,1.0019,1.0019,1.0019,0.0,0.0,0.0,0.0,0.0,0.0,0.0,0.0,0.0,0.0,0.0,0.0,0.0,0.0,0.0,0.0,0.0,0.0,0.0,0.0,0.0,1.0019,1.0019,0.0,1.0222,0.0,1.0628,1.0737,1.0737,1.0737,1.0737,1.0737,1.0737,1.0737,1.0737,1.0737,1.0737,1.0737,1.0737,1.0737,1.0737,1.0737,1.0737,1.0737,0.0,0.0,0.0,0.0,0.0,0.0,0.0,1.9845,1.9845,1.9845,2.005,2.0207,2.0243,2.0472,2.0629,2.0629,2.0653,2.0665,2.0665,2.0641,2.0629,2.0629,2.0629,2.0629,2.0629,2.0653,2.0665,0.0,0.0,0.0,0.0,0.0,0.0,0.0,0.0,0.0,0.0,1.9645,1.9493,1.9569,1.9517,1.9478,1.9521,1.9736,1.9822,1.9844,1.9844,1.9844,1.9844,1.9844,1.9844,1.9844,1.9844,1.9844,1.9844,1.9844,1.9844,1.9542,1.8016,1.7559,1.7407,1.7407,1.6168,1.479,1.4637,1.356,1.2024,1.033,1.0019,1.0019,1.0019,1.0019,1.0019,0.0,0.0,0.0,0.0,0.0,0.0,0.0,0.0,0.0,0.0,0.0,0.0,0.0,0.0,0.0,0.0,0.0,0.0,1.0019,0.0,1.0019,1.0019,0.994,0.0,1.0717,1.0628,1.0737,1.0737,1.0737,1.0737,1.0737,1.0737,1.0737,1.0737,1.0737,1.0737,1.0737,1.0737,1.0737,1.0737,1.0737,1.0737,1.0737,0.0,0.0,0.0,0.0,0.0,0.0,0.0,2.0255,2.0412,2.0569,2.0545,2.0569,2.0726,2.0991,2.116,2.116,2.116,2.116,2.116,2.116,2.116,2.116,2.116,2.1076,2.0907,2.0907,2.0822,0.0,0.0,0.0,0.0,0.0,0.0,0.0,0.0,2.0577,2.0301,1.9882,1.9713,1.9528,1.9756,1.9704,1.9714,1.9811,1.9844,1.9844,1.9844,1.9844,1.9844,1.9844,1.9844,1.9844,1.9844,1.9844,1.9844,1.9844,1.9844,1.9693,1.9088,1.8168,1.7407,1.7407,1.6168,1.4637,1.3714,1.2944,1.2024,1.033,1.0019,1.0019,1.0019,1.0019,1.0019,0.0,0.0,0.0,0.0,0.0,0.0,0.0,0.0,0.0,0.0,0.0,0.0,0.0,0.0,0.0,0.0,0.0,0.0,1.0019,0.0,1.0057,1.0134,1.0297,1.0422,1.0655,1.0655,1.0737,1.0737,1.0737,1.0737,1.0737,1.0737,1.0737,1.0737,1.0737,1.0737,1.0737,1.0737,1.0737,1.0737,1.0737,1.0737,1.0737,1.9905,0.0,2.0086,0.0,2.0122,2.0291,2.0484,2.0738,2.0967,2.116,2.1088,2.1064,2.1172,2.1366,2.1474,2.1474,2.1474,2.1474,2.1474,2.1474,2.1474,2.1474,2.1474,0.0,2.1185,2.1185,2.1088,2.0907,2.0907,0.0,0.0,0.0,0.0,0.0,2.1018,2.0845,2.0577,2.0309,1.9977,1.9767,1.993,1.9844,1.9844,1.9844,1.9844,1.9844,1.9844,1.9844,1.9844,1.9844,1.9844,1.9844,1.9844,1.9844,1.9844,1.9844,1.9844,1.9844,1.9239,1.8319,1.7407,1.7407,1.6168,1.4637,1.3406,1.279,1.2024,1.033,1.0019,1.0019,1.0019,1.0019,1.0019,1.0019,0.0,0.0,0.0,0.0,0.0,0.0,0.0,1.0019,1.0019,0.0,0.0,0.0,0.0,0.0,0.0,0.0,0.0,0.0,0.0,0.0,0.0,1.0324,1.0443,1.0721,1.0677,1.0737,1.0737,1.0737,1.0737,1.0737,1.0737,1.0737,1.0737,1.0737,1.0737,1.0737,1.0737,1.0737,1.0737,1.0737,1.0737,1.0737,1.9941,2.0303,2.0581,2.0315,2.0702,2.1052,2.1052,2.1293,2.1474,2.1474,2.1691,2.1764,2.1498,2.1474,2.1474,2.1474,2.1474,2.1474,2.1474,2.1474,2.1474,0.0,0.0,2.1474,2.1474,2.1474,2.1474,2.1474,0.0,0.0,2.1474,0.0,2.1716,2.1486,2.129,2.1261,2.1284,2.0388,2.0225,2.0436,1.9995,1.9844,1.9844,1.9844,1.9844,1.9844,1.9844,1.9844,1.9844,1.9844,1.9844,1.9844,1.9844,1.9844,1.9844,1.9844,1.9844,1.9542,1.7864,1.7407,1.7407,1.7407,1.6168,1.4944,1.4944,1.3714,1.2024,1.033,1.0019,1.0019,1.0019,1.0019,1.0019,1.0019,0.0,0.0,0.0,0.0,0.0,0.0,1.0019,1.0019,1.0019,0.0,0.0,0.0,0.0,0.0,0.0,0.0,0.0,1.0019,1.0019,0.0,1.0363,1.0484,1.0605,1.0721,1.0677,1.0737,1.0737,1.0737,1.0737,1.0737,1.0737,1.0737,1.0737,1.0737,1.0737,1.0737,1.0737,1.0737,1.0737,1.0737,1.0737,1.0737,2.0436,2.0702,2.0907,2.0822,2.1112,2.1341,2.1341,2.1571,2.1752,2.1752,2.1969,2.2102,2.2017,2.2017,2.2017,0.0,2.2017,2.2017,0.0,2.2017,2.2017,2.2017,2.2017,2.1933,2.1752,2.1752,2.1655,2.1474,0.0,0.0,0.0,2.1752,2.1824,2.1752,2.187,2.1829,2.1543,2.1244,2.113,2.091,2.0759,2.0759,2.0759,2.0759,2.0609,2.0296,2.0296,2.0145,1.9844,1.9844,1.9844,1.9844,1.9844,1.9844,1.9844,1.9844,1.9844,1.9844,1.9239,1.8319,1.7407,1.7407,1.6168,1.4637,1.356,1.2024,1.0635,1.0175,1.0019,1.0019,1.0019,1.0019,1.0019,1.0019,0.0,0.0,0.0,0.0,0.0,0.0,0.0,1.0019,0.0,1.0019,0.0,0.0,0.0,0.0,0.0,0.0,0.0,0.0,1.0019,0.0,1.0324,1.0367,1.0487,1.0683,1.0721,1.0737,1.0737,1.0737,1.0737,1.0737,1.0737,1.0737,1.0737,1.0737,1.0737,1.0737,1.0737,1.0737,1.0737,1.0737,1.0737,1.0737,2.0967,2.11,2.1221,2.1221,2.145,2.1631,2.1631,2.1848,2.2017,2.2017,2.2162,2.2259,2.2259,2.2259,0.0,2.2259,2.2259,2.2259,2.2259,2.2259,2.2259,2.2259,2.2259,2.2186,2.2017,0.0,0.0,2.1776,2.1776,2.1776,2.1776,2.1945,2.2017,2.2029,2.2186,2.2109,2.196,2.181,2.1522,2.1372,2.1222,2.1071,2.1071,2.1071,2.091,2.0748,2.0748,2.0447,2.0145,2.0145,1.9995,1.9844,1.9844,1.9844,1.9844,1.9844,1.9844,1.9844,1.9844,1.9077,1.8319,1.8319,1.7093,1.525,1.2944,1.1714,1.0791,1.0175,1.0019,1.0019,1.0019,1.0019,1.0019,1.0019,1.0019,1.0019,1.0019,0.0,0.0,0.0,0.0,0.0,0.0,1.0019,0.0,0.0,0.0,0.0,0.0,0.0,0.0,1.0019,1.0063,0.0,1.0384,1.0427,1.0547,1.0737,1.0737,1.0737,1.0737,1.0737,1.0737,1.0737,1.0737,1.0737,1.0737,1.0737,1.0737,1.0737,1.0737,1.0737,1.0737,1.0737,1.0737,1.0737,2.1474,2.1486,0.0,0.0,2.1728,0.0,2.1897,2.2102,2.2259,2.2259,2.2259,2.2259,2.2259,2.2259,2.2259,2.2259,0.0,0.0,0.0,2.2259,2.2259,2.2259,2.2259,2.2259,2.2259,2.2259,2.2259,2.2259,2.2259,2.2259,2.2259,2.2259,2.2259,2.2259,2.2259,2.2259,2.2259,2.196,2.166,2.166,2.136,2.1222,2.1222,2.1222,2.1222,2.1071,2.1083,2.0932,2.0469,2.0642,2.034,1.9898,2.0049,1.9898,1.9887,1.9854,1.9844,1.9844,1.9844,1.9844,1.9844,1.9844,1.8623,1.6635,1.356,1.279,1.2179,1.0486,1.0175,1.0175,1.0019,1.0019,1.0019,1.0019,1.0019,1.0019,1.0019,0.0,0.0,0.0,0.0,0.0,0.0,1.0019,1.0019,0.0,0.0,0.0,0.0,0.0,1.0019,1.0019,1.0139,1.0264,1.0384,1.0498,1.0617,1.0737,1.0737,1.0737,1.0737,1.0737,1.0737,1.0737,1.0737,1.0737,1.0737,1.0737,1.0737,1.0737,1.0737,1.0737,1.0737,1.0737,1.0737,1.0737,0.0,0.0,2.1776,2.1776,2.1993,2.2174,2.2174,2.2223,2.2259,2.2259,2.2259,2.2259,2.2259,2.2259,2.2259,2.2259,2.2259,2.2259,2.2259,2.2259,2.2259,2.2259,2.2259,2.2259,2.2259,2.2259,2.2259,2.2259,2.2259,2.2259,2.2259,2.2259,2.2259,2.2259,2.2259,2.2259,2.2259,2.2259,2.2109,2.2109,2.2109,2.196,2.196,2.196,2.181,2.1545,2.1732,2.1345,2.0757,2.1243,2.1002,2.0548,2.0858,2.0703,2.0317,1.9951,1.9844,1.9844,1.9844,1.9844,1.9844,1.9844,1.8623,1.7245,1.6483,1.525,1.3868,1.2179,1.1869,1.156,1.0175,1.0019,1.0019,1.0019,1.0019,1.0019,1.0019,1.0019,0.0,0.0,1.0019,1.0019,1.0019,1.0019,1.0019,0.0,0.0,0.0,0.0,1.0019,1.0019,1.0019,1.0139,1.0264,1.0384,1.0498,1.0617,1.0737,1.0737,1.0737,1.0737,1.0737,1.0737,1.0737,1.0737,1.0737,1.0737,1.0737,1.0737,1.0737,1.0737,1.0737,1.0737,1.0737,1.0737,1.0737,2.1836,2.1957,2.2054,2.2054,2.2162,2.2259,2.2259,2.2259,2.2259,2.2259,2.2259,2.2259,2.2259,2.2259,2.2259,2.2259,2.2259,2.2259,2.2259,2.2259,2.2259,2.2259,2.2259,2.2259,2.2259,2.2259,2.2259,2.2259,2.2259,2.2259,2.2259,2.2259,2.2259,2.2259,2.2259,2.2259,2.2259,2.2259,2.2259,2.2259,2.2259,2.2331,2.244,2.244,2.2361,2.2329,2.2472,2.2058,2.1619,2.1912,2.1491,2.0878,2.1179,2.0867,2.0511,2.0253,2.0102,2.0016,2.0016,1.993,1.9844,1.9844,1.9239,1.8319,1.7559,1.6635,1.5557,1.3868,1.356,1.3098,1.1405,1.1101,1.0946,1.0175,1.0019,1.0019,1.0019,1.0019,0.0,1.0019,1.0019,1.0019,1.0019,1.0019,1.0019,1.0019,0.0,0.0,1.0019,1.0074,1.0101,1.0101,1.0221,1.0346,1.046,1.0579,1.0672,1.0737,1.0737,1.0737,1.0737,1.0737,1.0737,1.0737,1.0737,1.0737,1.0737,1.0737,1.0737,1.0737,1.0737,1.0737,1.0737,1.0737,1.0737,1.0737,2.2259,2.2259,2.2259,2.2259,2.2259,2.2259,2.2259,2.2259,2.2259,2.2259,2.2259,2.2259,2.2259,2.2259,2.2259,2.2259,2.2259,2.2259,2.2259,2.2259,2.2259,2.2259,2.2259,2.2259,2.2259,2.2259,2.2259,2.2259,2.2259,2.2259,2.2259,2.2259,2.2259,2.2259,2.2259,2.2259,2.2259,2.2307,2.2319,2.2319,2.2367,2.2512,2.2705,2.2705,2.285,2.3043,2.3092,2.2793,2.2482,2.2518,2.2073,2.129,2.1447,2.1133,2.0673,2.0673,2.05,2.0307,2.0274,2.0113,1.9951,1.9951,1.9951,1.9637,1.8227,1.776,1.7283,1.5565,1.525,1.479,1.3098,1.2635,1.2024,1.0635,1.0175,1.0019,1.0019,0.0,1.0019,1.0019,1.0019,1.0019,1.0019,1.0019,1.0025,1.0047,1.0047,1.0057,0.0,1.0172,1.0237,1.0253,1.0356,1.0465,1.0579,1.0683,1.0737,1.0737,1.0737,1.0737,1.0737,1.0737,1.0737,1.0737,1.0737,1.0737,1.0737,1.0737,1.0737,1.0737,1.0737,1.0737,1.0737,1.0737,1.0737,1.0737,2.2259,2.2259,2.2259,2.2259,2.2259,2.2259,2.2259,2.2259,2.2259,2.2259,2.2259,2.2259,2.2259,2.2259,2.2259,2.2259,2.2259,2.2259,2.2259,2.2259,2.2259,2.2259,2.2259,2.2259,2.2259,2.2259,2.2259,2.2259,2.2259,2.2259,2.2259,2.2259,2.2259,2.2259,2.2259,2.2259,2.2271,2.25,2.2585,2.2609,2.2826,2.2947,2.2983,2.2983,2.3007,2.308,2.3309,2.3079,2.2788,2.3329,2.2762,2.18,2.2293,2.1811,2.1168,2.1168,2.0996,2.0759,2.0565,2.0479,2.0447,2.0447,2.0447,2.0404,1.9891,1.9849,1.9172,1.7435,1.694,1.6483,1.479,1.3406,1.2488,1.2179,1.0946,1.0019,1.0019,0.0,1.0019,1.0019,1.0019,1.0019,1.0019,1.0019,1.0063,1.0166,1.0177,1.0221,1.0324,1.0346,1.04,1.0498,1.052,1.0585,1.071,1.0726,1.0737,1.0737,1.0737,1.0737,1.0737,1.0737,1.0737,1.0737,1.0737,1.0737,1.0737,1.0737,1.0737,1.0737,1.0737,1.0737,1.0737,1.0737,1.0737,1.0737,2.2259,2.2259,2.2259,2.2259,2.2259,2.2259,2.2259,2.2259,2.2259,2.2259,2.2259,2.2259,2.2259,2.2259,2.2259,2.2259,2.2259,2.2259,2.2259,2.2259,2.2259,2.2259,2.2259,2.2259,2.2259,2.2259,2.2259,2.2259,2.2259,2.2259,2.2259,2.2259,2.2331,2.2476,2.2476,2.2549,2.2693,2.2814,2.2862,2.2874,2.2995,2.3128,2.3261,2.3261,2.3357,2.349,2.3623,2.3512,2.3365,2.3644,2.3199,2.2556,2.2889,2.2245,2.1599,2.1599,2.1264,2.0856,2.063,2.0565,2.0565,2.0565,2.0565,2.0533,2.0425,2.0404,2.0206,1.9316,1.905,1.8345,1.6789,1.5778,1.479,1.3868,1.2481,0.0,0.0,1.0635,1.0019,1.0019,1.0079,1.0117,1.0117,1.0177,1.0242,1.0297,1.0302,1.0329,1.0384,1.0443,1.0503,1.0552,1.0617,1.0677,1.0737,1.0737,1.0737,1.0737,1.0737,1.0737,1.0737,1.0737,1.0737,1.0737,1.0737,1.0737,1.0737,1.0737,1.0737,1.0737,1.0737,1.0737,1.0737,1.0737,1.0737,1.0737,2.2259,2.2259,2.2259,2.2259,2.2259,2.2259,2.2259,2.2259,2.2259,2.2259,2.2259,2.2259,2.2259,2.2259,2.2259,2.2259,2.2259,2.2259,2.2259,2.2259,2.2259,2.2259,2.2259,2.2259,2.2259,2.2259,2.2295,2.2355,2.2355,2.238,2.244,2.244,2.2549,2.2742,2.2742,2.285,2.3043,2.3116,2.314,2.314,2.32,2.3357,2.355,2.355,2.3671,2.384,2.384,2.384,2.384,2.384,2.352,2.3211,2.3211,2.2728,2.2084,2.1922,2.1457,2.0953,2.078,2.0727,2.0727,2.0727,2.0727,2.0716,2.0651,2.064,2.063,2.0576,2.0425,1.9822,1.8562,1.7961,1.7079,1.5838,0.0,0.0,0.0,1.1498,1.0571,1.0106,1.0188,1.0248,1.0248,1.0329,1.04,1.0422,1.0427,1.0438,1.0465,1.0552,1.0596,1.0596,1.0688,1.0737,1.0737,1.0737,1.0737,1.0737,1.0737,1.0737,1.0737,1.0737,1.0737,1.0737,1.0737,1.0737,1.0737,1.0737,1.0737,1.0737,1.0737,1.0737,1.0737,1.0737,1.0737,1.0737,2.2259,2.2259,2.2259,2.2259,2.2259,2.2259,2.2259,2.2259,2.2259,2.2259,2.2259,2.2259,2.2259,2.2259,2.2259,2.2259,2.2259,2.2259,2.2259,2.2259,2.2259,2.2259,2.2259,2.2259,2.2259,2.2259,2.238,2.2621,2.2621,2.2742,2.2983,2.2983,2.2995,2.3019,2.3019,2.3019,2.3056,2.3309,2.3418,2.3442,2.3683,2.3792,2.3816,2.3816,2.3828,2.384,2.384,2.384,2.384,2.384,2.352,2.3211,2.3211,2.2889,2.2406,2.2084,2.1588,2.1243,2.1233,2.1222,2.1222,2.1222,2.1222,2.1168,2.0931,2.0877,2.0823,2.0608,2.0544,2.0533,2.0377,1.9083,1.7965,1.7807,0.0,0.0,1.3214,1.2895,1.2103,1.0517,1.0367,1.0373,1.0373,1.0378,1.0433,1.0536,1.0541,1.059,1.0704,1.0721,1.0721,1.0721,1.0732,1.0737,1.0737,1.0737,1.0737,1.0737,1.0737,1.0737,1.0737,1.0737,1.0737,1.0737,1.0737,1.0737,1.0737,1.0737,1.0737,1.0737,1.0737,1.0737,1.0737,1.0737,1.0737,1.0737,2.2259,2.2259,2.2259,2.2259,2.2259,2.2259,2.2259,2.2259,2.2259,2.2259,2.2259,2.2259,2.2259,2.2259,2.2259,2.2259,2.2259,2.2331,2.2488,2.25,2.25,2.25,2.25,2.2585,2.2742,2.2742,2.279,2.2899,2.2899,2.2947,2.3043,2.3043,2.314,2.3297,2.3297,2.3381,2.355,2.3647,2.3695,2.3707,2.3804,2.384,2.384,2.384,2.384,2.384,2.384,2.384,2.384,2.384,2.368,2.352,2.352,2.3371,2.2889,2.2084,2.1599,2.1276,2.1276,2.1276,2.1276,2.1276,2.1276,2.1254,2.1157,2.1136,2.1114,2.1028,2.0877,2.077,2.077,2.0179,1.9604,1.9604,0.0,1.6889,1.6265,1.4358,1.2769,1.2134,1.1091,1.0492,1.0492,1.0558,1.0623,1.0666,1.0666,1.0688,1.0732,1.0737,1.0737,1.0737,1.0737,1.0737,1.0737,1.0737,1.0737,1.0737,1.0737,1.0737,1.0737,1.0737,1.0737,1.0737,1.0737,1.0737,1.0737,1.0737,1.0737,1.0737,1.0737,1.0737,1.0737,1.0737,1.0737,1.0737,2.2259,2.2259,2.2259,2.2259,2.2259,2.2259,2.2259,2.2259,2.2259,2.2259,2.2259,2.2295,2.238,2.238,2.2416,2.25,2.25,2.2585,2.2766,2.2778,2.2778,2.2778,2.2778,2.2862,2.3043,2.3043,2.308,2.3176,2.3176,2.3212,2.3297,2.3297,2.3393,2.3575,2.3575,2.3671,2.384,2.384,2.384,2.384,2.384,2.384,2.384,2.384,2.384,2.384,2.384,2.384,2.384,2.384,2.384,2.384,2.384,2.352,2.3038,2.2406,2.1761,2.1438,2.1276,2.1276,2.1276,2.1276,2.1276,2.1276,2.1276,2.1276,2.1276,2.1276,2.1136,2.1017,2.1017,2.0899,2.0791,2.0791,1.982,1.8847,1.836,1.6275,1.4348,1.3233,1.2188,1.1265,1.0612,1.0688,1.0737,1.0737,1.0737,1.0737,1.0737,1.0737,1.0737,1.0737,1.0737,1.0737,1.0737,1.0737,1.0737,1.0737,1.0737,1.0737,1.0737,1.0737,1.0737,1.0737,1.0737,1.0737,1.0737,1.0737,1.0737,1.0737,1.0737,1.0737,1.0737,1.0737,1.0737,1.0737,2.2259,2.2259,2.2259,2.2259,2.2259,2.2259,2.2259,2.2259,2.2259,2.2259,2.2259,2.2367,2.2621,2.2657,2.2754,2.3019,2.3043,2.3043,2.3043,2.3043,2.3056,2.3056,2.3043,2.3043,2.3056,2.3056,2.3176,2.3454,2.3454,2.3587,2.384,2.384,2.384,2.384,2.384,2.384,2.384,2.384,2.384,2.384,2.384,2.384,2.384,2.384,2.384,2.384,2.384,2.384,2.384,2.384,2.384,2.384,2.384,2.352,2.305,2.2728,2.2245,2.1761,2.1438,2.1276,2.1276,2.1276,2.1276,2.1276,2.1276,2.1276,2.1276,2.1276,2.1276,2.1276,2.1276,2.1276,2.1276,2.1276,2.1276,2.0617,1.8789,1.8626,1.7319,1.388,1.3383,1.272,1.0904,1.0737,1.0737,1.0737,1.0737,1.0737,1.0737,1.0737,1.0737,1.0737,1.0737,1.0737,1.0737,1.0737,1.0737,1.0737,1.0737,1.0737,1.0737,1.0737,1.0737,1.0737,1.0737,1.0737,1.0737,1.0737,1.0737,1.0737,1.0737,1.0737,1.0737,1.0737,1.0737,1.0737,2.2259,2.2259,2.2259,2.2259,2.2259,2.2259,2.2259,2.2416,2.2536,2.2536,2.2693,2.2838,2.2923,2.2923,2.2959,2.3031,2.3043,2.3128,2.3321,2.3502,2.3599,2.3599,2.343,2.3418,2.3599,2.3599,2.3647,2.3731,2.3731,2.3768,2.384,2.384,2.384,2.384,2.384,2.384,2.384,2.384,2.384,2.384,2.384,2.384,2.384,2.384,2.384,2.384,2.384,2.384,2.384,2.384,2.384,2.384,2.384,2.352,2.305,2.2728,2.2245,2.1761,2.1438,2.1276,2.1276,2.1276,2.1276,2.1276,2.1276,2.1276,2.1276,2.1276,2.1276,2.1276,2.1276,2.1276,2.1276,2.1276,2.1276,2.1114,2.0617,1.945,1.8137,1.7147,1.4863,1.3217,1.272,1.1397,1.0737,1.0737,1.0737,1.0737,1.0737,1.0737,1.0737,1.0737,1.0737,1.0737,1.0737,1.0737,1.0737,1.0737,1.0737,1.0737,1.0737,1.0737,1.0737,1.0737,1.0737,1.0737,1.0737,1.0737,1.0737,1.0737,1.0737,1.0737,1.0737,1.0737,1.0737,1.0748,2.2408,2.2259,2.2259,2.2259,2.2343,2.2416,2.2416,2.2645,2.2802,2.2802,2.2947,2.308,2.32,2.32,2.3249,2.3345,2.3357,2.343,2.3599,2.3756,2.384,2.384,2.3695,2.3683,2.384,2.384,2.384,2.384,2.384,2.384,2.384,2.384,2.384,2.384,2.384,2.384,2.384,2.384,2.384,2.384,2.384,2.384,2.384,2.384,2.384,2.384,2.384,2.384,2.384,2.384,2.384,2.384,2.384,2.368,2.3371,2.2889,2.2567,2.2084,2.1599,2.1438,2.1276,2.1276,2.1276,2.1276,2.1276,2.1276,2.1276,2.1276,2.1276,2.1276,2.1276,2.1276,2.1276,2.1276,2.1276,2.1276,2.1276,2.0282,1.945,1.8626,1.6656,1.4856,1.3549,1.2388,1.1397,1.0737,1.0737,1.0737,1.0737,1.0737,1.0737,1.0737,1.0737,1.0737,1.0737,1.0737,1.0737,1.0737,1.0737,1.0737,1.0737,1.0737,1.0737,1.0737,1.0737,1.0737,1.0737,1.0737,1.0737,1.0737,1.0737,1.0737,1.0737,1.0737,1.077,1.0651,2.2558,2.2283,2.2295,2.2295,2.2512,2.2693,2.2693,2.2911,2.308,2.308,2.3104,2.3212,2.3466,2.349,2.3587,2.3828,2.384,2.384,2.384,2.384,2.384,2.384,2.384,2.384,2.384,2.384,2.384,2.384,2.384,2.384,2.384,2.384,2.384,2.384,2.384,2.384,2.384,2.384,2.384,2.384,2.384,2.384,2.384,2.384,2.3852,2.3876,2.3876,2.3876,2.3876,2.3852,2.384,2.384,2.384,2.384,2.368,2.3371,2.2889,2.2567,2.2084,2.1599,2.1276,2.1276,2.1276,2.1276,2.1276,2.1276,2.1276,2.1276,2.1276,2.1276,2.1276,2.1276,2.1276,2.1276,2.1276,2.1276,2.1276,2.1276,2.0617,1.9115,1.8626,1.7311,1.4203,1.3549,1.272,1.0904,1.0737,1.0737,1.0737,1.0737,1.0737,1.0737,1.0737,1.0737,1.0737,1.0737,1.0737,1.0737,1.0737,1.0737,1.0737,1.0737,1.0737,1.0737,1.0737,1.0737,1.0737,1.0737,1.0737,1.0737,1.0737,1.0742,1.0753,1.0753,1.0661,1.0763,2.2408,2.2428,2.2573,2.2573,2.279,2.2959,2.2959,2.3188,2.3369,2.3369,2.3538,2.3695,2.3756,2.3756,2.378,2.384,2.384,2.384,2.384,2.384,2.384,2.384,2.384,2.384,2.384,2.384,2.384,2.384,2.384,2.384,2.384,2.384,2.384,2.384,2.384,2.384,2.384,2.384,2.384,2.384,2.384,2.384,2.384,2.384,2.3973,2.4154,2.4154,2.4154,2.4118,2.3913,2.384,2.384,2.384,2.384,2.368,2.3371,2.2889,2.2567,2.2084,2.1599,2.1276,2.1276,2.1276,2.1276,2.1276,2.1276,2.1276,2.1276,2.1276,2.1276,2.1276,2.1276,2.1276,2.1276,2.1276,2.1276,2.1276,2.1276,2.1114,2.0779,1.945,1.83,1.7474,1.502,1.272,1.0904,1.0737,1.0737,1.0737,1.0737,1.0737,1.0737,1.0737,1.0737,1.0737,1.0737,1.0737,1.0737,1.0737,1.0737,1.0737,1.0737,1.0737,1.0737,1.0737,1.0737,1.0737,1.0737,1.0737,1.0737,1.0737,1.0797,1.0884,1.1053,1.0954,1.0725,2.2603,2.2657,2.2838,2.2838,2.3056,2.3237,2.3237,2.3466,2.3635,2.3635,2.3756,2.384,2.384,2.384,2.384,2.384,2.384,2.384,2.384,2.384,2.384,2.384,2.384,2.384,2.384,2.384,2.384,2.384,2.384,2.384,2.384,2.384,2.384,2.384,2.384,2.384,2.384,2.384,2.384,2.384,2.384,2.3925,2.4033,2.4033,2.419,2.442,2.442,2.442,2.4383,2.4118,2.4033,2.4009,2.3888,2.384,2.368,2.352,2.3211,2.2728,2.2406,2.1922,2.1599,2.1276,2.1276,2.1276,2.1276,2.1276,2.1276,2.1276,2.1276,2.1276,2.1276,2.1276,2.1276,2.1276,2.1276,2.1276,2.1276,2.1276,2.1276,2.1276,2.0444,1.9287,1.7474,1.502,1.272,1.0904,1.0737,1.0737,1.0737,1.0737,1.0737,1.0737,1.0737,1.0737,1.0737,1.0737,1.0737,1.0737,1.0737,1.0737,1.0737,1.0737,1.0737,1.0737,1.0737,1.0737,1.0737,1.0737,1.077,1.0824,1.0824,1.09,1.1009,1.118,1.1085,1.1199,2.3022,2.2935,2.3116,2.3116,2.3333,2.3526,2.3526,2.3707,2.384,2.384,2.384,2.384,2.384,2.384,2.384,2.384,2.384,2.384,2.384,2.384,2.384,2.384,2.384,2.384,2.384,2.384,2.384,2.384,2.384,2.384,2.384,2.384,2.384,2.384,2.384,2.384,2.384,2.384,2.3876,2.3913,2.3913,2.4069,2.4299,2.4299,2.4468,2.4697,2.4697,2.4697,2.4661,2.4395,2.4299,2.4251,2.3997,2.3913,2.39,2.3852,2.352,2.3211,2.2728,2.2245,2.1761,2.1438,2.1276,2.1276,2.1276,2.1276,2.1276,2.1276,2.1276,2.1276,2.1276,2.1276,2.1276,2.1276,2.1276,2.1276,2.1276,2.1276,2.1276,2.1276,2.1276,1.9957,1.6336,1.4698,1.3052,1.0904,1.0737,1.0737,1.0737,1.0737,1.0737,1.0737,1.0737,1.0737,1.0737,1.0759,1.077,1.077,1.0791,1.0775,1.0737,1.0759,1.077,1.077,1.0791,1.0797,1.0797,1.0797,1.0857,1.0949,1.0949,1.1025,1.1134,1.1156,1.14,1.1494,2.3137,2.3212,2.3393,2.3393,2.3611,2.3792,2.3792,2.3816,2.384,2.384,2.384,2.384,2.384,2.384,2.384,2.384,2.384,2.384,2.384,2.384,2.384,2.384,2.384,2.384,2.384,2.384,2.384,2.384,2.384,2.384,2.384,2.384,2.384,2.384,2.384,2.384,2.384,2.384,2.3973,2.4178,2.4178,2.4335,2.4576,2.4576,2.4745,2.4987,2.4987,2.4987,2.4951,2.4673,2.4576,2.4528,2.4263,2.4178,2.4142,2.3913,2.352,2.3199,2.3211,2.2567,2.1922,2.1761,2.1599,2.1276,2.1276,2.1276,2.1276,2.1276,2.1276,2.1276,2.1276,2.1276,2.1276,2.1276,2.1276,2.1276,2.1276,2.1276,2.1276,2.1276,2.1276,1.9957,1.6336,1.5843,1.4196,1.0904,1.0737,1.0737,1.0737,1.0737,1.0737,1.0737,1.0737,1.0737,1.0737,1.084,1.0895,1.0895,1.1003,1.0944,1.0742,1.0846,1.0895,1.09,1.1009,1.1052,1.1052,1.1052,1.1063,1.1079,1.1079,1.115,1.1264,1.1368,1.1417,1.1433,2.3429,2.349,2.3671,2.3671,2.3768,2.384,2.384,2.384,2.384,2.384,2.384,2.384,2.384,2.384,2.384,2.384,2.384,2.384,2.384,2.384,2.384,2.384,2.384,2.384,2.384,2.384,2.384,2.384,2.384,2.384,2.384,2.384,2.384,2.384,2.384,2.3925,2.4057,2.4057,2.4214,2.4456,2.4456,2.4613,2.4866,2.4866,2.5023,2.5264,2.5264,2.5264,2.5216,2.4951,2.4866,2.4818,2.454,2.4456,2.4432,2.4311,2.4112,2.396,2.3634,2.3202,2.2773,2.2285,2.186,2.1599,2.1276,2.1276,2.1276,2.1276,2.1276,2.1276,2.1276,2.1276,2.1276,2.1276,2.1276,2.1276,2.1276,2.1276,2.0941,1.9947,1.9785,1.8472,1.4863,1.4533,1.3542,1.0904,1.0737,1.0737,1.0737,1.0737,1.0737,1.0737,1.0802,1.084,1.084,1.096,1.102,1.102,1.1079,1.1047,1.0944,1.0998,1.102,1.1025,1.1079,1.1101,1.1101,1.1101,1.1139,1.1199,1.1199,1.127,1.1378,1.1433,1.1455,1.1455]}]]